ECMWFNIL_sfc_temp_000.txt.gz
Temp
67 67 67 67 67 67 67 66 67 66 67 68 67 68 68 69 70 69 69 70 70 70 70 70 71 71 72 72 72 72 71 72 73 73 71 71 69 69 69 70 70 71
66 67 68 67 66 67 66 66 66 66 66 67 67 67 68 69 69 69 69 69 69 70 70 70 71 71 71 71 72 71 71 72 72 73 72 71 71 71 71 72 71 71
65 66 66 65 65 65 66 66 66 66 66 67 67 67 67 69 69 69 69 69 69 69 70 70 70 71 71 71 71 71 71 71 71 72 72 71 72 72 72 72 70 70
65 65 65 65 65 65 66 65 66 66 66 66 67 67 68 69 69 68 68 69 68 68 69 69 69 70 70 70 70 70 71 71 72 72 71 71 71 71 71 72 71 70
65 65 65 64 65 65 65 65 65 66 66 66 66 67 67 67 67 67 67 68 68 68 68 68 69 69 70 70 70 69 69 70 71 71 70 70 71 71 71 71 70 69
64 64 64 64 65 64 64 64 65 65 65 66 66 67 67 67 67 67 67 67 68 68 68 68 68 69 69 69 69 68 68 68 69 70 69 68 69 71 71 70 69 69
64 64 64 64 64 64 64 64 64 66 65 66 66 66 67 66 66 67 66 67 67 68 67 67 67 68 68 68 67 67 68 68 68 69 68 68 69 69 70 70 69 69
64 64 63 63 63 63 63 64 64 64 65 65 65 66 66 66 67 67 67 67 67 68 68 68 68 67 67 67 67 67 67 68 68 68 67 68 68 68 69 69 69 69
63 63 63 63 63 63 63 64 64 64 65 64 65 65 66 67 67 67 67 66 66 67 67 67 68 68 68 67 67 67 67 67 68 68 67 66 67 68 68 69 68 68
63 63 63 63 63 64 64 64 64 64 65 64 65 65 65 67 68 67 66 65 66 66 67 67 67 68 68 67 67 67 67 67 68 67 67 67 67 67 68 68 68 67
63 63 63 64 64 64 64 65 65 65 65 65 65 65 66 66 67 67 66 65 65 66 66 66 67 67 65 66 66 66 66 66 66 67 67 67 68 68 68 68 68 68
63 63 64 64 64 65 65 65 65 64 64 64 65 65 66 66 66 67 67 66 65 65 66 66 65 65 65 65 65 66 66 66 66 66 67 67 67 68 68 68 68 69
63 63 63 63 64 64 64 64 64 64 64 64 65 65 65 65 67 67 67 66 66 66 65 65 65 64 64 65 67 67 66 65 65 66 66 66 66 67 68 69 69 70
63 63 63 63 64 64 64 64 64 64 64 64 65 64 65 66 66 66 67 67 66 66 66 66 65 64 65 66 66 65 65 64 64 64 65 66 67 66 67 68 69 69
63 63 63 63 64 64 64 64 64 64 64 64 64 65 66 66 67 67 66 67 67 66 66 66 65 64 65 65 64 64 64 63 63 63 64 65 66 67 67 67 68 68
62 63 63 63 63 64 64 64 64 64 64 64 64 65 65 65 66 66 67 67 67 66 66 65 64 65 63 60 60 63 63 62 61 62 63 64 65 65 66 67 66 67
62 63 63 63 64 63 64 64 64 64 64 64 64 64 64 65 66 66 66 66 66 66 65 64 64 65 61 60 61 61 62 62 61 61 62 63 64 64 65 66 68 68
63 63 63 63 63 63 64 63 63 63 63 64 64 64 64 65 65 65 65 66 66 65 64 64 63 62 59 59 60 60 60 62 62 62 62 62 62 63 65 66 67 68
63 63 62 62 63 63 63 63 63 63 63 64 64 65 65 64 64 65 65 65 66 64 63 63 63 61 59 58 58 58 60 62 64 64 63 62 63 64 65 66 67 67
63 62 62 63 63 62 62 62 62 63 63 64 64 64 63 63 64 64 64 65 65 65 64 63 63 61 58 57 56 57 58 62 64 63 63 62 61 60 61 61 61 62
63 63 62 63 63 62 62 62 62 63 63 64 64 63 63 63 63 63 64 65 65 65 65 65 67 60 56 56 55 55 56 60 64 63 62 61 60 60 60 60 60 60
64 63 62 62 62 62 62 63 63 63 63 64 64 64 64 63 63 64 64 64 65 65 65 65 66 59 56 55 54 55 57 63 62 61 60 60 60 60 60 60 60 60
64 63 62 63 62 62 62 63 63 63 64 64 64 63 63 63 63 63 64 63 64 65 65 64 65 62 56 54 53 54 57 63 62 61 60 59 60 60 59 59 60 61
64 63 63 63 63 62 63 63 63 63 63 65 64 63 63 63 63 63 64 64 64 64 65 65 65 61 56 53 53 54 55 62 62 60 59 59 59 59 59 58 59 61
63 62 63 63 63 63 63 63 63 63 65 64 63 62 62 62 63 62 62 62 63 64 65 65 65 62 58 55 52 52 57 62 62 61 59 59 58 58 58 58 58 59
63 64 65 64 63 63 63 62 63 64 63 63 63 63 62 63 62 61 61 61 63 63 64 65 64 64 64 56 53 52 53 58 62 60 59 59 59 58 57 57 58 58

ECMWFNIL_sfc_temp_003.txt.gz
Temp
76 76 75 75 75 75 74 73 74 73 73 74 74 75 75 75 76 76 76 76 76 76 76 76 76 75 76 76 76 75 74 74 74 74 74 73 72 72 71 71 70 70
76 76 75 75 74 74 74 74 73 73 73 74 75 75 76 76 76 76 76 76 76 76 76 76 75 75 75 75 75 74 72 71 70 73 71 72 72 72 72 72 72 71
76 76 76 74 74 74 74 74 73 74 74 75 75 75 75 76 76 76 76 76 75 75 75 75 75 75 74 74 74 74 72 72 70 73 73 72 72 71 70 71 71 70
75 75 75 75 75 74 74 73 74 74 75 75 75 75 75 76 76 75 75 75 75 75 75 75 75 75 75 74 74 73 74 73 74 73 70 70 71 72 71 72 72 71
75 75 75 75 75 74 74 73 74 75 75 75 75 75 75 74 75 75 75 75 75 75 75 75 75 75 75 74 74 73 73 73 74 73 72 72 71 70 74 72 72 72
75 75 75 74 75 74 73 74 74 74 74 75 75 75 75 74 74 74 75 75 76 76 75 75 75 75 75 74 74 73 74 74 74 74 72 70 71 72 71 72 71 71
76 75 75 75 74 74 73 73 74 74 74 74 74 74 75 74 74 74 74 75 75 75 75 74 74 74 75 74 73 73 73 73 73 73 72 72 72 72 73 73 71 69
75 76 76 75 74 74 73 74 74 74 74 73 73 74 74 74 74 75 75 75 75 74 74 74 74 74 75 74 73 72 72 73 72 72 71 71 71 71 73 74 74 72
75 75 75 74 74 74 75 76 76 75 75 73 73 74 75 74 74 75 74 74 74 73 73 74 74 74 74 73 72 72 71 72 72 71 71 70 70 69 70 71 72 72
75 75 74 75 75 76 75 76 77 76 76 74 74 74 73 74 74 74 74 73 73 73 74 74 73 73 73 73 72 72 72 71 72 71 71 71 70 70 71 72 72 71
75 75 75 75 75 77 77 78 79 79 77 75 74 74 74 74 74 74 73 73 73 73 73 74 74 73 72 72 72 72 72 72 71 71 71 71 71 70 69 71 72 71
75 75 75 76 76 76 76 77 76 75 75 76 75 75 74 75 74 74 74 73 74 74 74 74 73 72 71 71 72 72 72 71 71 71 70 70 70 71 70 72 72 72
75 76 75 76 75 75 75 76 76 77 78 76 77 76 76 75 75 74 74 74 74 74 74 73 72 71 70 70 70 70 69 68 68 69 69 69 69 70 70 72 73 73
76 76 76 75 75 74 74 74 75 75 74 75 74 74 76 76 76 75 75 75 74 74 74 74 72 72 71 70 70 68 67 67 67 67 67 67 67 68 69 69 72 73
75 76 75 74 74 74 74 74 75 75 74 74 74 74 75 75 75 75 74 74 74 74 74 74 73 71 69 68 67 66 66 65 66 67 67 67 68 68 67 67 70 73
75 75 74 74 73 73 74 74 75 75 74 74 74 74 74 74 74 74 75 74 74 74 74 73 72 71 65 58 60 64 65 64 65 66 67 68 68 67 66 65 67 71
74 74 74 73 73 73 74 74 74 74 73 73 73 73 73 73 73 73 75 75 74 73 73 72 72 70 61 59 61 60 63 64 65 65 66 66 66 65 63 64 64 65
74 74 73 73 73 73 74 74 74 73 73 73 73 73 73 74 73 73 74 74 74 73 73 72 72 66 60 59 60 59 58 63 66 65 65 66 66 66 65 64 63 64
74 74 73 73 73 74 74 73 73 72 73 73 73 74 73 73 73 73 74 74 73 72 72 73 72 65 60 59 59 57 58 62 66 66 65 65 66 66 64 63 62 62
74 74 73 73 74 74 73 72 72 73 73 74 73 73 73 73 74 73 73 73 73 72 72 72 72 65 59 58 57 55 57 61 67 67 66 66 65 65 64 62 61 61
74 74 73 74 74 73 73 73 73 73 73 74 74 73 73 73 73 73 73 73 74 74 73 73 72 62 59 56 55 54 55 60 67 68 67 66 65 64 63 62 62 62
75 74 74 74 74 73 73 73 73 73 73 74 73 74 74 73 73 74 73 74 74 74 73 73 75 61 56 55 54 55 55 66 68 67 66 65 64 64 63 63 63 62
76 75 74 74 74 73 73 74 73 74 74 73 72 73 73 74 74 74 74 74 73 74 73 73 74 65 56 54 54 53 57 68 68 67 65 63 63 63 62 62 62 62
75 75 74 74 74 74 74 74 75 74 74 73 72 72 73 74 74 74 74 74 73 74 75 73 74 68 56 53 53 54 56 66 68 67 66 63 62 61 62 61 61 62
75 74 74 74 74 75 75 74 74 73 74 73 73 73 73 73 74 73 74 75 77 75 69 70 74 70 58 54 54 54 59 68 68 68 65 63 61 61 61 61 60 60
75 73 74 74 75 75 75 74 74 74 74 74 74 75 75 75 73 74 73 75 77 75 76 74 73 74 70 57 54 53 54 63 69 66 65 62 61 61 60 61 60 59

ECMWFNIL_sfc_temp_006.txt.gz
Temp
82 82 81 81 81 80 79 79 80 79 79 79 79 79 79 80 81 80 81 81 81 80 80 79 79 79 80 79 80 79 78 78 78 78 76 74 73 71 72 72 74 72
82 81 81 81 81 80 80 80 79 79 79 79 79 79 80 80 81 81 80 80 80 80 80 79 79 79 78 79 79 78 78 78 77 79 77 77 76 76 74 74 74 73
81 81 81 80 81 80 80 80 80 80 80 80 80 80 80 81 80 80 80 80 79 79 80 79 80 79 78 78 78 78 78 77 77 79 78 77 77 76 77 77 74 73
81 81 81 81 81 80 81 80 80 80 80 80 80 81 81 80 80 80 80 79 79 79 79 80 79 79 79 78 78 77 78 78 78 78 78 77 77 77 76 76 76 75
81 81 81 81 81 81 80 80 80 80 80 80 80 80 80 79 79 80 80 80 80 80 80 79 80 79 79 78 78 77 77 77 79 78 77 76 76 77 77 77 76 75
81 81 81 80 81 80 80 80 80 80 80 80 79 80 80 80 79 79 79 80 81 81 80 80 79 80 79 78 78 77 78 78 79 78 77 76 76 77 78 77 76 75
81 81 80 81 81 81 80 80 80 80 80 80 80 79 80 79 79 79 79 79 79 79 79 78 78 78 79 78 77 77 77 78 78 77 76 76 76 76 77 77 76 75
81 81 82 81 81 81 80 81 81 81 81 80 79 80 80 80 79 80 80 79 79 79 78 79 78 78 79 79 78 77 77 78 77 76 76 76 75 75 75 76 75 74
81 81 81 81 80 81 82 82 84 83 82 80 80 80 80 80 79 79 79 78 78 78 78 78 78 78 78 78 77 76 75 76 76 76 76 75 75 74 75 75 73 73
80 81 81 81 81 82 82 83 84 84 84 82 81 81 80 80 80 79 79 78 78 78 78 78 78 78 78 78 77 77 75 75 76 75 75 75 74 74 75 74 74 72
80 81 81 81 81 83 83 84 86 85 83 82 81 80 80 80 80 80 79 79 78 78 78 78 78 78 78 78 78 77 77 76 75 74 74 74 73 73 72 74 74 73
81 81 81 81 81 82 82 82 82 82 83 85 84 83 82 82 81 80 80 79 79 79 78 78 78 78 78 77 77 77 76 76 75 74 74 73 72 71 72 73 74 74
81 81 81 82 81 81 82 83 84 85 85 83 84 84 83 82 82 81 80 80 79 79 79 79 78 78 77 77 76 76 75 74 74 73 73 73 72 71 71 72 74 73
81 82 82 81 82 81 81 81 81 81 81 81 82 82 84 82 82 81 81 81 80 80 79 79 78 78 77 77 76 75 75 74 74 73 73 72 71 70 71 72 73 73
81 82 82 82 81 81 80 80 80 80 80 81 81 81 82 83 82 81 80 79 80 80 79 79 78 77 78 77 75 75 75 75 74 73 73 72 71 70 70 71 71 70
81 81 81 81 80 80 80 80 80 80 81 81 81 81 81 81 80 80 81 80 80 80 79 78 78 78 72 64 66 72 74 74 74 73 73 72 70 69 69 70 70 70
80 80 80 80 80 80 80 79 79 79 80 80 80 80 80 79 79 79 80 81 80 80 79 78 78 78 66 63 62 62 69 73 73 73 73 72 71 69 67 67 67 67
80 80 80 80 80 79 79 79 79 79 79 79 79 79 80 80 79 79 79 79 80 80 79 78 79 71 63 62 62 62 64 70 72 73 73 72 71 70 68 66 64 64
80 80 80 79 79 79 79 79 79 79 79 79 79 80 80 78 78 79 79 79 79 78 78 80 80 68 62 61 62 61 61 64 72 73 73 72 72 70 68 65 63 63
80 80 80 80 80 80 79 79 78 78 79 80 80 80 79 79 79 79 79 78 78 78 78 79 80 68 61 61 60 59 59 62 71 73 73 73 72 71 69 66 64 62
81 80 80 80 80 79 79 78 78 78 79 79 80 79 79 78 78 78 79 79 79 79 79 79 80 65 62 60 59 57 57 60 70 73 73 74 74 72 68 66 65 63
81 81 80 80 79 79 78 78 78 78 78 79 79 80 80 80 80 80 79 79 79 79 79 78 80 62 61 60 58 57 57 66 72 73 74 74 73 71 69 67 66 64
82 81 80 80 80 79 78 78 78 78 79 79 78 79 80 80 79 80 79 79 79 79 78 78 80 67 57 57 56 55 59 70 73 74 73 73 72 70 68 67 66 66
82 81 80 80 80 79 79 79 80 80 80 80 79 79 79 79 79 76 75 75 78 77 80 79 80 69 54 54 53 55 60 71 73 73 73 73 72 71 69 66 66 64
83 82 81 80 80 80 80 79 79 78 77 75 74 76 75 75 76 75 75 74 74 77 74 75 75 72 55 53 53 55 61 71 73 73 72 72 72 70 69 67 66 65
82 81 80 80 80 80 80 79 76 76 77 76 76 78 77 77 76 75 73 72 71 71 74 78 75 75 75 53 52 53 55 68 73 72 72 71 72 69 67 67 66 66

ECMWFNIL_sfc_temp_009.txt.gz
Temp
84 84 83 83 82 82 81 81 81 81 81 81 81 81 81 82 82 82 82 82 82 82 82 81 81 80 81 80 80 80 79 79 79 79 78 77 77 77 77 77 77 76
84 84 83 83 82 82 82 82 82 81 81 81 81 81 82 81 82 82 82 82 82 82 82 82 81 81 80 80 80 79 78 78 78 79 78 77 78 78 78 77 77 77
84 83 83 82 83 83 83 83 82 82 81 82 82 81 81 82 82 82 81 81 81 81 81 81 81 81 80 80 80 79 79 78 77 79 78 77 78 78 78 79 78 78
84 83 84 83 83 83 83 82 82 82 82 82 82 83 83 82 82 81 81 81 81 81 81 81 81 81 81 80 80 79 79 79 79 79 78 78 78 78 78 78 77 77
84 83 83 83 83 83 82 82 82 83 83 82 82 82 81 81 81 81 81 81 81 81 81 81 81 81 80 80 80 78 78 79 80 79 78 77 78 78 78 78 77 76
84 83 83 83 83 82 82 82 82 82 82 83 82 83 82 82 81 81 81 81 82 82 81 81 81 81 80 80 79 78 78 78 78 78 76 76 77 78 78 78 77 76
83 83 83 83 83 83 82 82 82 82 83 83 83 81 82 81 81 80 81 81 81 80 80 80 79 79 80 79 79 78 78 78 78 78 77 76 76 76 77 77 76 75
83 84 84 83 83 83 82 82 83 83 83 83 83 82 83 82 81 81 81 81 81 80 80 80 79 79 80 79 78 78 77 78 78 77 76 76 76 75 76 76 76 75
84 83 83 83 82 83 84 84 85 85 85 83 83 84 83 82 82 81 80 80 80 80 79 79 79 80 79 79 77 77 77 77 78 77 76 76 75 75 75 76 75 74
83 83 83 84 84 84 84 85 86 85 86 85 84 84 83 83 82 81 81 80 80 79 79 79 79 79 79 78 78 77 77 76 76 77 77 76 75 75 75 75 74 73
83 84 83 83 83 85 85 87 89 89 86 84 84 83 84 83 83 83 81 80 79 79 79 79 79 79 78 78 78 78 78 77 76 76 76 76 75 75 75 75 74 74
83 83 84 84 84 84 85 85 85 84 85 87 87 86 84 85 83 83 82 81 80 79 80 79 79 79 78 78 78 79 78 77 77 77 77 76 76 76 76 75 74 74
84 84 84 84 84 84 84 85 86 87 87 84 84 84 85 84 85 83 83 82 81 80 79 79 79 79 78 78 77 77 77 77 76 76 76 76 76 76 77 76 76 75
84 84 84 83 84 83 83 83 83 83 82 82 82 82 84 84 84 83 83 83 81 81 79 77 77 76 77 78 78 77 77 77 76 76 76 76 76 76 76 77 76 75
84 84 84 84 83 83 82 82 81 81 81 81 81 82 83 84 83 83 81 81 81 80 80 77 75 76 80 79 77 77 77 76 76 75 75 75 75 75 75 75 76 75
83 83 83 83 82 82 81 81 81 81 81 80 81 82 82 81 81 81 82 81 81 80 80 77 74 77 74 69 72 77 77 76 76 75 75 75 74 74 75 75 75 75
83 82 82 81 81 81 81 81 81 81 80 79 80 80 80 80 81 80 81 81 81 81 80 80 79 78 66 65 65 67 73 74 74 74 75 75 75 73 72 73 74 73
83 82 82 81 81 81 81 81 81 80 79 79 80 80 80 81 80 80 79 80 80 81 81 80 80 74 62 63 65 64 67 73 74 74 74 75 75 74 74 73 72 72
83 82 81 81 81 81 81 81 81 80 80 80 80 81 81 80 79 80 80 80 80 79 79 80 76 64 61 63 63 63 63 67 73 73 74 74 75 74 74 73 72 71
83 82 81 81 81 81 81 80 80 80 80 81 81 81 80 79 80 79 80 79 79 74 71 74 75 65 60 62 62 62 62 65 73 73 73 74 74 74 73 73 72 71
83 82 81 81 81 81 81 80 80 80 80 81 81 81 80 79 79 79 79 79 75 73 73 73 76 65 59 60 60 59 60 63 72 73 72 72 72 71 71 73 73 72
83 82 81 81 81 81 81 80 80 79 79 80 80 81 81 80 79 79 77 77 78 77 77 76 79 67 61 60 59 59 59 69 72 72 72 73 72 74 75 74 74 72
83 83 82 81 81 81 81 81 80 79 80 80 80 80 79 79 79 80 79 79 78 78 77 76 78 71 62 57 57 58 61 72 73 73 72 71 70 71 73 75 74 74
84 83 82 82 81 81 81 81 82 81 81 81 80 79 79 80 80 79 80 79 79 77 79 76 77 72 60 56 55 55 60 70 72 72 70 68 66 71 75 74 73 68
85 83 82 82 81 82 82 81 81 81 81 81 80 80 79 79 80 79 80 79 81 80 73 74 77 72 62 58 56 56 59 68 69 70 66 65 66 68 73 74 73 71
84 83 82 82 82 82 82 81 82 82 81 80 80 80 80 81 81 80 79 79 80 79 79 79 77 75 71 58 56 57 57 63 67 66 67 68 68 69 72 71 73 73

ECMWFNIL_sfc_temp_012.txt.gz
Temp
82 81 80 79 79 80 79 79 79 79 78 78 78 78 78 79 80 80 80 80 80 79 79 79 79 79 79 78 78 77 77 76 76 76 75 75 75 75 75 75 74 74
82 82 81 80 78 79 78 79 79 79 79 79 79 79 79 79 80 80 80 79 79 79 79 79 79 78 78 78 77 77 76 76 76 77 75 75 75 75 75 75 75 74
82 82 81 80 80 80 81 81 80 79 79 80 80 79 79 80 80 80 79 79 78 79 79 79 79 78 78 78 77 77 76 76 75 77 76 75 75 75 75 76 74 75
81 82 81 81 81 81 81 80 79 79 79 79 80 81 80 80 79 79 79 79 78 78 79 79 78 79 78 78 77 76 77 76 76 76 76 75 75 75 75 75 75 74
81 81 81 81 82 81 81 80 80 79 80 80 81 80 80 79 79 79 78 78 78 78 78 78 79 78 78 77 77 76 76 76 76 76 75 74 74 75 75 75 73 73
82 82 81 81 81 80 80 79 80 80 80 80 79 80 80 80 79 78 78 78 79 79 79 78 78 78 78 77 77 76 76 76 76 76 75 74 74 75 75 74 73 72
81 81 81 81 81 80 79 79 80 80 80 79 80 79 80 79 79 78 78 78 78 78 78 77 77 77 77 77 76 75 76 76 76 75 74 74 74 74 75 74 73 72
81 82 81 80 80 80 79 80 79 79 80 80 79 79 80 80 79 80 79 78 78 77 77 77 77 77 78 77 76 75 75 76 76 75 74 74 74 73 73 74 73 71
81 81 81 81 80 80 81 82 81 80 79 78 80 81 81 80 80 80 79 78 77 77 77 77 77 77 77 77 75 75 75 75 75 75 74 73 73 73 73 73 72 71
81 81 81 82 81 80 81 82 83 82 81 81 81 82 80 80 80 79 79 77 77 77 77 77 77 76 76 76 76 75 75 74 75 75 74 74 74 73 73 72 72 71
81 81 81 81 81 83 83 85 85 86 83 81 80 80 80 80 80 80 79 78 78 78 77 77 77 76 73 72 74 75 75 74 75 75 74 74 74 73 74 73 72 71
81 81 81 81 81 82 83 83 83 81 81 83 82 82 81 81 79 79 79 78 78 78 77 77 77 73 72 71 72 74 75 74 74 74 75 74 74 74 74 73 72 72
81 81 81 82 81 81 82 83 83 85 85 82 81 82 81 81 80 79 79 78 78 79 79 77 77 75 73 72 72 72 72 72 72 73 72 73 74 74 75 74 74 73
82 82 81 81 81 81 82 81 81 81 80 80 80 79 81 80 81 80 79 79 78 78 78 77 76 75 73 73 72 71 70 70 71 70 69 72 73 74 74 74 74 74
81 82 82 81 81 80 80 79 80 80 79 79 79 79 79 80 80 80 78 77 78 77 77 77 76 72 74 73 71 70 70 70 71 72 73 72 72 73 73 73 73 73
81 81 81 80 80 79 79 79 80 79 79 79 78 79 78 78 78 78 80 78 78 78 77 78 71 71 72 68 68 71 72 73 74 73 72 72 71 71 72 73 74 74
79 79 80 79 79 79 79 79 79 79 78 78 77 77 77 77 77 77 79 79 78 78 77 76 70 70 66 65 66 67 70 72 73 72 72 72 72 71 70 71 72 72
79 79 79 79 79 78 78 78 79 78 77 77 77 77 77 78 77 77 77 77 77 78 77 75 71 69 63 63 64 65 67 71 73 72 72 72 72 71 71 71 71 72
79 79 79 78 78 79 78 78 78 78 78 77 78 78 78 77 77 77 76 77 77 76 75 75 74 67 63 62 63 63 64 66 71 72 71 71 71 71 71 70 70 70
79 79 79 78 79 78 78 78 78 77 78 79 79 78 77 77 77 76 76 76 76 74 74 75 74 69 63 62 62 62 62 64 70 71 71 71 71 71 71 70 70 69
79 79 78 78 79 79 78 77 77 77 78 78 79 78 77 76 76 76 76 76 77 76 75 75 76 67 61 61 60 59 59 62 68 70 70 70 70 70 71 71 69 68
80 79 78 79 78 78 77 77 77 77 77 77 77 77 77 78 77 77 76 76 76 76 76 75 78 63 60 60 58 58 59 65 68 69 69 69 68 69 70 69 68 67
80 79 78 78 79 78 77 78 77 77 77 77 76 77 77 77 76 77 76 77 76 76 75 74 76 69 61 59 58 56 62 69 69 69 69 68 68 69 69 67 67 66
80 80 79 79 78 78 78 78 79 79 78 78 77 76 77 78 77 76 76 76 77 77 78 76 76 69 56 56 57 56 60 67 69 69 69 68 67 68 68 67 67 68
81 80 80 79 78 79 79 78 78 78 79 78 78 77 77 77 77 76 76 76 79 79 75 76 76 71 57 62 58 56 60 67 68 68 67 67 67 67 68 68 68 68
81 80 79 79 79 79 79 77 78 79 79 79 78 78 77 77 77 77 76 77 78 78 79 77 76 76 72 60 57 55 56 65 68 67 66 67 67 67 67 68 70 70

ECMWFNIL_sfc_temp_015.txt.gz
Temp
73 73 71 71 69 72 70 71 69 70 69 70 70 70 71 71 73 73 72 73 73 73 73 72 73 73 73 71 71 71 70 69 69 69 69 69 68 68 69 67 68 67
73 74 75 73 72 73 70 71 70 70 69 70 70 70 70 73 72 73 72 73 73 72 72 72 72 71 71 70 70 70 69 69 68 72 69 68 68 68 67 67 67 67
73 73 73 71 71 70 71 71 71 69 70 70 71 71 71 73 72 73 73 72 71 71 71 71 71 71 71 70 70 70 69 68 68 68 69 68 67 67 67 68 67 68
73 73 73 73 72 72 71 71 69 70 71 71 71 72 73 73 72 72 71 74 72 70 70 71 70 70 70 70 70 69 69 69 69 68 68 68 68 69 68 68 68 68
73 73 72 72 73 72 71 71 70 69 70 70 72 71 72 71 70 70 70 70 70 70 70 70 70 70 70 69 70 68 69 69 69 69 68 67 67 68 68 69 68 67
74 74 73 73 71 71 71 70 71 71 71 71 70 71 70 70 69 70 70 69 70 70 70 70 70 71 71 70 69 69 69 70 69 69 68 67 68 69 70 69 67 65
73 73 73 73 72 72 71 70 70 72 71 72 71 70 71 70 70 70 70 70 70 70 69 69 69 69 70 70 69 69 69 69 68 68 68 68 68 68 68 68 66 66
73 74 73 72 73 71 72 71 71 71 72 71 71 72 71 72 71 71 71 71 70 69 69 69 69 69 70 69 69 69 68 71 70 68 67 68 67 66 67 68 67 66
74 73 73 73 73 72 73 73 73 73 73 71 71 71 72 72 72 72 71 71 70 70 69 69 69 69 69 69 69 68 68 68 70 68 68 68 67 66 67 67 66 65
74 74 74 74 73 72 73 73 74 73 73 73 73 73 72 70 71 71 71 69 70 70 69 69 70 69 69 68 69 68 68 68 67 68 68 68 67 67 67 67 67 65
74 74 74 73 73 74 74 75 76 76 74 72 71 70 71 70 70 70 69 69 71 70 69 69 70 69 68 68 68 67 68 68 67 67 67 67 67 67 69 68 67 66
74 75 74 73 74 73 74 74 74 72 71 72 71 71 71 72 72 71 71 69 68 69 69 68 68 68 67 68 68 68 67 67 67 67 67 66 66 67 67 66 66 66
74 74 74 74 74 73 74 74 73 75 76 72 73 74 74 72 71 70 71 70 69 71 71 70 69 69 67 66 67 66 67 66 66 66 66 66 66 67 67 67 67 66
75 75 75 74 73 72 72 72 72 70 71 70 71 70 72 70 70 70 69 71 70 71 70 70 69 67 67 67 66 66 66 65 65 65 66 65 65 66 67 67 67 67
75 75 75 74 74 72 71 71 71 69 70 71 71 71 72 71 71 71 69 69 69 69 70 71 68 67 67 67 67 66 66 65 65 65 66 65 65 65 65 66 66 66
74 75 74 73 73 72 71 70 71 70 71 69 69 70 69 70 69 71 71 70 69 68 68 69 67 68 69 69 68 68 66 66 67 66 66 66 66 65 65 66 66 66
74 73 73 72 72 71 70 71 70 71 70 69 69 69 70 70 71 70 71 72 70 69 68 70 67 68 67 65 65 67 67 65 66 66 66 66 65 64 64 65 65 65
73 72 72 71 71 70 70 70 70 69 69 69 69 70 70 71 70 70 70 70 70 69 69 69 67 68 64 64 65 64 66 65 65 66 67 66 65 64 65 64 64 65
72 72 72 70 70 71 70 70 70 69 69 69 70 71 70 70 70 70 70 69 69 68 68 68 67 67 63 63 63 63 63 64 64 65 65 65 65 65 64 64 64 65
73 72 71 71 71 71 70 70 70 70 70 71 71 70 70 70 70 69 69 68 68 68 67 66 66 67 63 61 61 61 61 63 63 63 64 65 65 65 65 64 64 64
72 72 72 72 71 71 70 70 70 70 70 71 71 70 70 69 69 69 69 69 68 68 66 68 70 66 63 61 59 59 59 62 61 63 64 64 65 65 64 64 64 65
73 72 72 71 70 69 70 70 70 69 70 70 71 71 71 70 69 69 68 68 67 67 67 67 70 66 63 60 59 59 60 62 61 62 62 63 64 64 64 63 64 63
73 72 71 70 70 70 69 70 69 69 70 71 70 70 70 70 70 70 69 68 68 68 67 67 67 60 56 57 57 57 59 62 62 63 63 63 63 64 63 64 64 63
73 72 71 71 70 70 71 70 71 71 71 72 71 70 70 70 70 67 65 65 65 65 66 66 65 60 56 55 55 56 60 61 61 62 62 63 63 63 63 63 64 68
74 73 72 72 71 72 72 71 72 72 72 72 71 71 70 69 67 63 64 64 65 66 67 66 64 62 54 54 54 54 57 60 61 60 61 62 62 62 63 63 63 65
74 73 72 72 72 72 72 72 72 72 72 71 69 69 68 66 64 64 63 63 65 64 64 63 64 64 62 55 54 54 56 60 61 60 61 62 62 62 62 62 62 62

ECMWFNIL_sfc_temp_018.txt.gz
Temp
70 70 70 69 68 69 68 68 67 68 67 67 66 67 67 69 69 69 69 68 69 68 68 68 69 69 72 69 68 68 68 67 67 66 67 67 65 65 66 65 64 64
70 71 73 70 71 71 68 69 68 68 67 67 68 68 68 68 69 69 68 69 70 69 68 69 69 69 68 69 68 67 67 67 67 69 67 66 66 65 65 65 65 64
70 71 71 70 70 69 69 69 68 68 67 68 68 68 69 70 69 68 69 68 68 68 68 68 68 69 69 68 68 68 68 66 66 66 67 66 66 66 66 66 64 64
70 71 71 71 70 70 68 69 67 68 67 68 68 69 70 71 69 69 67 72 68 67 68 67 68 68 67 68 67 67 67 67 67 66 66 66 66 66 66 65 66 65
70 70 70 70 70 70 69 69 68 68 68 68 68 67 70 69 69 67 68 68 67 67 67 67 67 67 67 67 67 67 67 67 67 66 66 66 66 67 67 67 65 65
70 70 70 70 70 69 68 68 69 68 68 67 67 69 68 69 68 69 68 68 68 68 68 67 66 67 67 67 66 67 68 68 67 66 66 66 67 67 68 67 65 65
70 70 70 70 70 69 69 69 69 70 68 69 67 67 67 67 68 68 68 68 68 68 68 67 67 67 67 67 66 67 67 67 67 66 66 66 66 66 66 66 66 66
71 70 70 70 70 69 70 69 69 69 69 67 68 69 68 69 68 69 68 68 68 68 68 67 67 67 67 66 67 66 66 68 68 66 66 66 65 65 64 66 66 65
71 70 70 70 70 69 70 70 70 69 69 69 69 69 69 69 69 69 68 68 67 68 67 67 67 67 67 67 66 66 66 66 68 67 66 66 65 65 65 65 64 65
70 70 70 70 70 69 70 71 71 70 70 69 70 69 69 69 68 68 68 67 67 68 67 67 67 66 67 66 67 67 66 67 66 66 66 66 66 65 65 65 64 64
70 70 70 70 70 70 71 72 72 73 71 70 69 69 69 68 68 68 67 67 68 67 67 66 67 66 66 66 67 67 67 66 66 65 65 65 65 65 66 65 64 64
71 70 71 71 71 71 72 73 72 71 70 71 70 69 67 67 67 66 68 66 66 66 66 66 65 65 66 67 67 67 66 66 66 66 65 65 65 65 65 65 64 64
71 71 71 72 71 71 72 72 72 72 72 71 70 70 68 67 66 66 67 66 65 65 66 66 65 65 65 66 66 66 65 65 65 65 65 65 65 65 65 64 64 64
73 72 72 71 71 71 70 71 72 71 70 70 70 68 70 69 68 67 65 66 65 65 66 65 65 64 64 65 65 65 65 65 64 64 64 64 64 64 64 64 64 64
72 72 72 72 72 71 71 71 71 70 69 68 69 69 69 67 67 67 66 65 64 65 65 66 67 67 66 67 66 65 65 65 64 64 63 63 63 63 64 63 63 63
71 72 72 72 71 71 71 71 71 70 70 68 68 68 67 67 66 66 66 67 66 66 65 66 67 67 69 69 68 67 65 65 65 64 63 63 63 63 63 63 63 63
71 72 72 70 71 71 70 70 70 70 69 68 68 67 67 66 67 66 66 67 66 65 65 67 67 67 67 65 65 67 67 64 64 64 63 63 64 63 63 64 64 63
72 71 70 70 69 70 71 70 69 68 68 68 67 66 66 66 66 66 66 66 67 66 65 67 67 68 64 64 65 65 66 66 64 63 64 63 63 63 63 63 63 63
71 70 70 69 69 71 71 70 69 68 68 67 67 67 66 65 66 66 66 66 66 66 67 68 68 67 63 63 63 63 64 64 63 63 63 63 63 63 63 63 63 63
70 70 69 70 71 71 70 69 68 68 68 67 67 66 65 65 65 66 66 65 65 65 66 67 67 66 63 62 62 62 62 63 62 62 62 62 62 62 63 63 63 63
69 69 70 70 71 70 69 68 68 67 66 66 67 66 66 66 67 66 65 64 65 65 65 67 68 63 61 60 58 58 59 62 60 61 61 61 61 62 62 62 62 63
69 69 69 70 70 68 68 68 67 67 67 66 67 66 66 66 66 65 63 63 64 63 64 64 65 59 60 59 59 58 59 62 60 59 59 60 60 61 61 62 62 62
70 69 69 70 69 68 68 68 67 67 66 66 66 66 67 66 65 63 62 63 63 64 63 62 63 60 57 59 59 57 59 60 59 60 60 60 61 61 61 62 61 61
70 70 70 70 69 69 69 68 67 67 67 69 68 68 68 66 63 62 62 63 64 64 64 62 62 61 57 56 56 57 59 60 59 59 59 60 60 61 61 60 61 66
71 70 70 70 70 70 69 67 68 68 68 68 67 66 65 63 63 62 62 62 63 64 67 65 62 61 57 54 54 54 57 58 58 58 59 59 60 60 60 60 60 62
71 71 70 71 70 69 67 67 68 68 66 65 63 63 63 62 63 63 62 62 62 63 63 63 62 62 62 55 53 52 54 58 58 57 58 59 58 59 60 58 59 59

ECMWFNIL_sfc_temp_021.txt.gz
Temp
69 69 68 67 66 68 66 66 65 67 66 66 66 66 66 68 68 67 67 67 67 67 67 66 67 67 69 67 66 66 66 66 66 64 65 65 64 64 65 64 63 63
69 69 70 68 68 69 67 67 66 67 66 66 67 66 66 67 67 67 66 67 68 67 66 66 66 67 66 66 66 65 65 65 66 67 65 64 65 64 64 64 64 63
68 68 69 67 68 67 67 67 67 66 66 67 66 66 68 67 67 67 66 66 67 67 66 66 66 66 67 66 66 66 66 65 65 65 66 65 65 64 65 64 63 63
68 69 69 68 68 68 67 67 66 66 66 67 66 68 68 69 67 67 66 70 66 66 66 65 66 66 66 66 66 65 66 66 66 65 65 66 65 65 65 64 65 64
68 68 68 68 68 68 67 67 67 66 66 67 67 66 68 68 67 66 66 67 66 66 65 66 66 66 66 65 65 65 65 65 65 64 64 64 65 65 66 65 64 64
68 69 68 69 68 68 67 67 67 67 67 66 67 67 67 67 67 67 67 66 66 66 66 66 66 66 65 65 64 65 66 66 66 64 64 64 65 65 66 65 64 64
68 68 68 69 68 68 68 67 67 68 67 68 66 66 66 66 66 67 67 67 67 67 66 66 66 66 65 65 64 65 65 65 65 64 64 65 65 65 65 65 64 64
69 69 69 68 69 68 69 68 67 68 68 66 66 67 66 67 66 67 67 67 66 66 66 66 66 66 66 65 65 65 65 66 66 65 64 65 64 64 64 64 65 64
69 69 69 68 69 68 69 68 68 68 68 67 67 67 66 67 67 66 67 66 66 66 66 66 66 66 66 65 65 65 65 66 66 65 65 65 64 64 64 64 63 63
69 69 69 69 69 69 69 69 69 69 69 68 68 68 67 67 66 66 66 65 66 66 66 66 65 65 65 65 65 65 65 65 65 65 65 65 65 65 64 64 63 63
70 69 69 69 69 69 70 70 71 71 69 70 68 67 68 67 66 66 66 66 66 66 66 65 65 65 64 64 65 65 65 66 65 64 64 65 65 65 66 64 64 63
70 70 70 70 70 70 70 71 71 70 69 70 69 69 68 67 66 66 67 66 66 66 65 65 65 64 64 64 65 65 65 65 65 64 64 64 64 64 64 64 64 63
70 70 71 71 70 70 70 70 70 71 71 70 70 70 69 67 66 65 66 66 66 65 65 65 64 64 63 63 64 64 65 64 64 64 64 64 64 64 64 64 63 63
69 70 71 71 70 70 70 70 70 70 70 70 69 69 69 68 67 66 66 66 65 64 64 64 64 63 62 63 64 64 64 63 63 64 63 63 63 63 64 63 63 63
72 71 71 70 70 69 69 70 70 70 70 69 69 69 69 68 67 67 66 64 64 64 64 64 65 65 65 65 64 64 63 64 63 64 63 63 62 62 63 62 62 63
71 71 70 69 69 69 69 70 70 70 70 70 69 69 68 68 67 66 66 66 66 64 64 65 65 66 68 68 68 67 64 64 64 63 63 62 62 62 62 62 62 62
70 68 69 69 69 70 69 69 69 69 70 69 68 67 67 67 67 66 66 66 66 67 66 66 66 67 67 65 65 67 67 63 63 63 62 62 62 62 62 62 62 62
68 68 68 69 69 69 69 68 68 69 69 68 67 66 66 66 66 66 66 66 66 66 66 66 66 67 64 64 64 64 66 66 64 63 63 62 62 61 62 62 62 62
69 68 68 68 68 68 69 70 70 69 68 67 67 67 66 65 66 66 66 65 65 65 66 66 65 66 63 63 63 63 64 64 64 63 63 62 62 62 61 61 61 62
70 69 69 69 68 68 69 69 69 69 68 67 67 66 66 65 65 66 65 64 65 65 66 65 64 64 62 61 61 61 61 63 62 62 62 62 62 62 61 61 61 61
69 69 69 69 69 69 69 69 69 69 67 66 66 66 65 66 66 66 65 65 65 65 64 65 65 64 61 61 59 58 59 62 60 62 61 61 61 60 60 61 60 61
68 68 69 69 69 68 68 68 68 68 67 66 66 65 66 66 65 66 65 65 64 64 63 64 65 62 60 59 58 58 59 61 59 59 59 59 59 59 59 59 60 60
68 68 68 69 69 68 67 67 67 66 65 66 66 65 65 65 65 65 65 64 64 63 62 63 63 61 57 57 57 58 59 59 57 58 59 58 59 59 59 60 60 60
70 69 69 68 68 68 68 68 67 66 66 67 67 66 65 66 65 64 63 63 63 63 63 63 63 61 58 55 55 57 59 58 58 58 58 58 58 58 58 59 59 65
71 70 70 70 68 68 68 67 67 66 66 66 67 67 67 65 65 63 62 61 62 63 66 65 62 61 58 56 55 55 57 57 57 57 57 57 57 58 58 58 58 60
71 71 71 69 68 68 67 66 66 66 66 66 66 65 65 62 62 62 61 61 62 63 63 62 61 61 61 57 54 52 54 57 57 56 57 57 58 58 58 57 57 57

ECMWFNIL_sfc_temp_024.txt.gz
Temp
72 71 70 69 69 69 68 67 67 68 68 68 68 68 69 70 70 70 71 70 71 70 70 69 70 70 71 70 70 69 69 69 69 68 68 68 68 67 67 67 66 65
71 71 71 70 69 70 68 69 68 68 68 68 68 68 69 70 70 71 70 69 70 71 70 70 70 70 70 70 69 68 68 68 68 69 68 67 68 67 67 68 67 66
70 70 70 69 69 69 68 68 68 68 68 68 68 68 69 70 70 70 69 70 70 70 70 69 69 70 69 69 69 69 69 68 68 68 69 68 68 67 68 68 67 67
70 71 71 70 69 69 68 68 67 68 68 68 68 69 70 70 70 70 69 71 69 69 70 69 69 69 69 69 69 68 68 68 69 69 68 68 68 68 68 68 68 68
70 70 70 70 69 69 68 68 68 68 68 69 69 68 70 70 69 69 69 69 69 69 69 69 69 69 68 68 68 68 68 68 68 68 67 68 68 68 68 68 67 68
70 70 69 69 69 69 68 69 68 68 68 68 69 69 69 69 69 69 69 69 69 69 69 69 69 69 68 68 67 68 68 68 68 67 67 67 68 68 68 68 68 67
70 69 69 69 69 69 69 68 69 69 69 70 69 68 69 68 68 69 69 69 69 69 69 69 68 69 68 68 67 68 67 68 68 67 67 67 67 68 68 67 67 67
70 70 70 69 69 69 69 68 68 69 69 69 69 69 68 69 69 69 69 69 69 69 69 69 68 68 69 68 68 67 68 68 68 67 67 67 67 67 67 67 67 67
70 69 70 69 69 69 70 69 69 69 69 69 69 69 68 69 69 69 69 69 69 69 68 68 68 68 68 68 67 68 68 68 68 68 68 68 67 67 68 68 67 67
70 70 70 70 70 69 69 70 70 69 70 69 69 69 68 69 69 69 69 68 68 68 68 68 68 68 68 67 68 68 68 68 68 68 68 68 68 68 68 68 67 67
70 70 69 69 70 70 70 71 71 71 70 70 69 69 69 68 69 69 68 68 68 68 68 68 68 68 67 67 67 67 68 68 68 68 68 68 68 68 68 68 68 67
70 70 70 70 70 70 70 71 71 70 69 70 69 69 68 69 68 68 68 68 68 68 68 68 68 68 67 68 68 67 67 67 67 67 67 68 68 68 68 68 68 68
70 69 67 68 68 68 69 70 71 71 71 70 70 70 70 69 68 67 68 68 68 68 68 68 68 67 66 67 67 67 66 67 67 67 67 67 67 68 68 68 68 67
67 68 68 68 68 70 70 70 70 70 69 70 70 69 70 70 69 68 68 68 68 68 68 68 67 66 66 66 66 66 66 66 66 67 67 67 67 67 67 67 67 67
68 69 69 70 72 70 69 69 69 69 69 69 69 70 70 70 70 69 68 67 67 67 67 67 66 66 66 66 66 66 66 66 66 66 67 67 67 67 66 66 66 67
69 70 69 69 70 69 69 70 69 69 69 69 68 68 69 69 69 68 68 68 68 67 66 67 67 67 68 67 67 69 67 67 66 66 66 66 66 66 66 66 66 66
69 69 69 69 69 68 69 69 69 69 68 68 68 68 68 68 68 67 68 69 68 69 68 67 68 68 66 64 65 67 69 67 67 67 67 66 66 66 66 66 66 66
69 69 68 67 67 68 68 69 68 68 68 68 69 68 68 68 67 67 68 68 68 69 69 69 68 67 64 64 64 64 66 68 68 67 67 66 66 66 66 66 66 66
69 68 67 67 68 68 69 68 68 68 68 69 69 69 67 66 67 67 67 68 68 68 68 69 68 66 63 63 63 63 63 65 68 67 67 67 66 66 65 65 65 65
67 67 66 66 66 67 67 67 68 68 68 69 68 68 67 67 67 67 67 67 67 67 68 69 68 66 62 62 61 61 61 63 67 66 67 67 66 66 66 65 65 64
66 65 65 66 67 67 67 67 67 68 67 68 68 68 67 67 67 67 67 67 67 67 67 68 69 64 61 60 59 58 59 62 65 65 65 65 65 65 65 65 64 64
66 65 65 67 67 67 67 67 68 68 68 69 68 67 68 68 67 68 68 67 67 67 67 68 70 63 60 59 58 58 59 64 64 64 64 64 64 64 64 63 63 63
66 65 65 66 67 67 67 68 67 67 68 67 66 66 66 66 67 67 67 67 67 67 67 67 68 64 59 57 57 57 60 64 63 63 63 62 63 63 63 63 63 63
66 66 65 66 67 67 67 68 68 68 67 67 67 66 66 67 67 66 66 66 67 67 67 66 67 64 58 55 55 56 61 64 63 63 62 62 62 62 62 62 62 64
66 66 66 67 67 67 68 69 69 67 67 66 67 67 67 67 67 66 65 65 66 67 67 67 66 64 57 55 54 55 59 63 63 62 62 62 61 61 61 61 61 62
68 68 68 68 68 69 69 70 69 67 67 67 66 66 66 67 66 66 65 64 65 66 66 67 65 65 63 55 54 52 54 62 62 61 61 62 61 61 61 61 61 61

ECMWFNIL_sfc_temp_027.txt.gz
Temp
82 81 81 80 80 81 79 79 79 79 79 80 79 79 79 80 81 80 80 80 80 80 80 80 80 80 80 79 79 79 78 78 78 78 78 77 77 77 77 76 76 76
81 81 81 81 80 80 79 80 78 79 78 79 79 80 80 80 80 80 80 80 80 80 80 80 80 79 79 79 79 78 78 78 77 79 77 77 77 77 77 77 77 77
81 80 80 80 80 79 80 79 79 79 79 79 79 79 79 80 80 80 80 80 80 80 80 80 80 79 79 79 79 78 78 77 77 79 77 77 78 77 77 79 78 77
80 80 80 80 80 79 79 78 78 78 79 78 79 80 80 79 80 79 79 79 80 79 80 80 79 80 79 79 78 78 78 78 78 78 77 77 77 77 77 78 78 77
81 80 80 80 80 80 79 78 78 78 79 79 79 79 78 78 79 79 79 79 79 79 79 79 79 79 79 78 78 77 78 78 79 78 77 77 78 77 78 78 77 77
81 80 79 79 79 78 78 78 78 79 79 79 78 79 79 79 79 79 79 79 80 80 79 79 79 79 79 78 78 77 78 78 79 78 77 77 78 79 78 77 76 76
79 79 79 79 79 78 78 78 78 78 79 80 79 78 79 78 78 78 78 78 78 78 78 78 78 78 78 78 77 77 77 77 78 77 76 77 77 77 77 76 75 75
78 78 78 78 78 78 78 78 78 77 77 78 77 77 78 78 77 77 77 77 77 77 77 78 77 77 79 78 77 77 77 78 78 77 76 76 76 75 75 76 76 75
77 77 78 77 77 77 78 78 78 76 76 76 77 77 76 76 76 76 75 76 76 77 77 77 77 78 78 78 77 77 77 78 78 77 76 75 75 75 76 77 76 76
77 77 77 77 77 78 79 80 80 78 76 75 75 76 74 74 75 75 75 74 75 76 76 76 76 77 78 78 77 77 77 77 77 76 75 75 75 76 77 77 77 76
77 76 76 76 78 80 81 81 81 80 77 76 75 74 74 73 72 74 74 74 74 75 75 75 76 76 77 77 77 77 77 76 76 75 75 75 75 76 76 76 76 76
76 77 77 77 78 80 80 80 79 77 77 77 76 74 74 74 72 73 74 74 75 75 75 75 75 75 76 77 78 77 75 75 74 75 75 76 76 77 77 77 77 77
76 76 77 77 77 77 78 77 78 78 76 74 74 76 76 75 73 73 74 75 75 74 73 72 73 74 74 75 75 75 74 74 74 75 75 76 76 78 78 78 78 77
76 76 76 75 76 77 76 74 74 74 73 73 73 74 76 75 75 74 74 75 74 74 73 72 72 73 73 73 74 74 74 74 74 75 76 76 76 77 78 78 78 78
76 77 76 75 75 74 73 73 74 72 72 72 72 73 73 74 75 75 73 73 73 72 72 71 71 72 73 73 73 73 74 74 75 75 76 76 76 77 77 77 77 78
76 77 76 75 75 75 74 74 73 71 70 70 70 70 72 73 73 73 75 74 74 73 73 73 72 73 71 67 69 74 75 75 75 75 75 75 75 76 77 76 77 77
76 75 75 74 76 74 72 71 69 69 69 69 69 70 71 72 72 72 72 72 71 71 72 73 73 73 67 64 65 67 74 76 75 75 75 75 75 74 75 76 77 77
76 75 74 74 74 71 69 69 69 69 69 69 70 70 71 72 71 70 70 70 71 72 73 74 75 70 65 64 64 64 68 75 77 76 76 75 76 75 76 76 76 77
75 75 74 73 72 71 70 69 70 70 70 70 71 72 72 70 70 70 71 71 72 73 74 76 76 69 64 63 63 63 63 69 76 77 76 76 76 75 75 75 75 75
75 74 73 71 71 71 71 71 71 70 70 71 71 71 72 72 72 71 71 71 72 73 74 76 76 70 64 62 62 62 62 65 75 76 76 76 75 75 75 75 75 74
74 73 72 72 72 72 72 72 71 70 70 70 71 72 72 71 72 72 72 72 73 74 74 75 77 67 63 62 60 60 60 65 74 75 74 75 75 75 75 75 74 74
74 72 72 72 72 72 71 71 71 71 70 71 72 74 74 73 73 74 74 73 74 75 75 75 78 66 63 61 59 59 60 70 74 74 73 73 73 73 73 73 73 73
74 73 72 72 72 71 71 71 70 71 72 73 73 74 75 75 74 75 74 75 74 74 74 75 77 69 61 59 58 58 62 73 73 73 73 73 72 73 73 73 72 72
74 74 72 71 70 70 71 71 71 73 74 74 74 75 75 76 76 75 75 75 75 75 78 76 77 71 60 56 56 57 64 73 72 72 72 71 71 72 72 71 71 66
74 73 73 72 69 70 71 71 72 73 75 75 76 76 76 76 76 75 75 75 77 77 71 75 78 71 56 57 55 56 62 71 71 71 70 70 71 71 71 71 70 68
74 73 73 72 70 71 72 72 74 75 75 75 75 76 76 77 76 76 75 75 77 76 76 76 75 76 67 54 54 54 58 70 71 69 69 70 72 72 71 71 71 71

ECMWFNIL_sfc_temp_030.txt.gz
Temp
88 88 87 87 87 88 87 86 87 86 85 86 85 85 85 85 86 86 86 85 85 84 84 84 84 84 84 84 83 83 83 82 82 83 82 82 82 81 81 81 81 80
87 88 88 88 88 88 87 88 86 86 85 85 86 86 86 86 86 86 85 85 85 84 84 84 84 84 84 84 83 82 82 82 81 83 81 81 81 81 81 81 81 81
88 87 87 87 88 88 88 88 87 87 87 87 86 86 86 86 86 85 85 85 84 85 84 84 84 83 83 83 83 83 82 81 81 83 82 81 82 81 82 83 82 82
87 88 88 88 88 88 87 87 86 86 87 87 87 87 87 87 86 85 84 84 84 84 84 84 84 84 83 83 82 82 82 82 82 82 82 82 81 82 82 82 82 82
87 87 88 88 88 88 87 86 87 87 87 87 87 86 85 85 85 85 84 84 83 84 84 83 83 83 83 83 83 81 82 82 82 82 81 81 81 81 82 82 81 81
88 88 87 87 88 87 86 86 86 87 87 87 86 87 85 85 84 85 84 84 84 83 82 82 83 83 83 83 82 82 82 83 83 82 81 80 82 83 83 82 81 80
87 87 87 88 87 87 86 86 86 86 87 87 85 84 84 84 83 83 84 83 83 82 81 81 81 82 82 82 82 81 81 81 82 82 80 81 81 81 82 81 80 79
88 88 88 87 87 86 85 86 86 85 86 86 85 84 84 84 82 83 83 82 82 81 80 80 81 80 82 82 81 80 81 82 82 81 80 80 80 80 80 81 80 78
88 88 87 86 86 86 88 88 87 86 85 84 85 85 83 83 83 83 81 81 79 78 78 79 80 81 81 82 81 80 80 81 82 82 81 80 80 80 80 80 79 79
87 87 87 87 87 87 87 88 88 86 85 85 85 86 83 82 82 82 80 79 78 77 77 77 78 80 80 81 80 80 80 80 81 81 81 81 80 79 80 80 80 79
87 88 87 86 86 87 87 89 90 89 87 86 86 86 84 82 80 80 79 78 78 78 77 77 78 79 80 81 82 82 82 82 81 81 80 79 79 79 79 80 80 80
87 87 87 86 85 86 87 89 90 88 87 87 86 86 84 84 81 81 79 78 78 78 78 78 78 79 80 80 81 82 82 81 80 79 79 80 80 81 81 81 81 81
87 86 86 87 85 85 87 88 90 89 88 87 87 86 85 84 83 80 79 78 78 79 78 78 78 79 80 79 80 80 79 78 78 79 79 80 81 82 83 83 83 82
87 86 85 86 85 85 85 87 88 87 86 86 86 85 85 83 81 79 79 78 78 79 79 79 79 78 79 79 79 78 78 78 78 79 80 81 82 82 83 84 83 83
86 85 85 85 84 84 84 85 86 86 85 84 84 85 84 83 82 81 78 77 78 79 79 80 79 78 78 78 77 77 78 79 80 80 81 81 82 83 83 82 82 83
86 84 83 83 82 83 83 84 84 83 83 82 82 83 83 82 81 81 81 78 77 78 79 79 78 77 74 70 72 78 79 80 81 81 81 81 81 81 82 82 82 83
84 83 82 81 81 82 82 82 82 82 82 80 79 79 81 80 81 81 82 81 79 78 77 77 76 76 69 66 66 67 74 78 79 80 81 81 81 79 79 80 82 81
83 82 81 81 81 81 82 81 81 81 80 80 79 79 79 81 80 80 80 81 80 80 79 78 76 71 65 65 65 65 67 76 80 81 81 81 81 80 80 81 81 82
83 81 80 80 81 81 82 81 81 80 80 80 79 80 80 79 79 79 79 79 79 78 77 77 77 68 64 64 64 64 64 69 79 81 81 81 81 81 81 80 80 80
82 81 80 80 80 80 80 80 80 79 80 81 80 79 79 79 79 78 78 78 77 76 76 78 79 69 63 63 63 62 63 66 78 80 81 81 81 81 81 81 80 79
82 80 80 79 79 79 79 79 79 79 79 80 80 78 78 77 76 76 77 76 76 77 78 80 81 66 62 62 61 61 62 66 77 79 80 80 81 81 80 81 80 78
82 80 80 80 79 79 78 78 79 79 78 78 79 79 77 73 74 77 76 75 76 79 80 79 84 65 62 61 61 60 61 72 76 77 78 79 80 81 80 79 76 75
81 80 79 79 79 78 78 78 78 77 77 76 75 76 75 75 76 78 77 77 78 79 79 79 83 69 61 61 60 59 63 75 76 78 78 78 79 79 79 78 77 76
81 80 79 79 78 78 78 79 80 79 76 73 73 73 73 75 76 78 78 79 80 81 83 81 83 73 60 60 59 58 66 76 77 77 77 77 78 78 75 74 76 75
82 81 80 79 78 78 79 79 79 77 75 73 74 74 74 74 78 78 79 80 82 83 78 81 84 77 59 59 57 57 65 77 78 78 77 77 77 75 75 76 77 74
82 80 80 79 79 79 79 80 79 77 75 74 73 74 75 76 79 80 79 80 83 83 83 82 82 82 71 56 56 55 60 75 78 76 76 76 76 75 77 77 77 77

ECMWFNIL_sfc_temp_033.txt.gz
Temp
90 89 89 88 89 89 89 88 89 88 88 89 88 87 87 87 88 88 88 87 86 86 85 85 85 85 86 85 84 84 84 84 84 84 83 83 83 84 83 83 83 82
90 90 89 89 89 89 89 90 88 88 88 88 88 89 88 88 88 88 87 86 86 86 85 85 85 84 85 85 84 83 82 83 83 85 83 83 83 83 83 83 83 83
90 90 90 89 89 89 91 90 89 88 89 89 89 89 89 89 87 87 87 86 85 86 85 85 85 84 85 85 84 83 81 82 82 84 83 83 83 82 83 85 84 84
90 90 90 90 91 90 90 89 89 88 89 88 88 89 90 89 87 87 86 86 85 85 85 85 85 85 85 84 84 82 82 82 84 83 83 82 82 83 83 84 84 84
90 90 91 91 91 91 90 89 90 89 89 89 89 88 88 87 86 87 86 85 85 85 85 84 84 84 84 83 83 81 82 82 83 82 81 81 82 82 83 83 82 82
90 90 90 90 90 90 90 89 89 90 89 90 88 89 88 87 86 86 86 85 86 85 84 83 82 83 83 82 81 80 80 81 83 82 81 81 82 83 84 83 82 82
90 90 90 91 91 91 90 89 89 89 90 90 89 88 88 87 86 86 85 85 85 84 83 81 81 81 81 80 79 78 78 80 82 82 81 81 81 82 83 83 81 81
91 91 91 91 90 90 89 89 89 89 89 89 89 88 88 87 86 86 86 85 86 84 83 82 80 81 82 82 80 79 78 80 81 81 80 79 79 80 81 82 81 79
91 91 91 90 90 90 92 92 91 90 90 89 89 89 87 87 86 86 84 84 84 83 82 82 82 82 82 81 80 79 78 80 82 81 79 79 80 80 81 81 79 79
90 91 91 92 92 91 91 93 93 91 90 89 89 90 87 86 86 85 84 83 83 82 81 81 81 80 80 81 80 80 79 79 80 80 80 80 80 80 81 81 81 80
91 92 91 91 91 93 93 94 95 94 91 90 90 89 87 87 85 85 83 83 82 81 81 80 80 80 79 79 80 81 80 80 80 80 80 80 80 80 81 81 81 81
91 92 91 91 91 93 93 94 95 93 92 91 90 90 88 88 85 85 83 81 81 81 81 80 80 79 79 79 80 80 79 80 80 81 81 81 81 81 81 81 80 81
91 91 91 91 90 91 92 94 95 95 94 92 91 91 90 88 87 85 83 82 81 81 81 81 80 80 79 79 78 78 79 79 80 81 81 81 81 81 82 82 83 82
91 91 91 90 90 90 91 92 92 92 91 91 91 90 91 89 87 85 84 83 81 81 81 81 80 80 80 78 78 78 79 80 80 79 80 80 81 81 82 83 84 84
90 91 90 90 90 89 89 90 90 90 90 90 89 90 90 90 88 86 83 80 80 80 80 81 81 80 80 79 78 78 80 80 78 78 78 78 79 80 81 83 84 84
90 90 89 89 89 88 87 88 89 89 90 89 89 89 89 87 86 85 84 80 78 79 80 81 81 81 76 72 74 78 79 80 79 77 78 78 78 79 81 83 84 85
89 89 88 88 87 88 87 87 87 88 88 87 87 87 87 86 85 84 84 82 81 79 78 81 81 80 69 67 68 72 78 79 78 77 77 76 77 78 79 81 83 84
89 88 88 87 87 86 86 86 87 86 86 85 85 86 86 87 85 82 82 82 81 80 81 81 81 73 66 66 67 68 73 79 80 80 79 78 78 79 81 82 82 83
88 88 87 86 85 86 86 85 85 85 85 84 84 85 86 83 81 81 81 81 82 81 81 81 82 68 65 65 66 65 67 74 81 81 80 80 80 80 80 81 81 81
88 88 87 86 85 85 85 84 84 83 84 84 82 82 82 81 82 80 81 81 81 81 80 81 81 66 64 63 64 63 64 68 80 81 80 81 81 82 82 81 81 80
88 87 86 86 84 84 83 83 83 82 82 82 82 81 80 80 81 80 81 81 82 81 81 81 80 63 62 61 61 61 62 66 79 80 81 80 81 82 82 82 82 81
87 86 85 84 84 83 83 82 83 82 81 82 81 81 81 81 81 82 81 81 81 81 82 79 80 60 61 60 60 61 61 73 78 79 80 80 80 81 82 81 81 81
88 87 85 84 84 83 82 82 82 81 81 82 81 81 80 80 82 83 80 81 80 79 79 77 78 64 60 59 60 60 64 77 79 79 79 79 80 81 81 81 81 80
87 86 85 84 84 83 82 82 83 82 82 82 80 80 80 82 83 82 80 80 80 78 80 77 80 67 59 59 59 58 67 78 79 78 79 79 79 80 81 80 80 78
88 86 85 84 83 83 83 82 82 81 82 80 80 80 81 81 81 80 79 79 80 80 73 78 81 70 56 59 59 57 68 78 79 79 78 78 79 79 80 79 78 77
88 86 84 84 83 83 83 83 83 82 80 79 79 79 78 78 78 77 75 76 80 75 74 79 80 78 66 59 58 56 61 77 79 78 77 77 79 79 79 77 76 77

ECMWFNIL_sfc_temp_036.txt.gz
Temp
86 86 85 85 85 86 85 85 85 85 84 84 83 83 83 83 85 84 83 83 82 82 82 81 82 81 82 81 80 81 80 79 80 79 80 80 78 79 80 80 80 77
86 86 85 86 85 85 85 86 85 84 84 84 84 83 84 84 85 84 83 83 82 82 82 82 81 81 81 80 79 79 79 79 79 81 79 79 79 80 80 80 80 80
87 86 86 86 86 86 88 87 86 85 85 86 85 84 84 85 84 84 83 83 82 82 81 81 81 80 81 80 79 79 79 78 78 80 79 78 79 78 79 81 79 79
86 87 87 87 87 87 87 86 86 85 86 85 85 86 86 86 84 84 83 83 81 81 81 81 81 81 80 80 79 78 79 78 79 80 78 79 79 79 78 78 79 80
87 87 87 88 87 87 87 86 87 86 86 86 87 85 84 83 83 83 82 82 81 81 81 81 81 80 80 79 80 78 79 78 79 79 78 77 78 77 77 78 78 78
87 87 87 87 87 86 86 87 87 87 87 87 85 86 85 84 83 83 83 82 83 83 82 81 81 81 80 80 79 79 79 78 79 79 78 77 78 78 78 78 77 77
87 87 87 88 88 88 87 86 86 86 87 87 86 85 85 84 83 82 82 82 82 81 81 80 79 80 79 79 78 77 78 77 77 77 76 77 77 77 79 78 77 77
88 88 88 88 88 87 87 87 87 86 86 86 85 85 85 85 83 84 82 82 82 80 80 80 79 79 81 79 78 77 77 78 77 77 76 76 76 76 77 78 77 76
88 88 88 88 88 88 89 89 89 87 87 86 86 86 85 85 84 84 81 81 80 80 79 79 79 79 80 79 78 77 76 77 77 77 77 77 76 76 77 77 77 76
88 88 89 89 89 89 89 90 90 89 88 87 87 87 85 84 84 83 82 80 80 79 79 79 79 79 79 78 77 77 76 76 77 77 77 77 77 77 77 77 77 76
89 89 89 88 89 90 90 91 91 90 89 88 88 88 86 84 83 83 81 80 80 80 79 78 79 79 78 78 78 77 77 77 77 77 77 77 77 77 78 77 77 77
88 89 89 89 89 90 91 91 92 90 89 89 89 88 86 86 83 83 82 80 80 80 79 79 78 78 78 78 78 78 77 78 77 77 78 77 78 78 78 78 77 77
88 88 89 89 88 89 90 91 92 92 91 90 89 89 88 87 85 83 82 81 80 80 79 78 78 78 77 77 77 77 77 77 78 77 77 77 78 79 79 79 79 78
88 89 88 88 89 88 89 90 91 91 89 89 89 88 89 88 86 83 82 82 81 80 79 78 78 78 77 77 76 76 77 77 77 77 77 78 78 78 79 79 79 79
88 89 88 88 89 88 88 88 89 89 89 88 87 88 89 89 87 85 82 81 81 80 79 79 78 77 77 76 75 76 77 77 77 77 77 76 77 78 78 78 79 80
88 88 88 88 88 87 87 88 89 88 89 88 87 87 87 87 86 83 83 82 80 79 79 78 78 78 74 70 73 76 76 77 77 76 77 76 75 76 77 78 78 79
87 87 88 87 87 87 87 87 87 87 87 86 86 86 86 85 84 83 83 82 81 79 78 78 77 78 68 67 68 72 76 76 76 76 76 75 75 75 75 76 77 78
87 87 87 87 87 86 86 86 87 86 86 86 86 86 85 86 85 83 82 81 80 79 79 78 77 72 64 66 67 69 73 77 77 76 76 75 74 74 74 75 76 78
87 87 86 86 86 86 86 86 85 85 85 85 86 86 86 83 82 83 81 81 79 78 78 79 78 68 64 65 66 67 69 75 77 76 76 75 75 74 74 75 76 77
87 87 86 86 86 85 85 85 84 84 85 86 86 84 83 83 83 81 80 78 78 77 77 78 78 66 63 64 64 64 67 72 77 76 74 74 74 75 76 76 76 76
87 86 86 85 85 85 84 84 83 83 84 84 85 84 83 81 82 80 78 78 78 78 77 77 79 64 62 63 62 63 65 70 76 75 74 74 74 75 76 77 78 78
86 86 85 85 84 84 83 83 82 82 82 83 83 83 82 80 80 80 78 77 77 77 78 76 79 61 62 61 61 62 64 73 74 73 73 73 74 75 76 77 78 78
86 86 85 84 84 83 82 82 82 82 82 83 82 81 80 79 79 79 77 78 77 77 77 77 75 62 60 60 60 61 64 72 73 73 73 73 74 76 76 77 78 77
87 86 85 84 83 83 83 83 83 83 82 82 81 81 80 80 79 78 77 78 79 78 79 78 74 63 57 58 59 59 66 72 73 72 73 73 74 76 76 76 78 81
87 86 85 85 83 83 83 82 82 82 82 82 82 81 81 79 79 78 77 77 80 81 74 77 75 66 56 58 58 57 66 73 73 73 72 73 74 75 76 76 76 79
86 84 84 84 83 83 83 82 82 83 82 81 81 81 81 80 79 78 77 78 79 79 77 78 76 72 63 56 56 56 61 73 74 72 72 73 75 75 75 76 75 74

ECMWFNIL_sfc_temp_039.txt.gz
Temp
82 82 81 81 81 80 80 80 80 79 79 79 78 78 78 80 79 79 79 77 77 76 76 75 76 75 76 75 75 75 74 74 74 73 73 72 71 72 73 72 71 70
82 82 82 82 80 80 80 81 80 80 79 79 79 78 78 80 78 79 78 77 77 76 75 76 75 75 74 74 75 75 73 73 73 75 74 72 73 72 72 72 73 71
82 81 81 81 81 81 81 81 81 81 80 80 80 79 79 80 78 79 78 78 77 76 76 76 75 75 74 74 74 75 74 73 73 74 74 72 72 73 72 73 72 72
82 82 82 82 82 82 82 80 80 81 80 79 80 80 81 80 79 78 78 79 77 76 76 76 76 75 74 74 74 72 73 73 73 74 73 73 73 73 72 71 72 72
82 82 82 83 83 82 82 81 81 81 81 80 81 80 80 79 78 78 78 77 77 76 76 76 76 75 74 74 74 73 73 72 72 72 72 72 72 73 73 72 70 71
82 82 82 82 82 82 82 81 81 81 81 80 80 81 80 80 79 78 78 77 77 77 76 76 76 75 74 74 74 73 73 72 73 72 72 72 72 72 73 72 70 69
82 82 82 83 83 82 82 82 81 81 82 82 81 80 80 80 79 78 78 77 77 77 76 76 75 75 75 73 74 73 73 73 73 73 72 72 72 71 72 71 71 70
82 83 83 83 82 82 82 82 82 81 82 81 81 80 80 80 79 79 78 78 77 76 76 76 75 75 76 74 73 73 73 74 73 73 73 72 71 71 71 72 72 70
83 83 83 82 82 82 83 83 82 82 82 81 81 81 81 80 79 79 78 77 77 76 76 75 75 75 76 75 74 73 73 74 74 74 73 72 71 71 71 72 71 71
83 83 83 83 83 83 83 84 84 83 82 82 82 82 80 80 80 79 78 77 77 76 76 75 75 75 75 75 75 74 73 73 73 73 73 73 72 72 72 71 71 70
83 83 83 83 83 84 84 85 85 84 83 83 82 82 81 80 79 79 78 77 76 76 76 75 75 75 75 75 75 75 74 73 73 73 72 72 73 73 74 72 71 71
83 83 83 83 83 84 84 85 85 84 83 83 83 82 81 81 79 79 78 77 77 76 76 76 75 75 75 75 75 74 73 73 74 73 73 72 73 73 73 72 71 71
83 84 84 84 84 84 85 85 85 86 85 84 84 83 82 81 80 79 79 78 77 77 76 76 75 75 75 74 72 72 73 73 73 73 73 73 72 73 73 73 72 72
84 84 84 84 84 84 84 85 85 85 84 84 84 83 83 82 81 79 79 78 77 77 77 76 75 75 74 73 72 74 74 73 73 72 72 72 72 72 73 73 73 73
84 84 84 84 84 84 84 84 84 85 84 84 83 83 83 83 82 80 79 77 77 77 76 76 75 75 74 74 72 73 74 73 73 72 72 72 72 72 72 73 73 74
84 84 84 84 84 83 83 84 84 84 84 83 83 83 83 82 81 80 80 78 77 76 76 75 75 75 72 69 70 74 73 73 73 73 73 72 71 71 72 73 73 73
83 83 83 83 83 83 83 83 83 84 83 82 82 82 83 82 81 80 80 79 78 77 76 75 75 75 67 66 67 69 73 73 72 72 73 72 70 71 72 73 72 72
83 83 83 83 83 83 83 83 83 83 82 82 82 82 82 82 80 79 79 78 78 77 76 76 75 70 64 65 67 67 70 73 73 72 72 72 72 71 71 71 71 72
83 83 83 83 83 83 83 83 82 82 82 81 81 82 82 81 80 78 78 78 77 77 76 76 76 68 64 64 66 66 67 71 73 73 72 72 72 71 71 70 70 71
83 83 82 82 83 82 82 82 82 82 82 82 81 81 81 81 80 78 77 77 77 77 76 76 76 66 63 63 64 64 65 69 74 73 73 72 71 72 72 70 70 70
83 83 82 82 82 82 81 81 81 81 81 81 81 80 80 80 80 77 77 77 77 77 76 75 76 64 62 62 62 62 64 67 74 74 72 72 70 71 71 71 71 72
83 83 82 82 81 81 81 80 80 80 80 79 79 79 79 80 79 79 77 76 76 76 75 74 76 62 61 60 61 61 63 69 73 73 72 71 71 71 71 72 72 72
83 83 82 81 81 80 80 80 79 79 79 79 79 78 77 77 77 77 76 76 75 75 74 74 75 62 59 59 59 61 63 70 73 72 71 70 71 71 71 72 72 72
83 83 81 81 80 80 80 79 80 79 80 79 79 76 75 75 74 73 74 75 75 75 75 74 75 62 58 57 59 59 64 71 72 71 69 70 69 70 70 71 72 76
84 83 82 81 80 80 80 79 79 79 78 77 77 76 74 73 73 73 72 73 75 75 72 74 75 63 56 57 58 58 64 72 72 70 68 68 69 70 71 71 71 74
83 82 81 81 80 80 79 79 78 77 76 76 75 75 74 74 73 73 72 72 74 74 73 74 73 67 60 57 57 57 61 72 72 70 69 68 70 71 70 70 69 70

ECMWFNIL_sfc_temp_042.txt.gz
Temp
80 80 79 79 79 79 79 78 77 77 77 77 76 77 77 78 78 78 78 77 76 75 75 74 74 73 73 73 72 72 71 71 72 70 70 70 69 69 70 68 67 67
80 80 80 80 79 79 79 79 78 78 77 77 78 78 77 78 78 78 77 76 76 76 75 75 73 73 73 72 72 72 71 71 71 72 71 70 70 69 70 69 69 68
80 79 79 79 79 78 79 79 79 79 78 78 78 78 77 78 77 77 77 77 76 76 75 74 73 73 73 72 72 72 72 70 71 71 71 70 70 69 70 70 68 68
80 80 80 80 80 79 79 79 79 78 78 77 78 78 79 78 78 77 76 78 76 76 75 74 74 73 72 72 72 72 72 71 72 71 71 70 70 70 70 70 70 69
80 80 80 80 80 80 79 79 79 79 78 78 78 78 78 77 77 77 76 76 76 75 74 74 73 73 72 72 72 72 71 71 71 71 70 70 70 70 71 70 69 69
80 80 80 80 80 80 79 79 79 79 79 78 78 78 78 78 77 77 76 76 76 76 75 74 73 73 72 71 71 72 72 71 71 71 71 70 70 71 72 70 69 69
80 80 80 80 80 80 80 79 79 80 80 80 79 78 78 77 77 77 77 76 76 75 75 74 73 72 72 72 71 71 71 72 71 70 71 71 70 70 71 70 69 69
80 80 80 80 80 80 80 80 80 79 80 79 79 79 78 78 77 77 77 76 76 75 75 74 73 73 72 72 71 71 71 72 71 70 70 70 70 70 69 70 70 69
80 80 80 80 80 80 80 80 80 80 80 79 79 79 79 78 77 77 76 76 76 75 74 74 73 73 73 73 72 71 71 71 72 71 70 70 70 70 70 69 68 69
80 80 80 80 80 80 80 81 81 80 80 80 79 79 78 78 78 77 76 75 75 75 74 74 73 73 73 73 73 72 72 71 71 71 71 71 71 70 70 69 69 68
80 80 80 80 80 81 81 82 82 81 81 80 80 79 79 78 78 77 76 75 75 75 74 74 74 73 73 73 73 73 72 72 71 71 71 71 71 70 71 69 69 69
80 80 80 80 80 81 81 82 82 81 81 81 80 80 79 79 78 77 77 75 75 75 75 74 74 73 73 73 73 73 72 72 72 71 71 71 71 70 70 69 70 69
80 80 81 81 80 81 82 82 82 82 82 81 81 81 80 79 78 77 77 76 75 75 75 74 74 73 73 73 73 73 72 72 72 71 71 71 69 70 70 70 70 69
81 81 81 81 81 81 81 82 82 82 81 81 81 80 80 79 78 77 77 77 76 75 75 75 74 73 73 73 72 73 72 72 72 71 71 70 69 69 70 70 70 70
81 81 81 81 81 81 81 81 81 81 81 81 80 80 81 80 80 78 77 76 76 75 75 75 74 74 74 74 72 72 73 72 72 72 70 69 69 69 69 70 70 71
81 81 81 81 81 80 80 81 81 81 81 80 80 80 80 80 79 78 78 76 75 75 75 74 74 74 71 67 69 73 73 73 72 72 71 71 70 69 68 69 71 71
81 81 81 80 80 81 81 80 80 81 80 80 80 80 80 79 79 78 78 77 76 75 75 74 74 74 67 64 66 68 73 73 72 71 71 71 70 69 69 69 70 71
81 81 80 80 80 80 80 80 81 80 80 80 80 79 79 80 79 78 78 77 77 76 75 75 75 69 64 64 65 66 69 74 72 71 71 71 70 70 70 70 70 70
81 81 80 80 80 80 81 80 80 80 80 80 80 80 80 79 78 78 77 77 77 76 75 76 75 68 63 63 65 66 66 71 73 72 71 70 70 70 71 71 70 70
81 81 80 80 81 80 80 80 80 79 80 81 81 80 79 79 79 78 78 77 77 76 76 76 76 66 62 61 63 64 65 68 74 72 71 71 71 71 71 71 70 70
81 81 80 80 80 80 80 80 80 80 80 81 81 80 79 79 79 78 78 77 77 77 76 76 77 64 60 60 62 63 64 66 73 72 71 71 71 71 71 71 71 71
81 81 81 80 80 80 80 79 79 79 79 80 80 80 80 80 79 79 78 77 77 77 76 75 76 61 60 60 61 62 63 68 72 72 71 70 70 70 70 71 71 71
82 81 80 80 80 80 79 79 79 79 80 80 79 80 79 79 79 79 79 78 77 76 76 75 74 61 59 59 60 61 62 69 70 71 71 70 70 69 70 71 71 70
82 82 81 80 80 80 80 80 80 80 80 80 80 79 79 79 80 79 78 78 77 76 76 74 74 61 57 58 60 60 63 69 70 70 71 70 69 68 68 70 72 74
83 82 82 81 80 80 81 80 80 80 81 80 80 80 79 79 78 78 76 75 76 76 72 74 75 63 56 58 59 58 63 69 69 70 69 69 67 67 68 69 70 73
84 82 82 82 81 81 81 81 81 80 80 79 79 79 78 76 75 75 73 73 74 75 74 74 74 67 60 57 57 56 60 69 70 70 69 68 67 68 67 68 68 68

ECMWFNIL_sfc_temp_048.txt.gz
Temp
78 78 77 77 77 77 77 76 76 76 76 77 76 77 77 77 77 77 77 77 77 77 76 76 75 75 75 73 73 72 71 71 71 70 70 70 70 70 70 70 70 70
78 78 78 78 77 77 77 77 77 76 76 77 77 77 77 77 77 77 77 77 77 77 77 76 75 75 74 73 72 72 71 71 71 71 70 70 70 70 71 70 71 69
78 78 78 77 77 77 78 78 77 77 77 78 78 77 77 78 77 77 77 77 77 77 76 76 75 75 74 73 72 72 71 70 70 71 71 70 70 70 71 72 70 70
78 78 78 78 78 78 78 77 77 77 77 77 77 78 78 78 77 77 76 77 77 76 76 76 76 75 74 73 73 72 72 71 72 71 71 70 70 70 70 70 71 70
78 78 78 79 79 78 78 77 77 77 77 77 78 78 77 77 77 77 76 76 76 76 76 75 75 75 74 73 72 72 72 71 71 71 70 70 70 70 71 70 70 70
78 78 78 78 78 78 77 77 77 77 77 78 77 78 78 77 77 77 76 76 77 77 76 75 75 74 74 73 72 72 72 72 71 70 70 70 70 71 71 70 70 70
78 78 78 79 79 78 78 77 78 78 78 78 78 77 78 77 77 76 76 76 76 76 76 75 74 74 73 73 72 72 72 72 72 70 70 70 70 70 71 71 70 70
79 79 79 79 78 78 78 78 78 78 78 77 77 77 77 77 77 77 77 76 76 76 76 75 75 74 74 73 72 72 72 72 71 70 70 71 70 70 70 70 70 70
79 79 79 78 78 78 79 79 79 78 78 78 77 78 77 77 77 77 76 76 76 76 76 75 74 74 74 73 73 72 72 72 72 71 71 71 70 70 70 70 70 70
78 79 79 79 79 79 79 79 80 79 79 78 78 78 77 77 77 77 76 76 75 76 75 75 75 74 73 73 73 73 73 72 72 71 71 71 71 71 70 70 70 70
79 79 79 78 79 80 80 80 80 80 79 79 79 78 78 77 77 77 76 76 75 75 75 75 75 75 74 73 73 73 73 73 72 71 71 71 72 71 71 70 70 71
78 79 79 79 79 80 80 80 81 80 80 79 79 79 78 78 77 77 77 76 76 76 76 75 75 75 74 74 74 74 73 73 73 72 72 72 72 72 72 71 71 71
79 79 79 79 79 79 80 80 80 81 80 79 80 79 79 78 78 77 77 77 76 76 76 75 75 75 74 74 73 73 73 72 73 72 72 72 72 72 73 72 72 72
79 80 79 79 79 79 79 80 80 80 79 79 79 79 79 79 78 77 77 77 77 76 76 76 75 75 74 74 74 73 73 72 72 72 72 72 72 72 72 73 73 73
79 79 79 79 79 79 79 79 79 79 79 79 79 79 79 80 79 79 77 76 76 76 76 76 75 75 75 74 73 73 73 73 72 72 72 71 71 72 72 72 72 72
79 79 79 79 78 78 78 79 79 79 79 78 78 79 79 79 78 78 78 77 76 76 76 75 75 75 71 66 68 74 73 73 73 72 72 72 71 71 71 71 72 72
78 78 79 78 78 78 78 78 78 79 78 78 78 78 78 78 78 78 78 78 77 76 75 75 75 75 67 64 65 67 72 73 73 72 72 72 72 71 71 71 71 71
79 78 78 78 78 78 78 78 78 78 78 78 78 78 77 78 78 77 77 77 77 77 76 76 76 69 65 64 64 64 67 74 74 73 73 72 72 72 71 71 70 68
78 78 78 78 78 78 78 78 78 78 78 78 78 78 78 77 77 77 77 77 77 76 76 77 76 69 64 63 63 63 64 69 74 74 73 73 73 72 71 68 67 67
78 78 78 78 78 78 78 78 77 77 78 79 79 78 77 77 77 77 77 76 76 76 76 77 76 69 63 61 62 62 63 66 75 74 73 73 73 72 69 68 67 67
78 78 78 78 78 78 78 77 77 77 78 78 79 78 77 77 77 77 77 77 77 77 76 77 77 67 61 60 60 60 61 63 73 74 73 73 72 70 69 69 69 69
79 78 78 78 78 78 78 77 77 77 77 78 78 79 79 78 78 78 77 77 77 77 77 76 78 64 60 59 59 59 60 67 72 73 73 72 71 70 70 70 70 69
79 79 78 78 78 78 77 77 77 77 78 78 77 78 78 78 78 78 78 78 77 77 76 76 78 67 59 58 58 58 60 70 71 72 73 71 69 69 70 70 70 70
79 79 78 78 78 78 78 78 79 79 79 78 78 78 78 78 79 78 78 78 78 77 78 77 78 68 56 57 57 57 62 70 71 71 71 70 69 70 69 69 70 72
80 80 79 79 78 78 79 78 78 78 79 79 79 79 78 79 78 78 78 78 79 79 71 75 78 70 55 57 56 56 62 71 71 71 69 69 69 68 69 69 70 72
81 79 79 79 79 79 79 79 79 79 79 79 79 79 79 79 78 78 78 78 79 79 78 77 77 77 64 56 55 55 58 71 71 70 69 68 69 69 68 69 69 69

ECMWFNIL_sfc_temp_051.txt.gz
Temp
83 83 82 82 83 83 83 82 83 83 83 84 84 84 84 85 85 85 85 85 84 85 85 84 84 83 83 82 82 81 81 81 82 82 81 81 81 81 81 81 81 80
82 83 83 83 83 83 83 84 83 83 83 83 84 85 85 85 85 85 84 84 84 84 85 85 84 83 83 83 82 81 81 81 80 82 80 80 80 81 81 81 81 81
83 83 83 83 83 83 85 84 84 84 84 85 85 85 85 85 85 84 84 84 84 85 84 84 84 83 83 83 81 81 81 80 80 81 80 79 81 80 81 83 82 81
82 83 84 84 84 84 84 84 83 83 84 84 84 85 86 86 85 85 84 83 84 84 85 84 84 85 84 83 82 81 81 80 81 81 80 80 80 81 81 81 82 81
83 83 84 84 84 84 84 83 84 84 84 84 85 85 84 84 84 85 84 83 83 84 84 84 84 84 84 82 82 81 81 81 81 80 79 79 79 79 81 80 80 80
83 83 83 84 84 83 83 84 84 85 85 85 84 85 85 84 84 84 84 84 85 85 85 85 84 84 85 83 82 81 81 81 81 79 79 79 80 80 81 79 80 79
83 83 83 84 84 84 83 83 84 84 85 85 85 84 85 85 84 83 84 84 85 84 84 84 83 84 84 83 81 80 81 80 80 79 78 79 79 79 80 79 79 79
84 84 84 84 84 84 83 84 84 84 84 84 84 84 85 85 84 85 84 84 84 83 83 84 83 83 84 83 82 80 81 82 80 79 78 79 79 78 78 79 79 78
84 84 84 84 84 84 85 86 85 85 85 84 84 86 85 85 85 85 83 83 83 83 83 83 82 83 83 82 81 80 80 80 80 79 79 79 78 78 79 79 78 78
83 84 85 85 85 85 86 87 87 86 85 84 85 86 85 84 85 84 84 82 82 82 83 82 82 83 82 82 81 81 81 80 80 79 80 80 79 79 80 79 79 78
84 85 84 84 85 87 87 88 88 88 87 86 86 86 86 85 84 84 83 83 82 82 82 82 83 83 82 82 82 82 81 81 80 79 80 80 80 80 79 79 79 79
84 85 85 85 85 87 87 88 88 87 88 87 86 86 86 86 84 84 83 83 83 83 83 83 83 83 82 82 83 82 81 82 81 80 80 80 80 81 80 80 80 79
84 84 85 85 84 85 87 87 88 89 88 88 87 87 87 86 86 84 84 83 83 83 83 83 83 83 82 82 82 82 81 81 81 81 80 80 81 81 82 81 81 80
84 85 84 84 85 84 85 86 87 87 86 87 87 86 87 87 87 85 85 84 84 83 83 83 83 83 82 82 81 81 81 81 81 81 81 80 80 81 82 82 81 81
84 85 84 84 84 84 84 84 85 85 85 85 85 86 87 88 87 87 85 83 83 83 83 83 83 82 83 82 81 81 81 81 80 80 80 79 79 80 80 81 81 82
83 83 83 84 83 83 83 84 85 85 85 85 84 85 85 85 85 85 86 85 83 83 83 83 82 83 76 69 71 81 81 81 80 80 80 80 79 79 79 80 81 82
83 83 83 83 83 83 83 83 83 84 83 83 83 84 84 84 84 85 86 86 84 84 83 82 83 82 69 65 66 69 79 81 80 79 80 79 79 78 78 78 79 80
83 83 83 82 83 82 83 83 83 83 83 83 83 83 83 84 83 83 83 84 85 85 84 83 83 72 66 64 65 65 69 80 81 80 80 80 80 79 79 79 78 78
83 83 82 82 82 83 83 83 82 82 83 83 83 83 84 82 82 83 83 83 84 83 84 84 84 71 65 63 64 63 64 72 82 81 80 80 80 79 79 78 77 76
83 83 82 82 83 83 83 82 82 82 83 85 84 83 82 83 83 82 83 82 83 82 82 84 84 71 63 62 62 61 62 68 82 81 81 81 80 80 79 78 77 76
83 83 82 83 83 83 82 82 82 82 83 84 85 84 83 82 82 82 82 83 83 84 83 84 85 67 62 61 60 59 60 65 80 81 80 80 80 80 79 78 78 78
83 83 83 83 83 82 82 82 82 82 82 83 83 85 84 84 84 84 83 83 83 84 84 83 86 65 61 60 59 58 59 72 78 79 80 80 80 79 79 79 79 78
84 83 83 83 83 82 82 82 81 82 82 83 83 83 84 84 84 84 83 84 83 83 83 83 86 70 59 58 58 57 62 75 77 79 80 79 79 79 79 79 79 79
84 84 83 83 83 82 82 83 84 84 84 83 83 83 84 85 85 84 84 84 84 84 85 84 86 73 57 57 57 56 65 75 77 78 79 78 78 79 79 78 78 73
85 84 84 84 83 83 84 83 83 83 84 84 84 84 84 85 85 84 85 85 86 86 75 82 87 76 57 58 56 55 66 77 77 78 77 77 77 77 78 78 78 74
85 84 83 84 84 83 84 84 84 85 85 84 84 84 84 84 85 84 83 84 86 86 86 84 84 84 68 56 55 55 60 76 78 77 77 77 78 78 77 77 77 77

ECMWFNIL_sfc_temp_054.txt.gz
Temp
87 88 87 88 88 89 89 88 89 89 88 90 90 90 90 90 91 91 91 90 90 90 89 89 89 88 89 88 88 87 87 87 87 87 86 87 86 86 86 86 86 86
87 87 87 88 88 88 89 90 89 89 88 89 90 91 91 91 91 91 90 90 90 89 89 90 89 89 88 89 88 87 86 86 85 88 86 86 86 86 87 86 87 86
87 87 88 87 89 89 91 90 89 89 90 90 90 91 91 92 91 90 90 90 90 90 89 89 89 89 88 88 88 87 86 86 85 87 86 86 87 86 87 89 87 87
87 87 88 89 89 89 89 89 89 89 90 90 90 92 92 92 91 91 90 89 90 89 90 90 90 90 89 88 87 87 87 86 87 86 86 86 86 87 86 87 88 87
87 87 88 89 89 89 89 89 90 90 90 90 91 91 90 90 90 91 90 89 89 90 90 89 89 90 89 88 87 86 87 87 86 86 85 84 86 86 87 87 86 86
88 88 88 88 89 89 89 89 89 91 91 92 90 92 91 90 90 90 90 91 91 91 91 90 90 90 90 88 87 87 87 88 88 85 84 84 86 87 87 86 85 85
88 88 88 89 89 89 89 89 89 90 91 91 91 90 91 91 89 89 90 90 91 90 90 89 88 89 89 88 87 86 87 87 88 85 84 85 85 85 87 86 84 84
89 90 90 89 89 89 89 90 90 90 90 90 91 90 91 92 90 91 90 90 91 89 89 90 89 88 90 89 87 86 86 88 87 85 84 84 85 84 85 86 84 83
89 90 89 89 90 90 92 92 92 91 91 90 91 92 91 91 91 91 89 89 89 89 88 88 88 88 89 89 87 86 86 87 87 86 84 84 85 85 85 85 84 84
89 90 91 92 91 91 92 93 94 92 91 91 91 93 92 90 91 91 90 88 88 88 88 88 88 88 88 89 88 87 87 86 87 86 86 86 86 86 86 85 85 84
90 91 90 90 92 93 93 95 95 95 93 92 92 92 93 92 90 90 89 88 88 88 88 88 88 88 88 89 89 88 88 88 87 87 87 86 86 86 84 85 85 85
89 90 91 91 91 94 94 95 96 95 95 94 93 92 92 94 91 90 90 88 88 89 88 88 88 88 87 88 90 89 88 89 88 88 88 87 87 87 87 86 86 86
90 90 91 91 91 91 94 95 95 97 97 95 94 94 94 94 94 91 90 89 89 89 89 88 88 88 87 87 88 88 88 88 88 88 87 87 87 88 89 88 88 87
90 91 90 90 91 90 91 93 94 95 94 94 94 93 94 94 95 93 92 91 90 89 89 89 88 88 88 87 87 88 88 88 88 87 87 87 87 88 89 90 89 89
89 90 90 90 91 90 90 91 92 92 93 93 92 93 94 95 95 95 92 90 90 89 89 89 89 88 89 88 87 87 88 88 87 87 87 87 87 88 88 88 89 90
89 89 89 89 89 89 88 89 91 91 92 92 92 92 92 92 92 93 94 92 90 89 89 89 89 89 81 73 76 87 87 88 87 87 87 87 86 86 88 88 89 90
88 88 88 88 88 88 88 88 89 90 90 90 90 90 90 90 91 92 93 94 92 91 89 89 89 88 71 68 69 72 85 87 87 86 86 86 86 85 85 86 87 88
88 88 87 87 87 87 88 88 89 88 88 88 89 89 89 90 90 90 90 92 92 92 91 90 90 76 67 66 67 68 74 87 88 87 87 86 86 86 86 87 87 87
88 88 87 87 87 87 88 87 87 87 88 88 89 89 89 88 88 89 89 90 91 90 91 91 91 72 65 64 66 66 68 78 89 88 87 87 87 86 86 86 86 85
88 88 87 87 87 87 87 87 87 87 88 90 90 88 87 88 88 88 88 88 88 89 89 91 92 72 64 63 64 64 66 72 88 88 87 87 87 87 87 86 85 84
88 87 87 87 87 87 87 87 87 87 87 89 90 89 88 87 87 87 87 88 89 90 89 91 93 68 62 61 61 61 63 69 86 87 87 87 87 87 86 86 86 85
88 87 87 87 87 87 87 86 86 86 86 88 89 90 90 90 88 89 89 88 88 89 89 89 92 66 60 60 60 60 62 77 84 84 85 86 87 86 86 86 86 85
88 88 87 87 87 87 86 87 86 86 87 88 88 89 90 89 89 90 89 89 89 88 88 88 91 73 59 59 59 58 64 81 82 84 84 85 85 86 86 86 85 85
89 88 88 87 87 87 87 87 89 89 88 88 88 88 90 91 91 90 89 89 90 90 91 89 91 76 57 58 58 57 67 81 82 83 83 83 85 86 86 85 84 75
90 89 89 89 87 88 89 88 88 88 89 89 90 89 90 90 90 90 90 90 93 93 78 86 92 80 56 58 56 56 68 81 83 83 82 83 84 84 85 86 85 78
90 89 88 89 88 88 89 89 90 90 90 90 90 90 90 91 91 90 90 90 93 92 92 91 90 91 71 56 55 55 60 80 84 82 83 82 84 84 84 84 84 85

ECMWFNIL_sfc_temp_057.txt.gz
Temp
89 89 89 89 90 90 90 90 91 90 90 92 92 91 91 92 92 93 93 92 91 91 91 91 90 90 90 90 89 89 89 88 89 88 87 88 87 87 87 87 87 87
89 89 89 90 89 90 90 91 91 90 90 90 92 93 92 92 93 93 93 92 92 91 91 91 90 90 90 90 89 88 88 88 87 90 87 87 87 88 88 88 88 87
89 89 90 90 91 91 93 92 91 91 92 92 92 93 94 94 93 92 92 92 92 92 90 90 90 90 90 90 89 89 88 87 87 90 87 86 88 87 88 90 88 88
89 89 91 91 92 91 91 91 91 91 92 92 92 94 94 95 93 93 92 91 91 91 91 91 91 91 90 90 89 89 89 88 88 88 88 87 87 88 88 88 89 89
89 89 91 91 92 91 91 91 92 92 92 92 94 93 92 92 92 93 92 92 91 92 91 91 91 91 90 89 89 88 89 88 88 88 87 86 86 87 88 88 87 88
89 89 89 91 91 91 91 92 92 93 93 94 93 94 93 93 93 93 93 93 93 93 93 92 91 91 91 89 89 88 89 89 89 87 87 86 87 88 88 88 87 86
90 90 90 91 92 92 91 91 92 92 94 94 93 93 94 93 92 92 92 92 93 91 93 91 90 90 91 89 88 87 88 88 89 87 86 86 86 87 89 88 86 86
91 92 91 91 92 92 91 92 92 92 92 93 93 93 93 94 92 93 93 93 93 92 91 92 90 89 92 90 88 87 88 89 89 88 86 86 86 85 86 88 87 85
92 92 91 91 92 93 94 94 94 93 93 92 94 95 93 93 93 93 91 91 91 91 90 91 90 90 91 90 89 88 87 89 89 89 87 86 86 86 87 87 87 85
91 92 93 93 94 94 94 95 96 95 94 93 94 96 95 93 93 93 92 90 91 91 91 90 90 91 90 91 89 89 88 87 88 88 89 88 87 87 87 87 87 86
92 93 93 93 94 95 96 97 98 98 96 95 95 95 96 94 92 93 91 90 91 90 90 90 90 90 90 91 91 90 89 89 88 88 88 88 88 87 86 87 87 87
92 93 94 94 94 96 97 98 99 98 98 96 96 95 95 97 94 93 92 91 90 91 91 90 90 90 89 90 92 91 90 90 89 89 89 89 89 89 88 88 88 87
92 93 93 94 94 95 97 98 99 100 100 98 97 96 96 97 97 93 92 92 91 91 91 90 90 90 89 89 90 90 90 89 90 89 89 89 89 90 91 90 90 89
92 94 93 93 94 93 94 97 98 98 97 97 97 96 97 97 98 96 94 93 92 92 91 91 90 90 89 89 89 90 90 89 89 89 90 89 89 90 91 91 90 90
92 93 93 93 94 93 93 94 96 96 96 96 96 96 97 98 98 98 95 92 92 91 91 92 91 90 90 90 89 89 90 90 89 89 89 89 89 90 90 91 91 91
91 91 92 92 92 92 91 93 95 95 96 96 95 96 95 95 95 96 97 95 92 91 91 91 91 91 84 75 78 89 89 90 90 89 89 89 88 88 90 90 92 93
91 91 91 90 91 91 91 91 92 94 93 93 93 94 94 93 94 95 97 97 94 93 92 91 91 91 74 69 71 74 87 89 89 88 89 88 89 87 87 89 90 91
91 91 90 90 90 90 90 91 92 92 92 92 93 93 92 95 94 93 93 95 95 94 93 92 92 79 69 68 69 70 75 89 91 90 89 89 89 89 88 89 90 91
90 90 90 90 90 90 90 90 90 91 91 92 93 93 93 91 91 93 92 93 94 93 93 94 93 75 67 67 68 68 69 80 92 91 90 89 89 89 89 88 88 89
90 90 89 89 90 90 90 90 90 89 92 94 93 92 91 91 92 91 92 91 92 92 92 94 94 75 65 65 66 66 67 73 91 91 90 90 89 89 89 88 88 88
90 90 89 89 89 89 89 89 89 89 90 92 93 92 91 90 90 90 91 91 92 93 93 95 97 71 63 63 63 63 65 69 88 90 90 90 90 90 89 89 89 88
90 89 89 89 89 89 89 89 89 88 88 90 92 93 93 92 91 92 91 91 91 92 93 92 96 68 61 62 62 62 63 78 85 87 88 89 89 89 89 89 89 88
90 90 89 89 89 89 89 89 88 88 89 90 90 92 93 92 91 92 91 92 91 91 90 90 94 74 59 60 61 60 65 81 84 86 86 87 88 89 89 89 89 89
91 90 89 89 89 89 89 90 91 91 90 90 90 91 92 94 93 92 91 91 92 92 93 91 93 77 57 59 59 58 67 82 84 85 85 85 86 88 88 88 88 79
92 91 91 91 89 90 91 90 90 90 91 91 92 92 92 92 93 92 92 92 95 94 82 89 93 81 56 59 57 58 68 82 84 85 84 84 85 86 87 88 88 82
92 90 90 91 90 90 91 91 91 92 92 92 91 92 92 93 93 93 92 93 95 94 94 93 92 93 72 57 56 57 60 81 85 84 84 84 85 85 85 86 87 88

ECMWFNIL_sfc_temp_060.txt.gz
Temp
86 85 85 85 86 86 86 86 87 87 86 87 87 87 86 87 88 87 88 88 87 87 87 87 87 86 87 87 86 86 85 84 85 84 84 84 83 83 84 83 83 81
86 86 85 86 85 85 86 87 87 87 86 86 87 87 87 88 89 89 88 88 87 87 87 88 87 86 86 86 86 85 84 85 84 86 83 83 83 83 84 84 84 83
86 86 86 86 87 87 89 88 87 88 88 89 89 88 88 90 89 88 88 88 87 88 87 87 87 86 87 86 86 85 85 84 84 86 83 83 84 83 83 86 84 84
85 86 87 88 88 87 88 87 87 87 89 88 88 90 91 91 89 89 88 88 87 87 88 88 87 88 87 87 86 85 85 84 85 85 83 83 83 84 84 84 85 84
86 86 87 88 88 88 87 87 89 89 89 89 90 89 88 88 88 89 88 88 87 88 87 87 87 87 86 86 86 84 85 85 85 84 83 82 83 83 84 84 83 84
86 86 86 87 87 87 88 88 88 89 89 91 89 90 90 89 89 90 89 89 90 90 89 89 88 88 88 86 85 85 85 85 86 84 84 83 84 84 85 84 83 83
86 86 87 88 89 88 88 87 88 88 90 90 89 89 90 90 89 89 89 89 90 88 89 87 86 87 87 86 85 84 84 85 85 84 83 83 83 83 85 84 82 82
87 88 88 88 89 88 88 89 89 88 89 89 90 89 90 91 89 90 90 89 90 88 87 88 87 86 88 86 85 84 84 86 86 84 83 83 83 82 83 84 83 82
88 88 88 88 89 90 91 91 90 90 90 89 91 92 90 90 90 90 88 88 88 88 87 87 87 87 87 87 85 85 84 85 86 85 84 83 83 82 83 84 83 82
87 88 90 90 90 90 91 92 92 92 91 90 91 93 91 90 90 90 89 87 88 87 87 87 87 87 87 87 86 85 85 84 85 85 85 84 84 84 84 84 83 82
89 90 89 89 90 91 92 93 93 93 92 91 92 92 92 91 89 90 88 87 88 88 87 87 88 87 87 88 87 87 86 86 85 85 85 85 84 84 84 83 83 83
89 90 90 90 90 92 93 93 94 94 93 92 92 92 92 93 90 90 89 88 88 88 88 87 87 87 86 87 88 88 87 86 86 85 86 85 85 85 85 84 84 84
89 89 90 90 90 91 93 93 94 95 95 94 93 93 93 94 93 90 89 89 88 88 88 88 87 88 87 86 87 87 87 86 86 86 85 86 86 87 87 86 86 85
89 90 90 89 90 89 90 92 94 94 93 93 92 92 93 93 94 92 91 90 89 89 88 88 87 87 87 87 87 87 87 86 86 86 86 86 86 87 87 87 87 87
88 90 90 90 90 89 89 90 92 91 91 92 91 92 93 94 94 94 91 89 89 88 88 89 88 88 88 87 86 86 87 87 86 86 86 85 85 87 87 87 87 88
88 88 89 89 89 88 88 89 91 91 93 91 92 92 91 91 91 92 93 91 89 89 88 88 88 88 83 76 78 86 86 87 87 86 86 85 84 85 86 87 88 89
88 88 88 87 88 88 88 88 89 90 90 89 90 90 90 89 90 91 93 93 91 90 89 88 89 88 75 70 71 75 85 86 86 85 85 85 85 84 84 85 86 87
88 88 87 87 87 87 88 88 89 88 88 88 89 90 89 91 91 90 90 92 92 91 90 89 89 79 70 68 69 70 75 86 87 87 86 86 86 85 85 85 86 87
88 88 87 87 87 88 88 88 87 88 88 89 90 90 91 88 88 90 90 90 91 89 90 90 89 76 67 67 68 68 69 78 88 87 87 87 86 86 86 85 84 84
89 88 87 87 88 88 88 88 88 87 90 92 91 89 88 89 90 89 89 88 89 89 88 91 90 76 66 65 66 66 67 72 87 87 87 87 86 86 87 85 85 84
89 88 88 88 88 88 87 87 87 87 88 90 92 91 89 88 89 89 89 89 90 91 90 92 93 73 64 64 64 64 65 67 84 87 87 87 87 87 86 86 85 85
89 88 87 88 88 87 87 87 87 87 87 88 90 92 91 91 90 91 90 89 90 91 91 90 94 71 63 63 62 63 64 73 81 84 85 86 87 87 86 86 86 86
89 88 87 87 88 87 87 87 87 87 87 88 88 90 91 90 90 91 89 90 90 89 89 89 92 76 61 61 61 61 64 76 79 83 84 85 85 86 86 86 86 86
89 88 88 87 87 87 87 88 89 89 89 88 88 89 91 92 91 90 89 90 91 90 91 90 90 79 59 59 59 60 66 77 79 81 83 83 84 85 86 86 86 80
90 89 89 89 87 88 89 88 88 88 89 89 90 90 90 90 90 90 89 89 92 92 82 87 91 83 60 59 57 58 65 78 81 81 81 82 83 83 84 85 86 80
90 88 88 89 88 88 88 88 88 89 89 89 89 89 90 91 91 90 89 90 92 91 92 90 90 90 75 57 57 56 59 76 81 81 81 82 83 83 83 84 84 85

ECMWFNIL_sfc_temp_063.txt.gz
Temp
81 81 81 81 82 82 81 81 81 81 80 81 81 81 82 82 83 83 83 82 82 82 81 81 81 81 82 81 80 81 80 80 80 79 78 77 76 77 77 76 74 74
81 82 82 82 81 81 81 82 82 82 80 81 82 81 82 82 83 84 82 82 82 83 82 81 81 81 81 82 80 80 79 79 79 81 79 77 77 77 78 77 76 75
81 81 81 81 82 82 83 83 83 83 83 82 82 82 81 83 83 83 83 83 82 83 82 82 81 81 81 81 81 80 80 79 79 80 79 78 78 77 78 79 77 77
81 82 82 83 83 82 83 82 82 83 84 82 82 84 84 84 83 83 83 84 82 82 83 83 82 82 81 81 80 80 80 80 80 80 79 78 78 78 78 78 78 78
82 82 82 83 83 83 83 83 82 83 84 84 84 83 83 83 83 83 83 83 82 82 82 82 82 82 81 81 80 80 80 79 80 79 78 78 78 78 79 78 77 78
82 82 82 83 83 82 83 83 83 83 84 84 84 85 84 84 84 84 83 83 83 83 83 83 83 83 82 81 81 80 80 80 80 79 78 78 78 79 80 78 78 77
82 82 82 83 83 83 83 83 83 83 84 85 84 84 84 83 83 84 84 84 83 83 83 82 82 82 82 81 81 80 80 80 80 80 79 78 78 78 80 79 78 77
82 83 83 83 83 83 83 83 83 83 84 84 84 84 85 85 83 84 84 84 84 83 83 83 82 82 82 82 81 80 80 81 80 80 79 79 78 77 78 79 78 77
83 82 82 82 83 83 84 84 84 84 84 84 84 85 85 86 85 84 83 84 84 83 82 82 82 82 83 82 81 80 80 80 81 80 79 79 78 78 78 79 78 77
82 82 83 83 83 84 84 85 85 85 84 84 85 86 84 85 85 85 83 83 83 83 82 82 82 82 82 82 82 81 81 80 80 80 80 80 80 79 79 78 78 77
83 83 83 83 83 84 85 86 86 86 85 85 85 86 86 85 84 85 84 83 83 83 83 83 83 83 82 82 82 82 82 81 81 80 80 80 80 80 80 79 79 79
83 83 83 83 84 85 85 86 87 86 86 86 86 86 86 86 85 85 85 84 83 84 83 83 83 83 82 83 83 83 82 82 81 81 81 80 80 80 80 80 80 79
83 83 84 84 84 85 86 86 87 87 87 86 87 87 87 86 86 85 84 84 84 84 84 83 83 83 83 82 83 83 82 81 81 81 81 81 81 81 81 81 81 81
84 85 84 84 85 84 85 86 87 87 87 86 86 87 87 87 86 85 85 85 85 84 84 84 83 83 83 83 83 83 82 82 81 81 81 81 81 81 82 82 81 81
84 85 85 85 85 84 84 85 86 86 86 86 86 87 87 88 88 87 85 84 84 84 84 84 84 83 84 83 82 82 83 82 82 81 81 81 81 81 81 82 82 82
84 84 84 84 84 84 84 85 86 86 87 86 86 86 87 87 87 86 86 85 84 84 84 84 84 84 80 74 76 83 83 83 82 82 81 81 80 80 81 81 82 83
84 84 84 83 84 84 84 84 84 85 85 85 85 85 86 85 86 86 87 86 85 85 84 84 84 84 73 69 70 73 81 83 82 81 82 81 81 80 80 81 82 82
84 84 83 83 83 83 83 84 85 84 84 84 85 85 84 86 86 86 86 86 86 86 85 84 84 77 70 68 68 68 73 83 83 82 82 82 82 81 81 81 81 82
84 84 83 83 83 83 84 83 83 84 84 84 85 85 85 84 84 85 85 86 85 84 85 85 85 75 68 67 67 67 67 75 84 83 82 82 82 82 82 81 81 81
84 84 83 83 83 84 84 83 83 83 85 86 86 85 84 84 85 85 85 85 85 84 84 86 85 75 67 66 66 65 66 69 83 83 83 83 82 82 82 82 81 81
84 84 83 83 83 83 83 83 83 83 84 85 86 85 84 84 84 84 85 85 86 85 84 85 87 73 65 64 64 63 65 67 81 83 83 83 83 83 82 82 82 82
85 84 84 84 83 83 83 83 83 83 83 84 85 86 86 86 85 86 85 85 86 86 86 84 87 71 65 64 63 63 64 72 79 81 82 83 83 83 83 83 83 83
85 85 84 84 84 83 83 83 83 83 83 84 84 85 85 85 85 86 86 86 85 85 85 86 86 74 64 62 62 61 64 76 78 80 81 82 82 82 83 83 83 83
85 85 84 84 84 83 83 84 84 85 85 84 84 85 86 86 86 86 86 86 86 86 86 86 87 77 62 61 60 60 66 77 78 78 79 80 81 82 82 82 83 78
86 86 85 85 84 84 85 84 84 84 85 85 85 86 86 86 86 86 85 86 87 87 81 84 87 81 62 59 59 59 65 77 78 78 78 79 79 80 81 82 83 80
86 85 85 85 85 84 85 84 85 85 85 85 85 85 85 86 86 85 85 85 86 86 87 85 86 86 75 56 57 56 59 74 78 78 78 78 79 80 80 81 81 82

ECMWFNIL_sfc_temp_066.txt.gz
Temp
79 79 79 79 78 79 79 79 79 79 78 78 78 78 78 79 80 80 80 80 80 80 79 79 79 79 79 78 78 78 77 77 77 76 75 75 74 73 73 72 70 71
79 79 80 79 79 78 78 80 79 79 78 78 79 79 79 79 79 80 80 79 80 80 80 80 79 79 79 78 77 77 77 77 77 78 76 75 75 74 75 73 73 71
79 79 79 79 79 79 80 80 80 80 79 79 79 79 79 80 80 80 80 80 80 80 79 80 79 79 79 79 78 78 77 76 77 77 76 76 76 75 75 75 74 72
79 80 80 80 80 80 80 79 79 79 80 78 79 80 81 81 80 80 79 81 79 80 80 79 80 80 79 79 78 77 77 77 78 77 76 75 75 76 76 75 75 74
79 79 80 80 80 80 80 79 80 80 80 80 80 80 80 80 80 80 80 80 79 79 79 79 79 79 79 79 79 78 77 77 77 77 76 75 75 75 76 75 75 75
80 80 80 80 80 80 80 80 80 80 81 80 80 80 80 80 80 80 80 80 80 80 80 80 79 80 79 79 79 79 78 77 77 76 76 76 75 76 77 75 75 74
79 79 80 80 80 80 80 80 80 80 81 82 81 80 80 80 80 80 80 81 80 80 80 80 79 79 79 79 78 78 78 78 77 76 76 76 75 75 76 76 75 75
80 80 80 80 80 80 80 80 80 80 81 81 81 81 81 81 80 81 81 81 81 80 80 80 80 79 80 79 78 78 78 79 78 77 76 76 76 75 75 77 76 75
80 80 80 80 80 80 80 81 81 81 81 81 81 82 82 82 82 81 80 80 80 80 79 80 80 80 80 79 79 78 78 78 79 78 77 76 76 76 76 76 76 75
79 80 80 80 80 80 80 81 82 81 81 81 82 83 82 82 82 82 81 80 80 80 80 80 80 80 80 80 79 79 79 78 78 78 78 78 77 77 77 76 76 75
80 80 80 80 80 81 81 82 82 83 82 81 82 82 82 82 81 82 81 81 80 80 80 80 80 80 80 80 80 80 80 79 79 78 78 78 78 78 78 77 76 76
80 80 80 80 80 81 81 82 83 82 82 82 82 82 82 83 82 82 81 81 81 81 81 80 80 80 80 80 80 80 80 80 79 79 79 79 79 79 78 78 77 77
80 80 80 81 81 81 82 82 83 83 83 83 83 83 83 82 82 82 82 81 81 81 81 81 81 80 80 80 80 80 80 79 79 79 79 79 79 79 79 79 79 78
81 81 81 81 81 81 81 82 82 83 83 83 83 83 83 83 83 82 82 82 82 81 82 82 81 80 80 80 80 80 80 79 79 79 79 79 79 79 79 79 79 79
81 81 81 81 81 81 80 81 82 82 82 82 82 83 83 84 84 83 82 82 82 82 82 82 81 81 81 81 80 80 80 80 79 79 79 78 78 79 79 79 80 80
81 81 81 81 81 80 80 81 81 82 82 82 82 83 83 83 83 83 83 82 81 81 82 81 81 82 78 72 74 81 80 80 80 79 79 79 78 78 79 79 80 80
81 81 81 80 80 80 80 80 81 81 81 81 81 82 82 82 83 83 83 83 82 82 81 81 82 82 73 69 69 71 79 80 80 79 79 79 78 78 78 78 79 80
81 81 80 80 80 80 80 80 81 81 80 81 81 81 81 82 82 82 82 83 83 83 82 82 82 75 69 67 67 67 71 81 81 80 80 79 79 79 79 79 79 79
82 81 81 80 80 80 81 80 80 80 80 80 81 82 82 81 81 82 82 83 83 82 82 83 82 74 68 66 66 66 66 73 82 81 80 80 79 79 79 79 79 78
82 81 81 81 81 81 81 80 80 80 81 82 82 81 81 81 82 82 82 81 82 82 82 83 82 75 67 65 64 64 65 68 80 81 81 81 80 80 80 79 79 79
82 81 81 81 81 81 80 80 80 80 81 82 82 82 81 81 81 81 82 82 82 83 82 83 84 73 66 63 62 62 63 65 78 81 81 81 81 81 80 80 80 80
82 81 81 81 81 81 80 80 80 80 80 81 82 83 83 83 82 83 82 82 82 83 83 82 85 71 65 63 62 62 62 70 76 79 80 81 81 81 81 81 81 81
83 82 81 81 81 81 80 80 80 80 81 82 81 82 82 82 82 83 83 83 83 82 82 83 84 75 64 62 61 61 62 73 76 78 79 80 80 81 81 81 81 81
83 83 82 81 81 81 81 81 82 82 82 82 82 82 82 83 83 83 83 83 83 83 84 83 84 77 63 60 59 60 64 75 76 77 78 78 79 80 81 81 81 77
84 83 83 82 81 82 82 82 82 82 83 83 83 83 83 84 83 83 83 83 84 84 79 81 84 79 63 60 58 58 64 75 77 77 77 77 78 78 80 80 81 79
84 83 83 83 82 82 83 82 83 83 83 82 82 83 83 83 83 83 82 83 83 83 83 82 83 84 71 58 58 57 59 74 77 77 76 77 78 78 78 79 80 80

ECMWFNIL_sfc_temp_069.txt.gz
Temp
78 78 77 77 77 77 77 76 76 76 76 76 76 76 76 77 77 77 78 77 77 77 77 77 77 77 77 77 76 76 75 75 75 74 73 73 72 71 72 71 69 69
78 78 78 77 76 77 77 77 77 76 76 76 77 77 77 77 77 78 77 77 77 77 77 77 77 77 76 76 76 75 75 75 75 76 74 73 73 72 73 72 71 69
78 78 78 77 77 77 78 77 77 77 77 77 77 76 77 77 77 77 77 77 77 77 77 77 77 77 77 76 76 76 75 75 75 75 75 74 73 72 73 73 71 70
78 78 78 78 78 77 77 77 77 77 77 76 76 78 78 78 78 77 77 78 77 77 77 77 77 77 77 76 76 75 76 75 75 75 75 74 74 74 74 73 73 72
78 78 78 79 79 78 77 77 77 77 77 77 78 77 77 77 77 77 77 77 77 77 77 77 77 77 77 76 76 75 75 75 75 75 74 74 74 74 75 73 72 72
78 78 78 78 78 78 77 77 77 78 78 77 77 78 77 77 77 77 77 77 77 78 78 77 77 77 77 77 76 76 76 75 75 75 74 74 74 74 75 74 73 73
78 78 78 79 78 78 78 78 78 78 78 79 77 77 78 77 77 77 77 78 78 77 77 77 77 77 77 77 76 76 76 76 75 75 75 74 74 74 74 74 73 73
78 79 79 78 78 78 78 78 78 78 78 77 77 78 78 78 78 78 78 78 78 77 77 77 77 77 77 77 76 76 76 77 76 75 75 75 74 74 74 75 74 73
79 78 78 78 78 78 78 78 78 78 78 78 78 78 78 78 78 78 78 78 78 78 77 77 77 77 78 77 77 76 76 76 77 76 75 75 74 74 74 74 74 73
78 78 78 78 78 78 78 79 79 79 79 78 79 79 78 78 79 78 78 77 77 77 77 77 77 77 77 77 77 77 76 76 76 76 76 76 75 75 75 74 74 74
78 78 78 78 78 79 79 79 80 80 79 79 79 79 79 79 78 78 78 77 78 78 77 77 78 78 77 77 78 78 77 77 77 77 76 76 76 76 77 75 75 74
78 78 78 78 78 79 79 80 80 80 80 80 80 79 79 80 79 78 78 78 78 78 78 78 78 78 78 78 78 78 77 78 77 77 77 77 77 77 77 76 76 75
78 78 79 79 79 79 80 80 80 80 80 80 80 80 80 80 80 79 79 79 78 79 78 78 78 78 78 78 78 78 78 77 77 77 77 77 77 77 77 77 77 77
79 79 79 79 79 79 79 80 80 80 80 80 80 80 80 80 80 80 80 80 79 79 79 79 78 78 78 78 78 78 78 78 77 77 77 77 77 77 77 78 78 77
79 79 79 79 79 78 78 79 79 79 80 80 80 80 80 81 81 81 80 79 79 79 79 79 78 78 79 79 78 78 78 78 78 77 77 77 77 77 77 77 78 78
79 79 79 79 78 78 78 78 79 79 79 79 79 80 80 80 80 80 80 80 79 79 79 79 79 79 76 71 72 79 78 78 78 78 77 77 77 77 77 77 78 78
78 78 78 78 78 78 78 78 78 79 78 78 78 79 79 79 79 79 80 80 80 80 79 79 79 80 71 67 67 69 77 78 78 77 77 77 77 77 76 77 77 77
79 78 78 78 78 78 78 78 78 78 78 78 78 78 78 79 79 79 79 80 80 80 80 80 80 73 68 66 66 66 69 78 79 78 78 77 77 77 77 77 77 77
79 78 78 78 78 78 78 78 78 77 77 77 78 78 79 78 78 79 79 79 80 79 79 80 80 72 67 65 65 65 64 70 79 79 78 78 77 77 77 77 77 77
79 79 78 78 78 78 78 78 77 77 78 79 79 78 78 78 78 78 79 78 79 79 79 80 80 73 67 64 64 63 64 66 77 79 79 79 78 78 78 77 77 77
79 79 78 78 78 78 78 78 78 78 78 79 79 79 78 78 78 78 78 79 79 80 80 80 81 71 65 63 62 61 62 64 74 77 79 79 79 79 78 78 78 78
80 79 79 79 78 78 78 77 78 77 77 78 79 80 80 79 79 79 79 79 79 80 80 79 82 70 64 62 61 61 61 68 72 75 77 78 79 79 79 79 79 78
80 80 79 79 79 78 78 78 78 78 78 79 78 79 79 79 79 79 80 79 79 79 79 79 81 73 64 61 60 60 61 70 72 74 76 77 78 79 79 79 79 79
81 81 80 79 79 78 78 79 79 80 79 80 79 79 79 80 80 80 80 80 80 79 80 80 80 75 64 60 59 59 63 72 73 74 75 76 77 78 79 79 80 77
82 81 81 80 79 79 80 79 79 79 80 80 80 80 80 80 80 80 80 80 81 81 76 79 81 76 65 61 58 57 63 73 74 74 75 75 76 77 78 78 79 78
83 82 81 81 80 80 81 80 81 81 80 80 80 80 80 80 80 80 80 80 81 81 81 80 80 81 76 61 58 56 59 72 74 74 74 75 76 76 76 77 78 78

ECMWFNIL_sfc_temp_072.txt.gz
Temp
78 77 77 77 76 77 76 75 76 76 75 76 76 76 76 77 78 78 78 78 78 78 78 77 78 78 78 78 78 78 77 77 77 77 76 75 75 75 75 74 73 73
77 78 78 77 76 76 76 77 76 76 75 75 76 77 77 77 78 78 78 77 78 78 78 78 78 78 78 78 77 77 77 77 77 77 76 75 75 75 76 75 75 74
78 78 78 77 77 77 78 77 77 76 76 77 77 77 77 78 77 77 78 78 77 78 78 78 78 78 78 78 77 77 77 76 76 77 76 76 76 75 75 77 75 75
77 78 78 78 78 78 77 76 76 76 77 76 76 78 78 78 78 77 77 78 78 77 78 78 78 78 78 78 77 77 77 77 78 77 76 76 76 76 76 75 76 75
77 78 78 79 78 78 77 77 77 77 77 77 77 77 77 77 77 77 77 77 77 78 77 77 78 78 78 77 77 77 77 77 77 77 76 76 76 76 76 76 75 75
78 78 78 78 78 77 77 77 77 77 77 77 77 78 77 77 77 77 77 77 78 78 78 78 78 78 78 78 77 77 77 77 77 76 76 76 77 77 77 76 76 75
78 78 78 78 78 78 77 77 78 78 78 78 77 77 78 77 77 77 77 78 78 78 78 78 77 77 78 78 77 77 77 77 77 76 76 76 76 76 77 77 76 75
78 78 78 78 78 78 77 78 78 77 78 77 77 77 78 78 78 78 78 78 78 78 78 78 78 77 78 78 77 77 77 77 77 76 76 76 76 76 76 76 76 75
78 78 78 78 78 78 78 79 78 78 78 77 78 78 78 78 78 78 78 78 78 78 77 78 78 78 78 78 77 77 77 77 77 77 76 76 76 76 77 77 76 76
78 78 79 79 78 79 78 79 79 79 78 78 79 79 78 78 79 78 78 77 77 77 77 78 78 78 78 78 78 77 77 77 77 77 77 77 77 77 77 77 76 76
78 79 78 78 78 79 79 80 80 80 79 79 79 79 79 78 78 78 78 77 77 77 77 77 78 78 78 78 78 78 78 78 78 77 77 77 78 77 78 77 77 76
78 78 78 78 78 79 79 80 80 80 80 80 80 79 79 79 78 78 78 77 78 78 78 78 78 78 78 78 79 79 78 78 78 78 78 78 78 78 78 78 77 77
78 78 78 79 78 79 80 80 80 81 81 80 80 80 80 79 79 78 78 79 78 79 79 78 78 78 78 78 78 78 78 78 78 78 78 78 78 79 79 79 79 78
78 79 78 78 79 78 79 80 80 80 80 80 80 79 80 80 80 79 79 79 79 79 79 79 78 78 78 78 78 78 79 78 78 78 78 78 78 79 79 80 79 79
78 79 79 79 79 78 78 78 79 79 79 79 79 80 80 81 81 81 79 79 79 79 79 79 79 78 79 79 78 78 79 79 78 78 78 78 78 79 79 79 80 80
78 78 78 78 78 77 77 78 79 79 79 79 79 79 79 79 79 80 80 80 79 79 79 79 79 79 75 70 72 79 79 79 79 78 78 78 78 78 79 79 79 80
77 77 78 77 77 78 77 77 77 78 78 77 78 78 78 78 79 79 80 80 80 79 79 79 79 79 70 66 66 68 77 79 78 78 79 78 78 78 78 78 79 79
78 77 77 77 77 77 77 77 78 77 77 77 78 78 77 79 79 78 79 80 80 80 80 80 79 72 67 65 65 65 68 78 80 79 79 78 78 78 78 79 79 80
78 77 77 77 77 77 77 77 77 77 77 77 78 78 78 77 77 78 78 79 79 79 79 80 80 71 66 65 65 64 64 70 80 80 79 79 79 79 79 78 78 78
78 78 77 77 77 77 77 77 77 77 78 79 79 78 77 77 78 78 78 77 78 78 78 80 80 72 65 63 63 63 63 66 77 79 79 80 79 79 79 79 79 78
78 78 77 77 78 77 77 77 77 77 78 78 79 78 77 77 77 77 78 78 79 79 79 80 81 69 64 62 61 61 62 64 75 77 79 79 80 80 79 79 79 79
78 78 78 78 78 77 77 77 77 77 77 78 78 79 79 79 78 79 78 78 79 79 79 79 81 68 63 62 60 60 61 69 73 75 77 78 79 79 80 79 80 80
79 78 78 78 78 77 77 77 77 77 77 78 78 78 79 78 78 79 79 79 79 79 78 78 80 71 63 61 60 59 61 72 73 74 76 77 77 79 79 80 80 80
79 79 78 78 78 77 78 78 79 79 79 79 78 78 79 80 80 79 79 79 79 79 80 79 80 73 62 60 59 58 64 73 74 74 75 75 76 78 79 79 80 77
80 80 79 79 78 78 79 78 78 78 79 79 80 79 79 79 80 79 79 79 81 81 75 78 80 76 63 60 58 57 64 74 75 75 74 75 76 77 78 79 79 78
81 80 80 80 79 79 79 79 80 80 80 79 79 80 80 80 80 80 79 79 81 81 81 80 80 81 75 59 58 56 59 73 75 75 74 75 76 76 77 78 78 79

ECMWFNIL_sfc_temp_075.txt.gz
Temp
82 82 82 82 83 83 83 83 84 84 84 85 85 85 85 85 86 85 86 85 85 85 85 84 84 84 85 85 84 84 84 84 85 86 85 84 84 85 84 84 84 83
82 82 82 83 83 83 83 84 83 84 83 84 85 86 85 85 86 86 85 85 85 85 85 85 84 84 84 85 84 84 84 84 84 86 84 84 84 84 85 85 85 85
83 82 83 83 84 83 85 84 84 84 85 85 85 85 86 86 86 85 85 85 85 86 85 85 85 84 85 85 84 84 84 84 83 86 84 84 85 84 85 87 86 85
82 83 84 84 84 84 84 84 84 84 85 84 85 86 86 87 86 85 85 84 85 85 85 85 85 86 85 85 84 84 85 84 85 85 84 84 85 85 85 85 86 86
83 83 84 85 85 84 84 83 85 85 85 85 86 85 84 84 84 86 85 85 84 85 85 85 85 85 85 84 84 84 84 85 85 84 84 84 84 84 85 85 84 84
83 83 83 84 84 84 84 84 84 85 85 86 85 86 86 85 85 85 85 86 86 86 87 87 85 85 86 85 84 84 85 86 86 84 83 83 85 86 86 84 84 83
83 83 83 85 85 84 84 84 84 84 86 86 85 85 86 85 85 85 85 85 86 86 87 85 84 85 85 84 84 83 84 84 84 84 83 84 84 84 86 84 83 83
84 85 84 84 85 85 84 85 85 84 85 85 85 85 85 86 85 86 85 85 86 85 85 85 84 84 86 85 84 83 84 85 84 83 82 83 84 83 84 85 84 83
84 84 84 84 85 85 86 86 86 85 85 84 86 87 86 86 86 87 85 84 84 84 84 84 84 84 85 85 84 83 83 85 85 84 83 83 83 83 84 85 84 83
84 84 85 86 86 86 86 87 88 86 86 85 86 87 86 85 86 86 85 83 84 84 84 84 84 84 85 85 84 84 84 83 84 84 84 84 84 84 85 84 84 84
85 85 85 85 86 87 87 88 88 88 87 86 87 87 87 86 85 85 84 83 84 84 84 84 84 85 84 85 85 85 85 85 85 84 84 84 84 84 84 84 84 84
84 85 85 85 86 87 88 88 89 88 88 87 87 87 87 87 86 86 85 84 84 84 84 84 84 84 84 84 86 86 85 85 85 85 85 85 85 85 85 85 85 85
85 85 85 86 85 86 88 88 88 89 88 88 88 87 87 87 88 86 85 85 84 85 85 84 84 85 84 84 84 85 85 84 85 85 85 85 86 86 87 87 87 86
85 86 85 85 85 84 86 87 88 88 87 87 87 87 88 87 88 87 87 86 86 85 85 85 84 84 84 84 84 85 85 85 85 85 85 85 86 86 87 88 87 87
84 85 85 85 85 84 84 85 86 86 86 86 86 86 88 88 88 88 87 86 86 85 85 85 85 85 85 85 84 84 85 85 85 85 85 84 85 86 87 86 87 88
83 83 83 84 83 83 83 84 85 85 86 85 85 86 86 86 86 86 87 86 85 85 85 85 85 85 80 72 75 84 85 85 85 84 84 85 84 84 86 87 87 89
82 83 83 82 82 83 83 83 83 84 84 83 84 84 84 84 85 85 87 87 87 86 85 85 85 85 72 67 67 70 82 85 84 84 84 84 84 84 84 85 87 87
83 82 82 82 82 82 82 82 83 83 83 83 83 84 83 85 84 84 84 86 87 87 87 86 86 76 68 66 66 65 70 83 86 85 85 85 85 85 85 85 86 87
82 82 82 82 81 82 82 82 82 82 82 83 83 84 84 82 83 84 84 84 85 84 86 87 87 73 66 65 65 64 64 73 85 86 85 86 86 85 85 85 85 85
82 82 82 82 82 82 82 82 82 81 83 85 85 84 83 83 84 83 83 83 84 84 84 87 87 75 65 64 63 63 63 67 84 85 85 86 85 86 86 85 84 84
82 82 81 82 82 82 81 81 81 82 82 84 85 84 83 82 83 83 83 83 84 85 85 86 88 71 63 62 61 61 62 66 82 84 84 85 85 86 85 85 85 85
83 82 82 82 82 82 81 81 81 81 81 83 84 86 85 85 84 85 84 84 84 85 85 85 88 69 63 61 60 60 61 74 80 81 83 84 85 85 85 85 85 85
83 83 82 82 82 82 81 82 81 81 82 83 83 84 85 85 84 85 84 85 85 84 84 84 87 74 61 60 59 58 63 78 80 81 82 83 83 84 85 85 85 85
83 83 82 82 82 82 82 83 84 84 84 84 83 84 85 86 86 85 85 85 85 85 86 85 86 76 60 59 58 57 66 79 80 81 81 81 82 84 84 84 85 79
85 84 84 84 82 83 84 83 83 83 85 85 85 85 85 85 85 85 85 85 87 87 79 83 86 79 61 59 57 57 66 80 81 82 81 81 82 82 83 84 84 81
85 84 84 84 83 83 84 84 85 85 85 85 85 85 85 86 86 86 85 85 87 87 87 86 86 87 76 58 58 56 59 78 82 81 81 81 82 82 83 83 84 85

ECMWFNIL_sfc_temp_078.txt.gz
Temp
87 87 87 87 88 89 89 89 90 89 89 92 91 91 91 91 91 92 92 91 91 91 90 90 90 89 90 90 89 89 89 89 90 91 89 89 89 90 90 90 90 89
87 87 87 88 88 88 89 90 89 89 89 90 91 92 91 91 92 92 91 91 91 90 90 91 90 89 89 90 89 89 88 89 88 92 89 88 89 90 90 90 90 90
88 87 88 88 89 89 91 90 90 90 91 91 92 92 92 93 92 91 91 91 91 92 91 90 90 89 90 90 89 89 89 88 88 91 89 88 90 89 90 93 92 91
87 88 90 90 90 89 90 90 89 89 91 91 91 93 93 94 92 92 91 90 91 90 91 91 90 91 90 90 89 89 89 88 89 89 89 89 89 90 90 90 92 92
88 89 90 90 90 89 89 89 90 91 91 91 93 92 91 90 91 92 91 90 90 91 91 90 90 90 90 89 89 88 89 89 89 88 88 88 89 89 91 91 89 90
88 88 88 89 89 89 89 90 90 91 91 93 91 93 92 91 91 92 92 92 92 92 93 93 91 91 91 90 89 88 90 91 91 88 87 87 89 91 92 90 89 89
89 89 89 90 90 90 89 89 90 90 92 93 92 91 92 92 90 90 91 91 93 91 93 91 90 90 91 90 88 88 88 89 90 89 87 88 88 89 92 90 88 88
89 90 90 90 90 90 89 90 91 90 91 91 92 91 92 92 91 92 91 91 92 91 90 92 90 89 92 91 88 88 88 90 89 88 87 87 88 87 88 90 89 87
90 90 90 89 91 91 92 93 92 91 91 91 92 93 92 92 92 93 90 90 90 90 90 90 89 90 90 90 89 88 88 90 91 89 88 87 87 87 88 89 89 88
89 90 91 92 92 93 93 94 94 93 92 92 93 94 93 91 92 92 91 89 89 89 89 89 89 90 90 91 89 89 89 88 89 89 89 89 89 89 90 89 89 88
91 92 91 91 92 94 94 95 96 95 93 93 93 94 94 93 91 92 90 89 89 89 89 89 89 89 89 91 91 91 90 90 89 89 89 89 89 89 89 89 89 89
90 92 92 92 93 94 95 96 96 96 95 94 94 93 94 95 92 92 91 89 89 90 89 89 89 89 89 89 92 92 91 91 90 90 90 90 90 91 90 90 90 90
91 91 92 93 92 93 95 95 96 97 96 95 94 94 94 95 95 92 91 91 89 90 90 89 89 89 89 89 90 90 91 90 91 91 90 91 91 92 93 93 93 92
91 92 92 91 92 91 93 95 96 96 95 94 94 93 95 95 95 93 93 93 91 91 90 90 89 89 89 89 89 90 90 90 90 90 91 91 91 92 93 94 94 94
90 91 91 91 91 90 91 92 94 94 94 93 92 94 96 96 96 96 93 92 91 90 90 91 90 89 90 89 88 89 90 91 90 90 90 90 91 92 93 92 94 95
89 89 90 90 90 89 89 91 93 93 94 93 92 93 93 93 93 94 95 93 91 91 91 91 90 91 85 77 80 89 89 91 90 89 89 90 89 89 92 93 94 95
88 88 89 88 88 89 89 89 90 91 91 90 90 91 91 90 92 93 94 94 93 92 91 91 91 90 76 69 70 74 88 90 89 89 89 89 89 88 88 91 93 94
88 88 87 87 88 87 88 88 90 90 89 89 90 90 89 92 91 91 91 93 94 94 93 92 92 81 69 67 69 69 75 89 91 90 90 90 89 90 90 91 91 93
88 87 87 87 87 87 87 87 88 88 89 89 90 90 90 88 89 90 90 91 92 91 93 94 93 76 66 66 67 67 67 78 91 91 91 91 91 90 90 90 90 90
87 87 87 87 87 87 87 87 87 87 90 91 91 89 88 88 90 89 89 88 90 90 90 93 94 76 66 64 65 64 66 71 89 90 90 91 90 91 91 90 89 89
87 87 86 87 87 87 86 86 86 87 88 90 92 90 88 87 88 88 88 88 90 91 90 92 96 71 64 62 62 62 63 69 86 88 89 89 90 90 89 90 90 90
87 87 86 87 87 86 86 86 86 86 86 88 90 92 91 90 89 90 89 89 89 91 91 91 95 70 62 61 60 61 62 78 85 85 86 88 89 89 89 89 89 89
88 87 86 86 87 86 86 87 86 86 87 88 89 90 91 90 89 91 90 90 90 89 89 90 93 76 60 59 59 59 65 83 84 85 86 86 87 88 89 89 89 89
88 88 87 87 87 86 87 88 89 89 88 89 89 90 92 93 92 91 90 91 91 91 92 90 92 79 59 58 57 57 69 83 84 85 85 85 86 87 88 88 89 82
90 89 88 88 87 88 89 88 88 88 89 89 91 91 91 92 92 91 91 91 94 94 83 89 93 83 59 59 56 57 69 84 85 85 84 85 86 86 87 88 88 85
90 88 88 89 88 88 89 89 89 90 90 90 90 91 91 93 93 92 91 91 94 94 94 92 91 93 75 57 57 56 60 83 86 85 84 85 86 86 87 88 88 89

ECMWFNIL_sfc_temp_081.txt.gz
Temp
89 89 89 89 90 91 90 90 92 91 90 93 93 91 92 92 93 93 93 93 91 91 91 90 91 90 91 90 90 90 90 90 91 92 90 91 91 91 92 92 92 91
88 89 89 90 89 90 91 92 91 91 90 91 93 93 93 93 93 93 93 92 92 91 91 92 91 90 90 91 90 90 89 89 89 93 90 90 90 91 92 92 93 92
89 89 90 90 91 91 93 92 91 92 93 93 93 93 94 94 93 92 92 93 92 92 91 91 91 90 91 91 90 90 90 89 89 92 91 89 91 90 91 95 94 93
89 89 90 91 92 92 92 92 92 91 93 93 93 96 95 96 93 93 92 92 92 91 92 92 91 92 91 91 90 90 90 89 90 91 90 90 90 91 91 92 93 94
89 89 91 92 92 91 91 91 93 93 93 93 95 94 93 93 92 93 92 92 91 92 92 91 91 92 91 90 90 89 90 90 90 90 89 89 89 90 92 92 91 91
89 89 90 91 91 91 91 92 92 94 93 95 94 95 95 94 94 93 93 93 93 94 94 93 92 92 92 91 90 89 90 91 92 90 89 88 90 92 93 92 91 90
90 90 91 92 93 92 91 91 92 93 94 95 94 94 95 94 93 93 92 93 93 92 94 92 91 91 91 90 89 89 89 90 91 90 88 89 89 90 93 92 90 90
91 92 92 92 93 92 92 92 93 93 94 94 95 94 95 95 93 94 94 94 94 93 92 94 92 91 93 92 89 89 89 91 90 89 89 88 89 88 89 91 91 89
92 91 92 92 93 93 94 94 94 94 94 94 95 96 95 95 94 95 93 93 93 92 92 92 91 92 92 92 90 89 89 91 92 90 89 88 89 88 90 90 90 89
91 92 94 93 94 94 94 95 96 95 95 95 96 97 95 94 95 94 93 91 92 92 92 91 91 92 92 92 91 90 89 89 90 90 90 90 90 90 91 90 90 89
93 94 93 93 94 95 96 97 98 97 95 95 96 97 97 95 93 94 92 91 92 92 91 91 92 92 91 93 93 92 91 91 90 90 90 90 90 90 90 90 90 90
93 94 94 94 94 96 97 97 98 98 97 96 97 96 96 97 94 94 93 91 91 92 92 91 91 91 90 91 94 94 92 92 91 91 91 91 91 92 91 91 91 91
93 94 94 94 94 96 97 97 98 100 99 97 97 97 97 97 96 94 94 93 92 93 92 91 91 91 90 90 91 92 92 91 92 92 91 92 92 93 94 94 93 93
93 95 94 93 94 93 95 97 98 99 98 97 96 96 98 98 98 95 95 95 93 93 92 92 91 91 90 90 90 92 92 92 91 92 92 92 92 93 94 95 95 95
92 94 94 94 94 93 94 95 97 97 97 97 95 96 98 98 99 98 95 94 94 92 92 93 92 91 91 91 90 90 92 93 91 91 92 91 92 94 94 94 96 97
91 92 93 93 93 92 92 94 96 96 98 97 96 95 95 95 95 96 97 95 93 92 92 93 92 92 87 80 82 90 91 93 92 91 91 91 91 91 94 95 95 97
91 91 92 91 91 92 92 93 93 95 95 94 94 94 94 93 95 96 97 96 95 94 93 93 93 93 78 72 73 77 89 91 91 90 90 90 91 90 90 93 95 95
91 91 90 90 91 90 90 91 93 93 92 93 94 94 92 95 95 94 94 96 96 95 95 94 94 83 71 70 71 71 78 91 93 92 92 91 91 91 91 92 93 95
90 90 90 90 90 90 90 90 91 92 93 93 94 94 94 92 92 94 93 94 95 93 94 95 95 78 68 68 69 69 69 81 94 93 93 93 92 91 92 91 91 92
90 90 89 89 90 90 90 90 90 90 93 95 95 93 91 92 94 92 93 91 93 93 92 95 96 77 67 66 67 66 68 73 92 94 93 94 92 93 93 91 91 91
90 89 89 89 89 89 89 89 89 90 92 94 95 94 91 90 92 91 92 92 93 95 94 95 99 71 65 64 64 64 66 71 89 92 93 93 93 93 92 92 92 91
90 89 89 89 89 89 89 88 89 89 89 92 93 95 94 93 92 93 93 92 93 94 95 93 96 64 65 63 63 63 64 80 87 87 88 90 91 92 91 91 92 91
90 90 89 89 89 89 88 89 88 89 90 92 92 94 94 93 92 94 92 93 93 92 92 92 95 70 62 61 62 60 67 84 85 87 86 87 88 90 91 91 91 91
90 90 89 89 89 89 89 90 91 91 91 91 92 93 95 95 94 93 93 93 93 93 94 93 95 76 59 59 60 58 71 85 85 86 86 86 87 89 90 90 90 86
92 91 90 90 89 90 91 90 90 90 92 92 93 94 94 95 94 93 93 93 96 96 86 91 96 82 57 60 58 57 72 86 86 86 85 86 87 87 88 89 90 87
92 90 90 91 90 90 90 91 91 92 92 92 93 93 94 96 96 94 93 94 96 96 96 95 94 93 70 58 57 57 63 84 87 86 85 85 87 87 88 89 89 90

ECMWFNIL_sfc_temp_084.txt.gz
Temp
86 85 86 86 86 86 86 86 87 87 86 88 87 86 86 87 88 88 89 88 88 88 88 88 87 87 89 88 88 87 85 86 86 87 86 87 86 88 88 88 88 85
86 86 85 86 85 85 86 87 87 86 86 86 87 87 87 88 89 89 88 88 88 88 88 88 87 87 87 87 87 86 86 86 86 90 87 87 87 87 89 89 89 87
86 86 87 87 88 88 90 89 87 88 88 89 89 88 89 90 89 88 88 89 88 89 88 88 87 87 87 87 86 86 86 85 85 88 87 86 87 86 87 91 89 89
86 87 88 89 89 88 89 88 88 87 89 88 89 92 91 93 90 89 88 89 88 88 88 88 88 88 87 87 87 86 86 85 87 87 87 87 86 87 87 87 89 89
87 87 88 89 89 88 88 89 90 89 90 89 91 89 88 88 88 90 89 88 87 88 88 88 88 88 87 86 86 85 86 86 87 86 86 85 86 86 87 87 87 88
87 87 87 88 88 88 89 89 89 91 90 92 90 91 91 90 90 90 89 90 90 90 90 89 89 89 89 87 86 85 86 87 87 86 85 85 86 88 89 88 86 86
87 87 88 89 90 90 89 88 89 89 91 91 90 90 91 91 90 89 89 89 90 89 90 87 87 87 87 86 85 85 85 86 87 85 85 85 85 86 89 88 86 86
88 89 89 89 90 90 89 90 90 89 90 90 91 90 91 92 90 91 90 90 90 89 88 89 87 86 89 88 85 85 85 88 87 86 84 85 85 84 85 88 87 85
89 89 89 89 90 91 91 92 91 91 91 90 92 93 91 91 91 92 89 89 89 88 87 88 87 88 88 87 86 85 85 87 88 86 85 85 85 85 86 86 86 86
88 88 90 90 91 91 91 92 93 92 92 92 93 94 92 91 91 91 89 87 88 87 87 87 87 88 88 88 87 86 86 85 86 86 86 86 86 86 87 86 86 85
89 90 89 90 91 92 92 93 93 93 92 92 93 94 93 92 90 90 88 88 89 88 88 87 88 88 87 89 89 88 87 87 87 86 86 86 86 86 87 86 86 86
89 90 90 90 91 92 93 93 94 94 93 93 93 93 93 94 92 91 90 88 88 89 89 88 87 88 87 87 90 90 88 88 87 87 87 87 87 87 87 87 87 86
90 90 90 91 91 92 94 93 94 95 94 93 94 94 94 94 94 91 90 90 89 89 89 88 88 88 87 87 88 88 88 87 88 87 87 87 88 89 89 89 89 89
90 91 91 90 91 89 91 93 94 94 94 93 93 93 95 95 94 92 92 92 90 90 89 89 88 88 87 87 87 88 88 87 87 88 88 88 88 88 90 90 90 90
88 91 90 90 90 89 90 92 93 93 93 92 91 93 95 96 95 94 92 91 90 89 89 90 89 88 89 88 87 87 88 88 87 88 88 87 87 89 89 89 91 92
88 88 89 89 89 89 89 91 92 93 94 93 92 92 92 91 92 92 93 92 90 89 89 90 89 89 85 80 81 87 87 90 88 87 87 87 86 87 89 90 91 92
88 88 88 87 87 89 89 89 90 92 91 90 90 90 90 89 91 92 93 93 92 91 90 90 90 90 78 72 74 78 87 87 87 86 86 86 87 85 85 88 90 90
88 88 87 87 87 87 87 88 90 90 89 89 90 90 88 92 92 91 91 92 93 92 91 90 90 82 71 70 71 72 79 87 89 88 88 87 87 88 87 87 88 90
88 88 87 87 87 87 87 88 88 89 89 90 91 91 91 89 88 91 90 91 92 89 91 91 91 77 68 69 70 70 71 81 89 89 89 88 88 87 87 86 86 86
88 88 87 87 87 87 87 87 88 88 91 93 93 90 88 89 91 89 89 88 90 89 88 91 91 76 67 67 68 68 69 74 88 89 89 89 88 88 89 87 86 85
88 87 87 87 87 88 87 87 87 88 90 92 94 92 89 88 89 89 89 89 91 92 90 92 95 71 65 65 65 65 67 71 86 89 88 88 88 88 87 87 87 87
88 87 87 87 87 87 87 87 87 86 87 89 91 94 92 91 90 91 90 90 91 92 93 90 94 66 65 64 64 64 66 77 84 85 85 87 87 87 87 86 87 87
89 88 87 87 88 87 87 88 87 87 88 89 90 92 92 91 90 92 90 91 91 90 90 89 92 68 63 62 63 63 66 80 83 84 84 84 85 86 87 87 88 88
88 88 88 88 87 87 87 88 89 89 90 90 90 91 92 93 92 91 90 91 92 91 92 90 93 72 59 61 62 61 70 81 82 83 83 83 83 85 85 85 87 87
90 89 89 89 87 88 89 88 88 88 90 90 92 92 92 91 91 90 91 91 94 94 86 90 93 78 56 61 59 59 70 82 82 83 82 82 83 83 84 85 85 86
90 88 88 89 88 88 88 88 89 90 90 90 91 91 92 94 93 91 91 91 93 93 93 92 92 87 66 59 58 57 63 82 83 82 81 82 83 83 83 84 84 85

ECMWFNIL_sfc_temp_087.txt.gz
Temp
81 80 80 80 79 80 80 79 79 79 78 79 79 79 80 80 83 83 82 83 83 82 81 82 81 82 83 81 81 81 81 81 82 81 81 80 80 80 81 80 80 78
81 81 81 81 79 79 80 81 80 80 79 79 80 79 80 81 82 83 82 82 83 82 82 81 81 81 81 81 80 80 79 80 80 83 81 80 80 80 81 80 81 79
81 81 81 81 81 81 81 82 81 82 81 81 81 81 81 82 82 81 82 83 82 83 82 81 81 81 81 80 80 80 80 78 79 81 81 80 80 80 79 81 80 80
81 81 82 82 83 82 82 81 81 81 82 81 81 83 84 86 83 82 81 84 82 82 83 82 81 82 81 81 80 80 80 79 80 79 80 80 81 81 81 79 80 80
82 82 82 83 83 83 83 82 82 82 83 83 84 82 83 83 82 83 81 82 82 82 82 82 81 82 81 80 80 80 80 80 79 79 78 78 80 81 80 80 79 80
82 82 82 83 83 82 83 83 83 83 83 84 84 84 83 83 83 84 83 83 83 83 83 83 82 82 82 81 80 80 80 80 81 80 79 78 79 81 83 81 79 78
82 82 82 83 83 83 83 83 83 83 84 85 84 84 84 83 83 84 84 84 84 83 83 82 82 82 82 81 80 79 80 80 80 80 79 78 78 79 82 81 80 79
83 83 83 84 84 84 83 83 84 84 84 84 84 85 85 85 84 85 85 84 84 83 83 83 82 81 82 82 80 80 80 81 80 80 79 79 78 78 79 81 80 79
84 83 83 83 84 84 84 85 85 85 85 85 85 85 85 86 85 85 84 84 84 83 82 82 82 82 82 81 81 80 80 81 81 80 80 79 79 79 80 80 78 78
83 84 84 84 84 85 85 86 86 86 86 85 86 87 85 86 86 85 84 83 84 83 82 82 82 82 82 82 81 81 81 80 81 80 80 80 80 80 80 80 80 78
84 84 84 84 85 86 86 87 87 87 87 86 87 87 87 86 85 85 83 83 84 83 83 82 82 83 82 83 82 82 82 81 81 80 80 80 81 80 82 80 79 79
84 84 84 84 85 86 87 87 88 87 87 87 87 87 87 87 86 86 85 83 84 84 84 83 83 83 83 83 83 83 82 82 81 81 81 81 81 80 81 81 80 80
84 84 85 85 85 86 87 88 88 88 88 88 88 88 88 87 87 86 85 84 84 84 84 83 83 83 82 82 83 83 82 81 82 81 80 81 82 82 82 82 82 81
85 85 85 85 86 86 86 87 88 88 88 88 88 88 89 88 88 86 86 86 85 85 85 84 83 83 82 82 83 83 82 81 82 81 81 81 81 82 83 83 83 83
85 85 86 85 86 85 86 86 87 87 87 87 87 88 89 89 89 88 86 85 85 84 84 85 84 83 83 83 82 82 82 82 82 81 81 81 81 82 82 82 84 85
84 85 85 85 85 85 85 86 87 87 88 87 87 87 88 88 88 88 88 86 85 84 84 84 84 84 82 77 79 83 82 84 82 82 81 81 80 80 81 82 84 85
84 84 84 83 84 85 85 85 86 87 86 86 86 86 86 86 86 87 88 87 86 85 84 84 85 85 76 71 72 76 83 83 82 81 81 81 80 80 80 81 83 83
84 84 83 83 83 83 84 85 86 86 85 85 85 86 85 87 86 86 87 87 87 86 85 85 85 80 71 69 71 71 77 84 83 82 82 81 81 81 81 81 82 83
84 84 83 83 83 83 84 84 84 85 85 85 85 86 86 85 85 85 85 86 87 85 85 86 85 76 69 68 69 69 70 79 84 83 82 82 82 82 81 80 80 80
84 84 83 83 83 83 84 84 84 84 86 87 86 86 85 85 86 85 84 84 86 85 84 86 85 76 67 66 67 67 68 73 84 84 82 82 82 82 83 81 80 80
84 84 83 83 83 83 83 83 84 84 85 87 87 86 85 84 86 85 84 84 85 86 85 86 88 72 65 65 64 65 66 70 83 84 83 82 82 82 82 82 81 80
84 84 83 84 83 83 83 83 83 83 84 86 87 87 86 86 86 87 86 84 84 86 86 85 88 68 64 64 64 64 65 74 80 81 82 81 80 80 81 82 82 82
85 84 84 84 84 83 83 83 83 83 84 85 86 87 85 85 86 87 86 86 85 84 85 85 86 70 63 62 63 63 66 77 79 80 81 80 79 79 80 81 82 83
86 85 84 84 84 83 83 84 85 85 86 86 86 86 86 86 87 87 86 87 87 86 85 84 86 72 61 61 61 61 68 78 79 79 80 80 80 79 79 79 81 85
87 86 85 85 84 85 85 85 85 85 86 86 87 87 87 87 86 86 86 86 88 88 84 84 86 74 59 62 61 60 68 79 79 79 79 79 79 80 79 79 79 82
87 86 86 86 85 85 86 85 86 86 86 86 86 87 87 87 87 86 86 86 87 87 87 87 86 79 64 59 59 58 62 79 79 78 78 78 79 79 79 79 80 80

ECMWFNIL_sfc_temp_090.txt.gz
Temp
77 77 78 79 79 78 77 75 75 77 77 78 78 79 79 79 80 80 80 80 80 79 79 79 79 79 80 79 79 79 78 78 79 78 77 77 76 76 78 76 75 74
77 77 78 79 78 78 76 77 75 77 77 78 79 79 79 79 79 80 80 80 80 80 79 79 79 79 78 79 79 79 78 78 78 80 78 77 77 76 78 77 77 76
78 77 78 78 79 79 79 77 76 76 77 78 78 79 79 80 79 79 80 80 80 80 79 79 79 79 78 78 78 79 79 77 77 79 78 78 77 77 77 78 76 77
78 78 79 79 80 80 80 78 76 76 77 76 77 79 80 81 80 79 79 81 80 80 80 79 79 79 79 79 78 78 78 78 78 78 78 78 78 78 78 77 77 76
79 79 79 80 80 80 79 79 79 78 78 78 78 78 79 79 78 79 79 80 80 80 80 80 79 79 79 78 78 78 78 77 77 77 77 77 77 78 79 77 76 76
79 79 79 80 80 79 79 79 80 80 80 79 79 79 79 79 79 79 79 80 80 81 81 81 80 80 79 78 78 78 78 78 78 77 76 77 77 78 80 78 76 75
79 79 79 80 80 80 80 79 80 80 80 81 80 79 80 80 80 80 79 80 80 80 81 80 80 79 79 79 78 77 77 77 77 77 77 76 76 77 78 78 77 76
80 80 80 80 80 80 80 80 80 80 81 81 80 80 80 81 81 81 80 80 80 80 80 81 80 79 80 79 78 77 77 79 78 77 77 76 76 76 76 78 77 76
81 80 80 80 80 81 81 81 81 81 81 81 81 81 80 81 81 82 81 80 80 80 80 80 80 80 80 80 79 78 78 78 78 78 77 77 76 76 76 77 76 76
80 80 81 80 80 81 81 82 82 82 81 81 82 82 81 81 81 81 81 80 80 80 79 80 80 80 80 80 79 79 78 78 78 78 78 78 78 77 77 77 77 76
81 81 81 80 81 82 82 82 83 83 82 82 82 82 82 82 81 81 80 80 80 80 79 79 80 80 80 80 80 80 79 79 79 78 78 78 78 78 79 78 77 77
81 81 81 81 81 82 82 83 83 83 83 83 83 83 83 83 82 81 81 80 81 81 80 80 80 80 80 80 80 80 80 80 79 78 78 78 78 78 78 78 78 78
81 81 82 82 82 82 83 83 83 84 84 84 84 84 83 83 83 82 82 81 81 81 81 80 80 80 80 80 80 80 80 79 79 79 78 78 77 78 79 79 79 79
82 82 82 82 82 82 82 83 84 84 84 84 84 84 84 84 84 83 83 82 82 82 82 82 81 80 80 80 80 80 80 79 79 79 79 78 78 78 78 79 79 79
82 82 82 82 82 82 82 82 83 83 83 84 83 84 85 85 85 84 83 82 82 82 82 82 81 81 81 80 79 79 80 79 79 79 79 78 78 78 78 78 79 80
81 82 82 82 81 81 81 82 83 83 84 83 83 84 84 84 84 84 84 83 82 81 82 81 81 82 79 75 76 81 80 81 80 79 79 79 78 78 78 79 80 81
81 81 81 81 81 81 81 81 82 83 83 82 83 83 83 83 84 84 84 84 83 82 81 81 82 82 75 70 70 73 80 80 79 79 79 79 78 78 77 78 79 80
81 81 81 81 81 80 81 81 82 82 82 82 82 83 82 84 83 83 83 84 84 83 82 82 82 77 70 68 69 69 74 81 80 79 79 78 79 78 78 79 79 79
81 81 81 81 80 81 81 81 81 81 82 82 82 83 83 82 82 83 83 83 84 82 82 83 82 75 68 67 67 68 68 76 81 80 79 79 79 79 79 78 78 78
82 81 81 81 81 81 81 81 80 81 82 84 84 83 82 82 83 83 83 82 83 82 82 83 82 76 67 66 65 66 67 71 82 81 80 80 79 79 79 78 78 78
82 81 81 81 81 81 80 80 80 81 82 83 84 83 82 82 82 82 83 82 83 83 83 83 85 73 66 64 63 63 65 68 80 81 80 80 79 79 79 79 78 78
82 81 81 81 81 81 80 80 80 80 81 82 83 84 84 83 83 84 83 82 83 84 83 82 85 70 65 64 63 62 64 72 77 80 80 80 79 78 79 79 79 79
83 82 81 81 81 81 80 81 80 80 81 83 82 84 84 83 83 84 83 83 83 83 83 83 84 73 64 63 62 61 64 74 76 79 79 80 80 79 79 79 79 79
83 83 82 81 81 81 81 81 82 82 83 83 83 83 84 84 84 84 84 84 84 83 84 83 84 76 62 62 61 60 67 75 77 77 78 79 79 79 78 78 79 83
84 83 83 82 82 82 83 82 82 82 83 83 84 84 84 85 84 84 84 84 85 85 82 83 84 78 61 61 60 59 66 77 78 77 77 78 78 79 78 78 78 81
85 84 83 83 83 83 83 83 83 83 83 83 84 84 84 85 84 84 84 84 85 84 85 84 84 84 71 59 59 58 61 77 78 77 77 77 78 78 78 78 78 78

ECMWFNIL_sfc_temp_093.txt.gz
Temp
76 76 75 74 74 75 75 75 75 75 75 75 76 76 76 78 78 78 78 77 77 77 77 76 76 76 77 76 75 76 76 76 76 75 75 75 73 73 74 73 72 72
76 76 77 76 74 75 74 75 75 75 75 75 76 77 77 77 77 78 78 77 78 78 77 77 76 76 76 76 75 75 75 76 76 77 76 74 74 73 75 74 74 73
76 76 76 76 76 75 76 75 75 75 76 76 76 76 76 77 77 77 78 78 77 78 77 77 77 76 76 76 76 76 76 76 76 76 76 75 74 74 74 75 74 74
76 77 77 78 78 77 76 74 74 74 75 75 75 77 77 79 77 77 77 79 77 77 78 77 77 77 76 76 75 76 76 76 77 76 76 75 75 75 75 74 75 74
77 77 77 78 78 78 76 75 75 74 75 76 77 76 76 76 76 76 76 77 77 77 77 77 77 77 76 76 75 75 76 76 76 75 75 75 75 75 75 74 74 74
77 77 77 78 78 77 77 76 76 75 75 75 76 77 77 77 77 77 77 77 77 78 78 77 77 77 77 76 75 75 76 76 76 75 75 75 76 75 76 75 74 74
78 77 76 77 77 77 77 77 77 77 76 77 75 76 77 77 77 77 77 77 77 77 78 77 77 77 77 76 75 75 75 75 75 75 75 75 75 75 75 75 74 74
78 78 77 77 77 77 77 78 77 77 77 75 75 76 76 77 77 78 77 77 77 77 77 77 77 77 77 76 75 75 75 76 76 75 74 75 74 75 75 76 75 74
79 78 78 77 77 77 78 78 78 78 77 76 77 77 76 77 77 78 77 76 77 77 76 77 77 77 77 77 76 76 75 76 76 75 75 75 74 75 75 75 74 74
78 78 78 78 77 78 78 79 79 79 78 78 78 78 77 77 77 77 77 76 76 76 76 76 77 77 77 77 77 77 76 76 76 75 75 75 75 75 75 75 75 74
79 79 78 78 78 79 79 79 80 80 79 79 78 78 78 77 77 77 76 75 76 76 76 76 77 77 77 78 78 78 78 77 77 76 75 76 76 76 77 75 75 75
79 79 79 79 79 79 80 80 80 80 79 79 79 79 79 79 78 77 78 76 76 77 77 77 77 77 77 78 78 78 78 77 77 76 76 76 76 76 76 76 76 75
79 79 79 79 79 79 80 80 80 81 81 80 80 80 80 79 79 78 78 78 77 77 77 77 77 77 77 77 78 78 78 77 77 76 76 76 76 76 77 76 76 76
80 80 80 80 80 79 79 80 81 81 80 80 80 80 80 80 80 79 78 78 78 78 78 78 77 77 77 77 78 78 78 77 77 77 76 76 76 76 76 77 77 77
79 80 80 80 80 79 79 79 80 80 80 80 80 80 81 81 81 81 79 78 78 78 78 78 78 78 78 78 77 77 78 77 77 77 77 76 76 76 76 76 77 77
79 80 80 80 79 79 79 79 80 80 80 80 80 80 80 80 80 80 80 79 78 78 78 78 78 78 77 73 74 79 78 79 78 77 77 77 76 76 76 76 77 77
79 79 79 78 79 79 79 79 79 80 79 79 79 79 79 79 80 80 80 81 80 79 78 78 79 80 73 68 69 72 78 78 78 77 77 77 77 76 76 76 77 77
79 79 78 78 78 78 78 78 79 79 78 78 79 79 79 80 80 79 79 80 81 80 79 79 79 76 69 67 68 68 72 79 78 78 77 77 77 77 77 77 77 77
79 79 79 78 78 78 79 78 78 78 78 79 79 80 80 78 79 79 79 80 80 79 79 80 80 73 68 66 67 67 67 74 79 79 78 77 77 77 77 76 76 76
80 79 79 79 79 79 79 78 78 78 79 80 80 80 79 79 80 79 79 79 80 80 79 81 80 74 67 65 65 65 66 69 79 79 78 78 78 77 78 77 76 76
80 79 79 79 79 79 78 78 78 78 79 80 81 80 79 79 79 79 80 80 80 81 80 80 82 72 66 64 63 63 64 67 77 79 79 78 78 78 77 78 77 77
80 79 79 79 79 79 78 78 78 78 78 79 80 81 81 81 80 81 80 80 80 81 81 80 83 70 65 63 62 62 63 70 75 77 78 78 78 77 78 78 78 78
80 80 79 79 79 79 78 78 78 78 79 80 79 80 81 80 80 81 81 81 81 80 80 80 82 73 64 62 61 61 63 71 74 76 77 78 78 78 78 78 78 78
75 78 79 80 79 79 79 79 80 80 80 80 80 80 80 81 81 81 81 81 81 81 81 81 81 75 63 60 60 60 65 73 74 74 76 77 77 78 78 77 78 81
79 77 78 80 80 80 81 80 80 80 81 81 81 81 81 82 82 81 81 81 82 82 81 81 82 78 63 60 59 59 64 74 75 75 75 75 76 77 78 78 77 79
79 81 81 82 81 81 81 81 81 81 81 81 81 81 81 82 82 81 81 81 82 82 83 82 82 82 74 59 59 58 60 74 76 75 75 75 76 76 77 77 77 77

ECMWFNIL_sfc_temp_096.txt.gz
Temp
76 75 75 74 74 75 75 75 75 76 75 76 76 76 76 77 78 78 78 78 78 78 78 77 78 78 78 78 78 78 78 77 78 78 77 77 77 77 77 76 76 76
76 76 76 75 74 75 75 76 75 76 75 75 76 76 76 77 78 78 78 78 78 78 78 78 78 78 78 78 77 77 77 78 78 79 78 77 77 77 78 78 78 76
76 75 76 75 76 75 76 75 75 75 76 76 76 76 77 78 77 77 78 78 78 79 78 78 78 78 78 78 77 78 78 77 77 79 78 78 78 77 78 79 78 78
76 76 77 77 77 76 76 75 75 75 76 75 76 78 78 79 78 77 77 79 78 78 79 78 78 78 78 78 77 77 78 77 78 78 78 78 78 78 78 78 79 78
77 76 77 77 77 76 75 75 76 75 76 76 77 77 77 77 77 77 77 78 78 78 78 78 78 78 78 77 77 77 77 78 78 78 77 77 78 78 78 78 78 78
77 77 76 77 77 75 75 75 76 76 76 76 76 77 77 77 77 78 78 78 78 79 79 79 79 79 79 78 77 77 78 78 78 77 77 77 78 78 79 78 78 77
77 76 77 77 77 76 76 75 76 76 76 77 77 76 77 77 77 77 77 78 78 78 78 78 78 78 78 78 77 77 77 77 78 77 77 78 77 78 78 78 77 77
77 78 77 77 77 77 77 76 76 76 76 76 76 77 77 77 77 78 78 77 78 78 78 78 78 78 79 78 77 77 77 78 77 77 77 77 77 77 78 78 78 77
78 77 77 77 77 77 78 78 77 77 76 76 77 78 77 77 78 78 77 77 77 78 77 78 78 78 78 78 78 77 77 78 78 77 77 77 77 77 78 78 78 77
77 77 78 78 77 78 78 79 79 78 77 77 77 78 77 77 78 78 77 76 77 77 77 78 78 78 78 78 78 78 78 77 77 77 78 78 78 78 78 78 78 77
78 78 78 77 78 79 79 80 80 80 78 78 78 77 78 77 77 77 76 76 77 77 77 77 78 78 78 78 79 79 79 79 78 78 78 78 78 78 79 78 78 78
78 78 78 78 78 79 79 80 80 80 79 79 79 78 77 78 77 77 77 76 77 78 78 78 78 78 78 78 79 79 79 79 79 78 79 79 79 79 79 79 79 78
78 78 78 79 78 79 80 80 80 81 80 80 80 79 79 78 78 77 77 77 77 77 78 78 78 78 78 78 78 79 78 78 79 78 78 79 79 79 80 79 80 79
79 80 79 78 79 78 78 80 80 80 79 79 79 79 80 80 79 78 78 78 78 77 78 78 78 78 78 78 78 78 79 78 78 78 79 78 79 79 80 80 80 80
78 79 79 79 79 78 78 78 79 79 79 79 78 79 81 81 81 81 79 78 78 77 78 78 78 78 78 78 78 78 79 79 79 79 79 78 78 79 79 79 80 80
78 78 78 78 78 78 77 78 79 79 80 79 79 79 79 79 79 79 80 79 78 77 78 78 78 78 77 72 74 79 78 79 79 78 78 78 78 78 79 79 79 80
78 78 78 77 77 78 77 77 78 79 78 77 77 78 78 77 78 79 80 80 80 79 78 78 79 79 72 68 68 70 78 79 78 78 78 78 78 78 77 78 79 79
78 78 77 77 77 77 77 77 78 77 77 77 77 78 77 79 79 78 78 80 80 80 80 79 79 75 68 67 67 67 71 79 80 79 79 79 79 79 79 79 79 79
78 78 77 77 77 77 77 77 77 77 77 78 78 79 79 77 77 78 78 79 80 78 79 80 80 73 67 66 66 66 66 73 80 80 79 79 79 79 79 79 78 78
78 78 77 77 78 77 77 77 77 77 78 80 80 78 77 77 79 78 78 77 78 78 78 80 80 74 67 65 65 65 65 68 79 80 80 80 79 79 80 79 78 78
78 78 78 78 78 78 77 77 77 77 78 79 80 79 78 77 78 78 78 78 79 80 79 80 82 72 65 64 63 63 63 66 76 79 80 80 80 80 79 79 79 79
79 78 78 78 78 77 77 77 77 76 76 78 79 81 80 80 79 80 79 79 79 80 80 79 83 70 65 63 62 62 63 70 75 77 78 79 79 79 79 79 79 79
79 78 78 78 78 77 77 77 77 77 77 78 78 79 80 80 80 80 79 80 80 79 79 79 81 73 64 62 61 61 63 72 74 76 77 78 78 79 79 79 80 80
78 78 78 77 77 77 77 78 79 79 79 79 78 79 80 81 81 80 80 81 81 80 81 80 81 75 63 60 60 60 65 73 74 75 76 77 78 79 79 79 80 80
79 78 78 78 77 77 78 78 78 78 79 77 77 79 80 80 80 80 81 81 83 82 80 80 82 78 64 60 59 58 64 75 75 75 75 76 77 77 79 79 79 80
78 78 78 78 77 78 78 78 79 76 75 75 77 77 79 80 81 80 80 81 82 82 83 82 82 82 76 60 59 57 59 74 76 75 75 76 77 77 78 78 79 79

ECMWFNIL_sfc_temp_099.txt.gz
Temp
83 83 83 83 84 85 84 84 85 85 84 86 86 85 85 85 86 86 86 86 85 85 85 85 85 84 85 85 85 85 85 85 87 86 86 86 87 87 87 86 86 87
83 83 83 84 83 83 84 85 85 85 84 84 85 86 85 85 86 86 85 86 86 86 85 86 85 85 85 86 85 85 85 85 85 88 86 86 86 87 87 87 88 87
83 83 83 83 85 84 86 86 85 85 86 86 86 85 86 86 86 85 85 86 86 87 85 85 85 85 85 86 85 85 86 85 85 88 86 85 87 86 87 89 89 88
83 83 85 86 86 85 85 85 84 84 86 85 85 87 87 88 86 86 85 84 85 85 86 86 86 87 86 86 85 85 86 85 87 86 85 86 86 87 87 87 88 88
83 83 85 86 86 85 85 84 86 86 86 86 87 86 85 85 85 86 85 85 85 86 86 85 86 86 85 85 85 85 86 87 86 85 85 85 86 86 87 87 86 87
83 83 83 84 85 84 85 85 85 86 86 87 86 87 87 86 86 86 86 86 87 87 87 88 87 87 87 86 85 85 87 88 88 85 85 85 87 88 89 87 86 86
84 83 84 85 86 85 85 84 85 85 87 87 86 86 87 87 86 85 86 86 87 87 88 86 86 86 86 86 85 84 85 85 86 85 84 86 86 86 87 86 85 85
85 85 85 85 85 85 85 85 85 85 86 86 86 86 86 87 86 87 86 86 87 86 86 87 85 85 87 87 85 85 85 87 86 85 84 85 85 85 85 87 86 85
85 85 85 85 85 86 87 87 87 86 86 85 87 88 86 86 87 88 86 86 86 86 85 86 85 86 87 86 86 85 85 87 87 86 85 85 85 85 86 87 86 85
84 85 86 86 86 87 87 88 89 88 87 86 87 89 87 86 87 87 86 84 85 85 85 85 85 86 86 87 85 86 85 85 86 85 86 86 86 87 87 87 87 86
85 86 85 85 86 87 88 89 89 89 88 87 88 88 88 87 85 86 85 84 85 85 85 85 85 86 85 87 87 87 87 87 86 86 86 86 86 86 86 86 86 87
85 86 86 86 86 87 88 89 89 89 89 88 88 87 87 88 87 87 86 84 85 86 86 85 85 86 85 86 88 88 87 87 87 87 87 87 87 88 87 87 87 87
85 85 85 86 86 87 88 88 89 90 89 89 88 88 88 88 89 87 86 86 85 86 86 85 85 86 85 85 86 86 87 86 87 87 87 87 88 88 89 89 89 89
85 87 86 85 86 85 86 88 88 89 88 88 88 87 88 89 89 88 88 88 87 87 86 86 85 85 85 85 85 86 86 86 86 87 87 87 88 88 89 90 90 90
84 86 86 85 85 84 84 85 86 87 87 87 86 87 89 90 90 90 88 87 87 86 86 87 86 86 86 85 85 85 86 87 86 86 86 86 87 88 89 88 89 91
83 84 84 84 84 83 83 84 85 86 87 86 86 86 86 86 87 87 89 88 86 86 86 86 86 87 82 75 77 85 86 87 86 85 86 86 85 86 88 89 89 91
83 83 83 82 82 83 83 83 83 85 84 84 84 85 85 84 85 86 87 89 88 87 87 87 87 87 75 69 69 71 83 86 85 85 85 85 86 84 84 87 89 89
83 83 82 82 82 82 82 82 83 83 83 83 84 84 83 85 85 85 85 87 88 88 88 88 88 78 70 68 68 67 72 84 87 86 87 86 86 86 86 87 87 89
83 82 82 82 82 82 82 82 82 82 83 83 84 85 85 83 83 84 84 85 86 85 87 88 88 76 68 67 67 66 65 74 87 87 87 88 87 86 86 86 86 86
83 82 82 82 82 82 82 82 82 81 84 86 86 84 83 83 85 83 84 83 84 84 84 87 87 78 67 65 65 64 65 68 84 86 87 87 87 87 87 86 85 85
83 82 82 82 82 82 82 82 82 82 83 85 87 85 83 82 83 83 83 84 85 86 85 87 89 74 66 64 63 63 63 67 82 85 86 86 87 87 86 86 86 86
83 82 82 82 82 82 82 81 82 81 81 83 85 87 86 86 85 85 85 84 85 86 86 85 89 72 66 63 62 62 62 75 80 81 83 85 86 86 86 85 86 86
83 83 82 82 83 82 82 82 81 82 82 84 83 85 87 86 85 86 85 86 86 85 85 85 87 76 64 62 61 60 65 78 80 81 82 83 84 85 85 86 86 86
84 83 82 82 82 82 82 83 85 85 85 85 84 85 86 87 87 86 86 86 87 86 87 85 86 79 64 61 60 59 68 79 80 81 82 82 83 84 85 85 85 81
85 84 83 82 82 83 85 84 84 84 85 85 86 86 86 86 87 86 87 86 89 89 81 84 87 82 64 61 59 59 67 80 81 82 81 81 82 83 84 85 85 82
83 84 84 84 84 83 84 85 85 84 84 85 85 86 86 87 88 87 86 87 89 89 89 87 87 87 78 60 59 57 60 78 81 81 81 81 83 82 83 84 85 85

ECMWFNIL_sfc_temp_102.txt.gz
Temp
89 89 89 89 89 90 90 90 91 90 90 92 91 91 91 91 91 91 91 91 90 90 90 89 89 88 90 89 89 89 89 89 91 91 90 90 91 92 92 91 91 91
88 89 89 90 89 89 90 91 90 90 90 90 91 92 91 91 92 91 91 90 90 90 90 90 89 89 89 90 89 89 88 89 89 93 89 89 90 91 91 91 92 92
89 89 89 90 91 91 93 92 91 91 92 93 92 91 92 93 91 91 91 91 91 92 90 90 90 89 90 89 89 89 90 88 88 92 89 89 91 91 92 95 94 93
88 89 91 92 92 92 92 91 91 90 92 92 93 94 93 95 92 91 91 90 90 90 91 91 91 92 90 90 89 89 90 89 90 90 89 89 90 91 92 92 94 94
89 89 91 92 92 92 92 91 93 92 92 93 94 93 92 91 91 92 91 90 90 91 91 90 90 91 90 89 89 89 90 90 90 89 88 88 89 90 92 92 90 91
89 89 89 91 91 91 92 92 92 93 93 94 93 95 94 92 92 92 92 92 93 93 93 93 92 92 92 91 89 89 91 92 92 89 89 88 91 93 94 92 90 90
90 89 90 92 92 92 91 91 92 92 94 95 94 93 94 94 92 91 92 92 93 92 93 91 90 91 92 91 89 89 89 90 91 90 88 89 89 90 92 91 90 89
91 92 91 91 92 93 91 92 93 92 93 93 94 93 93 94 93 94 93 92 93 92 91 92 90 89 93 92 90 89 89 93 91 89 88 88 89 89 89 92 90 89
92 92 91 91 93 93 94 95 95 94 93 92 94 95 94 93 94 94 92 92 92 92 91 91 90 91 92 92 91 90 89 91 93 91 89 89 89 89 90 91 90 89
90 92 94 94 94 94 95 95 97 95 94 93 94 96 96 93 94 94 93 90 91 90 90 90 91 91 92 93 91 91 91 90 91 91 91 91 91 91 92 91 91 90
92 93 93 93 94 96 96 97 97 98 96 94 95 95 97 96 92 93 92 90 92 91 90 90 91 91 91 93 93 93 92 92 92 91 91 91 91 91 91 91 91 92
92 93 94 94 94 96 97 97 98 97 97 96 96 95 95 97 95 94 93 91 91 92 92 91 90 91 90 91 94 95 93 93 93 92 92 92 92 93 92 92 92 92
93 93 93 94 94 95 97 97 98 99 98 98 96 95 96 96 97 94 93 93 91 92 93 91 91 92 90 90 91 93 93 92 94 93 93 93 94 94 96 95 95 94
93 94 94 93 93 92 94 96 97 97 96 96 96 95 96 96 97 97 95 95 93 93 93 92 91 91 90 90 91 92 93 93 92 93 94 94 94 94 96 97 96 97
91 93 93 93 92 91 91 93 95 95 95 95 94 95 98 98 98 98 96 94 94 93 93 94 93 92 93 92 90 90 92 93 93 92 93 92 93 95 96 95 96 98
90 90 91 91 91 90 89 91 93 94 96 94 94 94 94 94 94 95 97 96 94 93 93 94 93 94 88 80 82 91 91 94 93 91 91 92 91 91 94 96 97 98
88 88 89 89 89 89 89 89 90 92 92 91 91 92 91 91 92 94 95 97 96 95 94 94 95 95 79 71 72 75 90 92 92 91 91 90 91 90 90 93 95 96
88 88 87 87 88 87 87 88 90 89 89 89 90 91 89 92 92 91 92 95 96 96 96 96 95 85 71 69 70 70 77 91 94 93 93 92 92 92 92 93 93 95
87 87 87 87 86 87 87 87 87 88 89 89 90 91 92 89 89 91 91 92 93 92 95 96 96 81 69 68 68 68 68 79 93 94 94 94 93 92 92 91 91 91
87 87 86 86 87 86 86 86 87 86 89 92 91 90 89 89 91 89 90 89 90 90 90 94 94 84 68 66 66 66 66 72 90 92 92 93 92 93 94 91 90 90
87 87 86 87 87 86 85 85 86 86 88 90 93 91 89 87 89 89 89 89 91 92 91 94 96 78 67 64 64 63 64 69 87 90 91 91 92 92 90 91 91 91
88 87 87 87 87 86 86 85 85 85 85 88 89 93 93 92 91 91 91 90 91 92 92 91 96 74 67 64 62 63 63 79 85 86 87 89 90 90 90 89 90 90
84 88 87 87 87 86 86 87 85 86 87 88 88 90 92 93 92 92 90 91 91 91 90 90 94 79 65 63 61 61 67 83 85 86 86 87 87 89 90 90 91 90
80 82 86 86 86 86 87 87 89 89 89 89 89 89 91 94 94 93 92 92 93 92 94 91 92 83 64 61 60 59 71 84 85 86 86 86 86 88 89 89 89 83
79 80 82 86 86 88 89 88 88 89 90 90 91 91 91 91 92 93 94 93 96 95 86 90 94 87 65 61 59 58 69 85 86 86 85 85 87 87 87 89 89 86
78 79 81 82 84 87 88 89 90 89 89 90 90 91 91 93 93 92 92 93 95 95 96 94 93 93 81 59 59 57 62 83 86 85 85 85 87 87 88 88 89 90

ECMWFNIL_sfc_temp_105.txt.gz
Temp
90 90 90 91 91 92 91 91 92 91 90 93 92 91 92 92 93 92 93 92 92 91 91 90 90 90 91 90 90 90 90 90 92 91 91 91 91 92 94 93 93 92
90 91 90 91 90 91 91 93 92 92 90 91 92 92 92 92 93 93 92 92 92 92 91 91 90 90 90 91 90 89 89 89 90 94 90 90 91 93 93 93 93 93
91 91 92 92 93 92 95 93 92 92 93 94 93 92 94 94 93 92 92 92 92 93 91 91 91 90 90 90 90 90 90 88 89 92 90 90 92 91 92 95 95 94
90 91 93 93 94 94 94 93 93 92 93 93 93 94 94 97 93 93 92 91 91 92 92 92 92 92 91 90 89 90 90 89 91 91 90 90 90 92 93 93 95 95
91 92 93 94 94 94 94 93 94 94 94 94 95 94 93 92 92 93 92 91 91 92 92 92 92 92 91 90 90 89 90 90 89 90 89 89 90 91 93 93 92 93
91 91 91 93 94 93 94 94 94 95 94 96 95 96 94 93 93 94 93 93 94 94 94 94 93 93 93 91 90 90 90 91 92 90 89 88 89 90 95 93 92 91
93 92 93 94 95 95 94 94 94 94 96 96 95 95 95 95 93 92 93 93 94 93 95 93 91 91 92 91 90 89 89 88 86 90 88 90 89 88 93 92 90 90
94 94 94 94 95 95 94 95 95 94 95 95 96 95 96 96 94 95 94 94 94 93 93 94 92 91 94 93 91 90 90 94 92 89 88 89 89 89 90 92 91 89
95 94 94 94 96 96 97 97 97 96 95 95 97 97 96 96 96 96 93 93 93 92 92 92 91 92 92 93 92 91 90 92 94 91 90 89 89 89 91 91 91 90
93 95 96 96 97 97 97 98 99 97 96 96 97 99 98 95 96 96 95 92 92 92 92 91 92 92 92 92 92 92 91 90 91 91 92 91 91 91 92 92 91 90
95 97 96 96 97 99 99 99 100 100 98 97 97 98 99 97 94 95 94 93 94 92 92 91 92 92 91 93 93 93 92 92 91 91 91 91 92 91 92 92 91 92
95 96 97 97 97 99 100 100 100 100 100 98 98 97 97 100 96 96 95 93 93 93 93 92 91 92 91 92 94 94 93 94 93 92 93 93 93 94 93 93 93 92
96 96 96 98 97 98 100 100 100 101 101 100 99 98 98 99 100 96 95 95 93 94 94 92 92 93 91 91 92 93 94 93 95 94 93 94 94 95 96 96 95 95
95 97 97 96 97 95 97 100 101 100 99 99 99 97 98 99 100 99 97 96 95 94 94 93 92 92 91 91 91 93 94 94 94 94 95 94 95 95 96 97 97 97
94 96 96 96 96 95 95 97 98 98 98 98 97 98 100 99 100 101 99 96 95 94 94 95 95 93 93 92 91 91 93 94 94 94 94 93 94 96 96 96 97 99
93 93 94 94 94 94 93 95 97 98 100 98 97 98 97 96 96 97 100 99 96 95 95 96 95 96 89 83 85 92 92 95 94 92 92 93 92 93 96 97 98 99
91 92 91 92 92 93 93 93 93 96 96 95 95 96 94 94 96 97 98 100 99 97 95 97 97 98 82 74 75 79 91 93 93 92 92 92 93 91 91 94 97 97
87 87 89 90 91 91 91 91 93 93 92 93 95 96 93 96 96 95 95 97 99 99 98 97 97 88 73 72 73 73 80 92 95 94 95 94 93 93 93 94 95 97
86 87 87 88 89 90 90 90 90 91 92 93 95 95 96 92 92 94 94 95 96 95 98 99 98 83 70 71 71 71 72 83 96 95 96 96 95 93 93 92 92 93
81 84 85 86 86 87 89 89 89 89 92 94 94 93 92 92 94 92 93 92 93 93 93 97 98 84 68 68 69 69 70 75 93 95 95 96 94 95 96 93 92 92
83 84 85 86 86 85 86 87 88 89 90 92 95 94 92 90 92 91 91 92 94 95 94 97 100 78 67 67 66 66 68 72 90 94 94 94 94 95 92 93 93 93
82 82 83 84 85 85 83 83 87 87 87 90 92 95 94 94 93 93 93 93 93 94 95 94 98 77 66 65 64 65 66 81 88 88 90 92 93 93 92 91 92 92
79 79 80 82 83 84 84 85 86 87 89 90 90 92 94 95 93 94 92 93 94 93 93 93 96 82 66 63 62 63 68 84 87 88 88 89 89 91 91 92 93 92
79 80 81 82 82 82 83 84 85 87 89 90 91 91 91 94 95 94 94 93 94 94 95 93 95 85 65 62 61 61 71 85 86 87 88 87 88 89 90 90 91 86
81 82 82 83 83 83 80 75 76 77 79 82 83 90 91 91 91 93 95 95 97 96 89 93 95 88 65 62 60 59 70 86 87 87 86 87 88 88 88 90 90 87
80 80 81 83 84 84 79 73 76 75 75 75 77 77 78 82 90 91 93 95 97 97 97 96 95 95 81 60 60 58 62 84 88 87 86 86 88 87 88 89 89 90

ECMWFNIL_sfc_temp_108.txt.gz
Temp
87 87 87 87 87 87 87 87 88 88 87 88 87 87 87 87 88 87 89 88 88 88 88 87 87 87 88 88 88 86 86 87 86 87 87 87 87 89 90 89 89 86
87 87 87 88 86 87 87 88 87 87 87 87 88 88 88 87 88 89 88 88 88 88 88 88 87 87 87 87 87 86 85 87 86 90 87 87 87 89 90 90 90 90
88 88 88 88 89 89 92 90 88 88 89 90 90 89 90 90 89 88 88 88 88 89 87 87 87 87 88 87 86 86 86 85 86 88 87 86 88 87 88 92 90 90
87 88 89 90 90 90 91 89 89 88 90 88 89 92 92 93 90 90 88 89 88 88 88 88 88 88 88 87 86 86 86 85 87 84 85 87 87 88 88 88 90 90
88 88 90 90 91 89 89 90 91 90 91 89 91 90 89 88 88 89 88 88 88 89 88 88 88 88 87 86 85 85 86 85 87 85 84 85 86 87 88 88 88 89
88 88 88 89 90 89 90 90 90 91 91 92 91 92 91 91 90 90 89 89 90 90 90 90 89 89 89 87 86 86 86 86 87 86 85 85 87 88 91 89 88 87
89 89 90 91 92 91 91 90 90 90 92 92 91 90 91 91 90 89 89 89 90 89 91 88 87 88 88 87 86 86 86 85 86 85 85 86 85 86 89 87 86 87
90 91 91 91 92 92 92 91 91 91 91 91 92 91 91 92 90 92 90 90 91 89 88 90 87 87 90 88 86 86 86 89 87 84 85 85 85 84 85 86 85 86
91 91 90 91 92 93 93 94 93 93 92 91 93 93 92 92 91 92 89 89 89 88 88 89 87 88 89 88 87 86 86 88 89 86 85 85 86 85 87 87 86 86
90 91 92 92 93 93 93 94 95 94 93 93 94 95 94 92 92 91 90 87 88 88 88 88 88 89 89 89 88 88 87 86 87 87 87 87 87 87 88 87 87 86
93 93 92 92 93 94 95 95 96 96 94 94 94 95 95 93 91 91 88 88 90 89 88 87 88 88 88 89 90 89 89 89 87 87 88 87 88 87 88 87 87 87
82 93 93 93 93 95 95 96 96 96 95 94 95 94 94 95 92 93 91 88 89 89 89 87 87 88 87 88 90 90 89 89 88 88 88 88 89 89 89 89 89 87
78 84 93 95 94 95 96 96 96 98 97 95 95 95 95 96 95 92 91 91 89 90 90 88 87 88 86 87 88 89 89 88 89 89 88 88 89 90 91 91 91 90
77 78 80 89 93 91 93 96 97 97 96 95 94 94 95 96 96 94 93 93 91 91 90 89 88 88 87 87 87 88 89 89 88 89 89 89 90 90 91 92 92 92
77 78 77 76 86 92 92 93 95 94 93 93 93 94 97 96 97 97 93 92 92 90 90 91 90 89 89 88 87 87 89 90 89 89 89 88 88 91 91 90 92 94
77 77 78 78 75 78 87 92 93 94 96 94 94 94 92 91 91 93 95 93 92 90 90 92 91 91 86 82 83 88 88 91 90 87 88 87 87 87 90 91 93 94
76 76 76 76 78 77 76 82 90 93 91 90 90 91 91 89 91 92 95 96 93 93 91 92 93 93 80 74 74 78 88 87 87 86 87 87 88 86 85 89 91 91
77 78 77 76 77 78 78 76 78 86 89 89 91 92 88 92 92 91 90 93 96 94 93 93 92 85 73 72 72 73 79 88 89 89 90 88 88 88 88 89 89 92
78 77 77 77 78 79 79 79 78 78 85 90 92 93 92 89 88 91 90 91 92 90 93 94 93 83 71 70 71 71 72 81 90 89 90 91 89 88 88 86 86 86
77 77 77 78 79 80 81 81 81 81 83 89 92 90 88 89 92 90 89 88 89 88 88 93 93 84 70 68 69 69 70 74 88 90 90 90 88 89 91 88 86 86
75 76 77 78 78 79 80 81 80 80 80 77 78 82 85 87 90 89 89 89 91 92 91 94 98 79 69 67 66 67 69 72 86 90 90 89 89 89 86 87 87 88
74 75 75 77 77 76 75 76 75 77 76 76 75 74 74 76 81 89 91 91 91 92 92 91 95 78 66 65 65 66 67 77 84 85 86 88 88 87 86 84 86 87
75 75 76 76 76 76 75 74 74 74 75 76 76 76 75 77 78 80 85 90 92 90 90 90 92 82 66 62 63 64 67 79 83 85 85 86 85 86 85 85 87 86
75 76 76 76 76 75 75 73 73 74 76 76 76 76 75 77 77 79 81 84 89 92 93 90 91 85 67 60 61 62 69 80 82 83 84 84 84 86 86 85 86 87
76 75 75 75 75 75 74 73 73 74 76 75 75 76 77 78 79 80 82 84 89 90 87 90 92 87 70 60 60 60 67 80 82 83 83 83 84 84 85 86 85 86
78 76 76 75 74 75 75 73 74 74 75 75 76 76 76 77 79 79 82 84 88 90 92 92 91 91 84 60 59 58 61 79 83 82 82 83 84 84 84 85 85 86

ECMWFNIL_sfc_temp_111.txt.gz
Temp
80 81 80 80 80 81 80 81 81 81 81 81 80 80 81 82 83 82 83 82 82 82 82 81 81 81 82 80 81 82 82 81 82 81 80 80 79 81 84 82 83 80
80 81 81 81 80 81 80 81 81 81 81 81 81 81 82 82 83 83 82 82 82 82 81 82 81 81 81 81 80 80 80 80 80 84 81 80 80 81 82 81 83 81
81 80 81 81 81 81 83 83 82 81 82 83 83 83 83 83 83 82 82 82 81 83 81 81 81 81 81 80 80 80 80 79 79 82 81 80 80 81 80 83 82 83
80 82 82 83 82 82 82 82 81 81 83 82 83 85 86 87 83 82 82 84 81 81 82 81 81 82 81 81 80 80 80 79 80 80 79 80 80 81 81 81 82 82
81 82 82 83 82 82 82 82 83 82 83 82 84 83 84 82 83 83 82 82 81 81 81 82 81 82 80 81 80 80 80 80 80 79 79 78 79 80 82 81 80 81
81 81 81 82 82 82 83 81 82 84 83 84 84 84 85 83 84 83 83 83 83 83 83 83 82 82 82 80 80 80 80 81 80 79 79 78 79 81 84 82 81 81
83 82 82 83 83 83 84 82 82 83 84 84 84 83 84 83 83 83 83 83 83 82 84 82 81 81 82 81 80 79 79 79 79 79 79 79 79 79 83 82 80 79
84 84 84 83 84 83 84 83 83 82 84 82 84 83 85 85 84 85 84 83 84 82 81 83 81 81 83 81 80 80 79 83 81 79 78 79 78 79 79 82 80 79
84 84 84 83 85 84 85 86 85 84 84 84 84 85 84 85 84 85 83 83 83 82 82 81 81 82 82 82 81 80 80 81 82 80 79 79 79 79 80 80 79 79
84 84 85 85 85 85 86 87 87 87 84 86 85 86 85 84 85 85 82 82 83 81 82 81 82 82 82 82 81 81 81 80 79 80 80 81 80 80 80 80 80 79
82 85 86 85 86 86 87 88 88 88 87 86 87 87 87 85 83 85 82 81 84 82 81 81 81 82 82 82 82 83 82 82 82 79 80 81 81 81 83 81 80 80
79 81 83 86 87 87 87 88 89 88 88 88 87 87 86 87 85 85 85 82 82 83 82 81 80 81 81 82 83 83 82 83 82 81 81 81 82 82 82 82 82 81
77 78 78 79 80 81 83 84 87 90 89 89 89 89 88 87 88 85 85 84 83 84 83 81 81 81 80 81 82 82 82 82 82 82 82 81 82 83 83 83 83 82
75 77 77 76 77 76 77 78 79 82 85 88 88 88 89 88 88 88 85 85 85 85 84 83 81 81 79 80 81 82 82 81 82 82 82 82 83 82 83 84 84 85
75 76 76 77 77 75 77 78 79 79 80 82 85 89 90 90 89 89 87 85 85 84 84 84 83 83 82 81 80 81 82 81 82 82 81 81 81 83 83 83 85 86
75 75 75 76 76 75 75 77 79 79 80 80 81 85 88 88 88 86 88 87 85 84 84 85 84 85 83 79 79 83 82 84 82 82 82 81 80 81 82 83 86 86
75 74 74 74 75 76 76 76 77 79 78 78 79 77 80 83 87 88 87 88 88 86 85 86 87 87 79 72 73 76 83 82 81 79 80 81 80 79 80 82 83 84
74 75 75 74 75 74 75 76 77 77 77 77 77 77 77 80 83 86 87 86 88 88 86 87 86 82 73 71 71 71 77 83 83 82 81 81 82 81 81 81 82 83
73 73 74 74 75 76 76 76 76 76 76 76 75 77 78 77 77 80 84 86 86 85 87 87 87 79 71 70 70 70 70 78 84 83 83 81 81 82 82 80 80 80
72 72 73 74 75 75 75 76 75 74 74 74 74 74 77 78 79 77 78 79 83 83 83 87 86 80 71 68 68 68 69 72 84 84 83 83 81 81 83 82 80 80
72 72 73 73 74 75 75 74 73 73 74 75 75 75 76 76 78 78 78 79 81 84 83 84 88 77 69 67 65 65 68 70 82 85 84 84 84 82 80 82 81 81
72 71 71 73 74 74 74 74 74 74 74 74 75 75 76 77 77 78 79 79 81 82 84 85 89 74 68 67 65 64 66 74 80 82 83 84 83 82 81 80 80 82
73 73 72 73 73 73 73 74 73 73 73 74 74 74 74 75 76 78 78 80 81 81 81 82 84 79 70 62 64 63 65 75 78 80 81 82 82 82 80 79 80 80
73 73 72 73 72 72 73 73 73 73 73 74 73 73 74 75 77 77 78 80 80 81 83 82 84 72 61 60 57 61 67 75 77 79 80 80 81 82 82 80 80 83
73 73 73 73 73 72 73 72 72 72 73 73 73 74 74 74 76 76 77 79 81 82 82 78 73 72 66 65 60 57 62 73 77 78 79 80 80 80 81 81 81 83
73 73 73 73 72 73 73 73 73 73 73 73 73 73 73 74 76 76 77 78 80 81 84 75 74 75 74 63 63 57 57 70 74 76 77 79 80 80 80 81 81 82

ECMWFNIL_sfc_temp_114.txt.gz
Temp
76 76 77 77 78 78 78 78 78 78 78 78 77 78 77 78 79 79 79 79 79 79 78 78 78 78 80 78 78 78 78 77 77 77 77 77 77 77 80 79 78 77
76 77 79 78 78 79 78 79 78 79 78 78 78 79 78 79 79 79 79 79 79 79 79 79 78 78 78 78 77 78 77 77 77 80 77 77 77 77 79 78 79 77
77 77 78 77 78 78 80 80 79 79 79 79 80 79 80 80 80 79 79 80 79 80 79 79 78 78 79 78 77 78 79 77 77 78 78 77 77 77 78 79 79 79
77 78 79 79 79 79 79 79 78 79 80 79 80 81 82 84 81 80 79 82 79 79 79 79 79 79 78 78 77 77 77 77 77 77 77 77 77 77 78 78 78 79
78 77 78 79 79 79 79 79 80 79 80 80 81 81 81 81 80 80 80 80 79 79 79 79 79 79 78 78 78 78 77 77 77 76 76 76 77 77 79 78 77 78
78 78 78 79 79 79 79 79 80 80 80 81 81 81 81 81 81 81 81 81 80 80 80 80 79 79 79 78 78 78 78 78 78 77 77 76 77 77 80 79 78 77
78 78 78 79 79 79 79 79 80 80 80 81 80 81 82 81 81 81 81 81 81 80 81 80 79 79 79 78 78 77 77 78 77 77 77 77 77 77 78 78 78 76
79 79 79 79 80 79 79 79 79 79 81 80 81 81 81 82 81 82 81 81 81 80 80 80 79 79 80 79 78 77 77 79 78 77 77 77 76 76 77 78 77 76
80 80 79 79 81 81 80 82 81 80 81 81 81 82 81 81 82 82 81 81 81 80 79 79 79 79 79 79 78 78 77 78 79 77 77 77 77 77 77 77 77 76
77 79 81 81 81 82 82 82 83 82 81 81 82 83 82 81 81 82 81 80 80 79 78 79 79 79 79 79 79 79 78 78 78 77 78 78 78 78 78 77 77 77
76 79 80 81 82 82 83 83 84 84 82 82 82 82 83 82 80 81 80 79 81 80 79 78 79 79 79 79 80 80 79 79 78 77 77 78 78 78 80 78 78 77
73 74 75 77 80 83 84 84 84 84 84 83 83 83 83 83 82 81 81 80 80 81 80 79 78 79 79 79 80 80 79 79 79 79 78 78 78 78 79 79 79 78
73 73 73 74 74 75 79 81 81 83 85 85 85 85 83 83 83 82 81 81 80 81 81 80 79 79 78 79 79 80 79 79 79 79 79 78 79 79 80 80 80 80
73 73 73 73 74 75 75 76 77 77 79 79 82 84 85 84 84 83 83 82 81 81 81 81 79 78 78 78 79 79 79 79 79 79 79 79 79 79 80 81 81 81
73 73 73 73 74 74 74 75 76 76 76 77 78 81 85 86 85 85 83 82 82 81 81 81 80 80 79 79 78 78 79 79 78 78 79 78 78 79 79 79 81 82
73 73 73 74 74 73 73 73 74 77 78 77 77 78 78 79 80 82 84 83 82 81 81 82 81 82 81 77 78 80 79 81 79 78 78 78 78 78 79 79 81 82
74 73 73 73 73 73 73 73 74 76 76 75 75 74 74 76 78 80 81 83 83 83 82 82 83 84 77 71 72 75 81 79 79 78 77 77 77 77 77 79 80 80
72 73 73 73 73 74 74 74 75 75 74 74 74 75 74 76 78 78 77 79 83 83 83 83 83 80 72 69 70 70 76 81 80 80 79 77 77 78 78 78 79 80
71 72 72 72 73 73 73 74 74 74 74 75 74 74 75 74 75 76 77 76 79 79 82 83 83 76 70 69 69 69 69 77 82 81 80 79 78 77 78 77 77 77
71 71 71 72 73 73 73 73 73 72 73 74 74 73 73 74 76 76 75 74 76 76 78 81 82 78 69 67 67 67 68 70 81 81 80 80 80 79 80 78 77 77
70 70 71 71 72 73 72 72 72 71 72 73 73 73 73 73 74 75 75 75 77 77 76 79 84 75 68 65 65 65 66 68 79 82 81 81 81 81 79 79 78 78
71 71 70 71 71 71 72 72 71 71 72 73 73 73 74 74 74 75 76 76 76 76 77 78 82 72 67 64 63 63 65 72 76 78 80 81 81 80 80 80 79 79
70 71 71 71 70 70 70 71 71 71 72 73 72 73 73 73 74 75 74 75 76 76 76 76 79 68 63 61 61 62 64 72 74 77 78 79 80 80 80 80 80 79
70 71 71 71 70 70 70 70 71 71 72 73 72 72 72 73 74 74 75 75 75 76 78 78 79 69 61 62 59 59 66 73 74 75 77 77 78 80 80 79 80 82
70 70 71 71 70 71 71 71 71 71 72 72 72 72 72 73 73 73 74 75 77 78 79 78 75 73 62 61 61 57 62 70 73 74 75 76 77 78 79 79 79 81
68 69 69 70 70 70 71 71 71 71 71 72 72 72 72 72 73 73 73 75 77 77 79 78 75 75 75 62 58 55 59 71 71 72 73 75 76 77 77 78 79 79

ECMWFNIL_sfc_temp_117.txt.gz
Temp
74 75 74 74 75 76 75 75 75 75 75 75 75 75 75 76 77 77 77 77 77 77 76 76 76 76 78 76 76 76 76 76 75 75 74 75 75 76 77 76 75 75
74 75 76 76 76 77 75 76 76 76 75 75 76 75 76 76 76 77 77 77 77 77 76 76 76 76 76 76 76 76 75 75 76 78 76 75 75 75 75 76 76 75
74 74 75 75 75 75 77 77 77 76 76 77 77 77 77 77 77 76 77 77 77 77 77 77 76 77 77 76 76 77 76 75 76 76 76 75 75 75 75 76 75 76
74 75 75 76 76 76 76 76 76 76 76 76 76 78 79 80 78 77 76 79 77 77 77 77 77 77 77 77 76 76 76 75 76 75 75 75 75 75 75 75 76 76
75 75 75 76 76 76 76 77 77 76 77 77 78 77 78 77 77 77 77 77 76 77 77 77 77 77 77 77 76 76 76 76 75 74 75 75 75 75 76 76 75 75
75 75 75 76 76 76 76 76 77 77 77 78 78 78 78 78 78 78 78 77 77 78 78 77 77 77 77 77 76 76 76 77 76 75 75 74 75 75 77 77 75 74
76 75 75 76 76 76 77 77 77 78 78 79 78 78 78 78 78 78 78 78 78 78 78 77 77 77 77 77 76 76 75 75 75 75 75 75 75 75 76 75 75 75
77 76 76 75 76 76 76 77 77 77 78 77 78 78 78 79 78 79 79 79 78 78 77 78 77 77 77 77 76 76 76 77 76 75 75 75 74 75 75 76 75 74
77 77 76 76 77 77 77 78 78 77 77 77 78 79 78 79 79 79 78 78 78 78 77 77 77 77 77 77 76 76 76 76 77 76 75 75 75 75 75 75 75 75
76 77 78 77 78 78 78 78 79 78 78 78 79 79 79 78 79 79 79 77 78 77 77 77 77 77 77 77 77 77 76 76 76 76 76 76 76 76 76 75 75 75
76 77 78 78 78 79 79 79 80 80 79 79 79 79 80 78 77 78 78 77 78 78 77 77 77 77 77 77 77 77 77 77 77 76 76 76 76 76 78 76 76 76
72 73 75 77 78 79 80 81 81 80 80 79 79 79 79 80 79 78 79 78 78 78 78 78 77 77 77 77 78 78 77 77 77 77 77 76 76 76 76 76 76 76
71 72 72 73 75 75 75 76 79 81 81 81 80 80 80 80 80 79 78 78 78 79 79 78 77 77 77 77 77 77 77 77 77 77 77 76 77 77 77 77 77 77
72 72 72 72 72 72 73 74 75 76 77 79 80 80 81 81 81 80 79 79 79 79 79 79 78 77 77 76 77 77 77 77 77 77 77 77 77 77 77 78 78 78
72 72 72 73 74 72 73 74 74 73 73 73 75 79 82 82 82 82 81 79 79 79 79 79 79 78 78 78 77 76 77 77 77 77 77 76 76 77 77 77 78 79
72 73 73 73 73 73 73 73 73 74 75 74 74 74 76 78 80 80 81 80 79 79 78 79 79 79 79 76 77 79 77 78 78 77 76 76 76 75 76 76 78 78
72 72 72 72 72 72 72 72 72 73 74 73 73 73 73 73 76 78 80 81 81 80 79 79 80 81 75 70 70 72 79 77 77 77 76 76 76 75 75 76 77 77
71 72 72 72 72 72 72 72 72 73 73 73 73 73 72 73 73 75 76 78 81 80 80 81 80 78 71 68 69 68 73 79 78 78 78 76 76 76 77 77 77 77
71 71 72 72 72 73 73 73 73 72 72 72 72 73 73 71 71 73 73 74 77 77 79 81 80 75 69 68 67 67 67 73 79 79 78 78 77 77 77 76 76 76
70 71 71 71 71 71 72 73 73 72 72 73 73 73 72 72 72 72 72 72 72 73 74 76 78 77 69 66 66 65 66 68 76 79 79 78 78 77 78 77 76 76
70 70 70 70 70 71 71 71 71 71 72 72 73 72 72 72 72 72 72 73 73 74 73 75 79 74 68 65 64 64 65 67 74 77 79 79 79 78 77 78 77 77
69 69 69 70 70 70 71 70 70 70 70 72 72 72 73 73 73 73 73 72 73 73 74 74 77 68 65 64 62 62 63 70 73 74 76 78 79 78 78 77 77 77
68 69 69 69 69 69 70 70 70 70 70 72 71 72 71 71 71 72 73 73 73 74 73 72 75 69 62 62 60 60 62 70 72 74 75 76 77 78 78 78 77 77
69 69 69 69 68 68 69 70 70 70 70 72 71 71 71 72 72 72 72 73 73 73 74 74 75 72 61 60 60 58 63 70 71 72 74 74 76 77 77 77 77 80
69 69 69 69 68 67 69 69 69 69 70 70 71 71 71 72 72 72 72 73 74 74 77 75 74 73 63 59 59 60 62 68 70 71 72 73 74 75 76 76 77 79
67 68 68 68 67 67 68 69 69 69 68 69 70 70 71 71 72 71 71 72 74 75 76 75 74 74 73 63 58 57 59 68 69 69 70 72 73 74 74 76 77 77

ECMWFNIL_sfc_temp_120.txt.gz
Temp
76 75 75 76 75 76 76 76 76 76 76 76 77 77 77 78 78 78 79 78 78 78 78 78 79 78 79 78 79 79 79 78 79 78 78 78 78 79 80 79 79 78
75 76 77 76 76 77 76 77 76 76 76 76 77 77 77 78 78 79 78 78 79 79 78 78 78 78 78 79 78 78 78 78 79 80 78 78 78 78 79 79 79 78
75 76 76 76 77 76 78 77 77 77 77 77 77 77 77 78 78 78 78 78 78 79 78 78 78 78 79 79 78 79 79 78 78 79 79 79 79 78 79 80 80 80
75 76 77 77 77 77 77 77 77 77 77 77 77 78 79 80 78 78 77 79 78 78 79 78 78 79 79 79 78 78 79 78 79 78 78 79 78 79 79 79 80 80
75 75 76 77 77 77 77 77 77 77 78 78 78 78 78 78 78 78 78 78 78 78 78 79 79 79 79 78 78 78 79 79 78 78 78 78 78 79 79 79 78 79
75 76 76 76 76 76 77 77 77 78 78 78 78 79 79 79 79 79 79 78 79 79 79 79 79 79 79 79 78 78 79 79 79 78 78 78 79 79 80 79 79 79
76 75 76 77 77 77 77 77 77 78 78 79 79 78 79 79 78 79 79 79 79 79 79 79 78 79 79 79 78 78 78 78 78 78 78 78 78 78 79 79 79 78
77 76 76 76 77 76 77 77 77 78 78 78 79 79 79 80 79 80 80 79 80 79 79 79 79 78 79 79 78 78 78 79 78 77 77 78 77 78 78 78 79 78
77 76 76 76 77 77 78 78 78 78 78 78 79 80 79 80 80 80 79 79 79 79 78 79 79 79 79 79 78 78 78 79 79 78 78 78 78 78 78 78 78 78
76 77 77 77 77 78 78 78 79 79 78 79 79 80 79 79 80 80 80 79 79 79 78 79 79 79 79 79 79 79 79 78 78 78 79 78 78 79 79 78 79 78
76 77 77 77 77 78 79 79 79 80 79 79 79 80 80 80 79 79 79 79 79 79 79 78 79 79 79 79 79 79 79 79 79 79 79 79 79 79 79 79 78 79
75 76 77 77 78 79 79 80 80 80 80 80 80 80 80 81 80 79 80 79 79 80 80 79 79 79 79 79 80 80 79 79 79 79 79 79 79 79 79 79 79 79
73 74 75 77 77 78 79 79 80 81 81 80 80 80 80 81 81 80 79 80 79 80 80 80 79 79 79 79 79 80 79 79 79 79 79 79 79 80 80 80 80 80
72 73 73 72 73 74 76 78 79 79 79 80 80 80 81 81 81 81 81 80 80 80 80 80 79 79 79 79 79 79 80 79 79 79 79 79 80 80 80 81 81 81
72 73 73 73 74 74 73 75 76 77 77 77 78 79 82 82 82 82 81 80 80 79 80 80 80 79 79 79 78 78 79 79 79 79 79 79 79 80 80 80 80 81
72 73 73 73 73 73 73 74 75 76 77 76 76 76 77 78 79 80 81 81 80 79 79 80 79 80 79 75 76 79 79 80 79 79 79 79 79 79 80 80 81 81
72 72 73 73 72 73 73 73 73 75 75 75 75 75 75 74 76 78 80 81 81 81 80 80 81 82 75 69 69 71 79 79 79 78 79 78 79 78 78 79 80 80
71 72 72 72 73 73 73 73 74 74 74 74 75 76 75 76 76 75 75 77 80 81 81 81 81 77 70 68 68 68 72 79 80 80 80 79 79 79 79 79 80 80
71 71 71 71 72 73 73 74 73 73 73 74 73 74 75 75 74 75 75 75 76 76 78 80 81 75 68 67 67 66 66 73 80 80 80 80 80 79 79 79 79 79
70 70 70 70 71 72 72 72 72 71 72 73 73 74 74 74 75 74 74 74 75 75 75 77 78 75 68 65 64 64 65 68 77 79 80 80 80 80 80 79 79 78
69 69 70 70 71 71 71 71 71 72 72 72 72 72 73 73 73 74 74 75 76 76 76 77 79 72 66 63 61 60 62 66 74 77 79 80 80 80 79 79 79 79
68 68 68 69 70 70 69 69 70 71 71 72 72 72 73 73 74 74 74 74 75 76 76 76 78 68 63 61 59 60 61 70 73 74 75 77 78 79 79 79 79 79
67 67 67 68 68 69 69 69 69 70 70 72 71 71 71 71 72 72 72 73 74 74 74 75 77 70 63 59 58 59 65 72 72 73 74 75 76 77 78 79 79 79
68 68 67 67 67 67 68 68 68 69 70 71 71 70 70 71 72 72 73 73 73 74 75 75 75 71 61 59 57 58 65 72 73 73 74 74 75 77 77 78 78 79
67 67 67 68 67 67 68 68 68 68 70 71 71 71 71 71 72 71 71 72 73 73 73 73 73 71 62 58 58 57 64 71 71 72 72 73 74 75 76 77 77 78
67 67 67 67 67 67 67 68 68 69 69 70 70 70 69 69 69 69 69 70 72 72 72 72 72 72 69 58 55 56 58 68 71 71 72 72 74 74 74 76 76 77